<?xml version="1.0" encoding="UTF-8" standalone="no" ?>
<gpx xmlns="http://www.topografix.com/GPX/1/1" xmlns:xsi="http://www.w3.org/2001/XMLSchema-instance" xsi:schemaLocation="http://www.topografix.com/GPX/1/1 http://www.topografix.com/GPX/1/1/gpx.xsd" version="1.1" creator="VisuGPX - https://www.visugpx.com">
  <metadata>
    <name>Gravel dans le coin 😀</name>
  </metadata>
  <trk>
    <name><![CDATA[Gravel dans le coin 😀]]></name>
    <extensions>
      <line xmlns="http://www.topografix.com/GPX/gpx_style/0/2">
        <color>0000FF</color>
        <width>4</width>
      </line>
    </extensions>
    <trkseg>
      <trkpt lat="43.34476" lon="6.05156">
        <ele>329.074377</ele>
        <time>2025-07-06T12:11:24.206Z</time>
      </trkpt>
      <trkpt lat="43.34476" lon="6.05123">
        <ele>329.074377</ele>
        <time>2025-07-06T12:11:29.147Z</time>
      </trkpt>
      <trkpt lat="43.34446" lon="6.05109">
        <ele>329.074377</ele>
        <time>2025-07-06T12:11:35.620Z</time>
      </trkpt>
      <trkpt lat="43.34304" lon="6.05087">
        <ele>327.424408</ele>
        <time>2025-07-06T12:12:03.457Z</time>
      </trkpt>
      <trkpt lat="43.34217" lon="6.05081">
        <ele>326.124839</ele>
        <time>2025-07-06T12:12:20.989Z</time>
      </trkpt>
      <trkpt lat="43.34208" lon="6.05078">
        <ele>325.995071</ele>
        <time>2025-07-06T12:12:22.910Z</time>
      </trkpt>
      <trkpt lat="43.34191" lon="6.05063">
        <ele>325.70908</ele>
        <time>2025-07-06T12:12:27.147Z</time>
      </trkpt>
      <trkpt lat="43.34176" lon="6.05051">
        <ele>325.456316</ele>
        <time>2025-07-06T12:12:30.907Z</time>
      </trkpt>
      <trkpt lat="43.34159" lon="6.05043">
        <ele>325.206695</ele>
        <time>2025-07-06T12:12:34.579Z</time>
      </trkpt>
      <trkpt lat="43.34097" lon="6.05019">
        <ele>324.296049</ele>
        <time>2025-07-06T12:12:47.709Z</time>
      </trkpt>
      <trkpt lat="43.34012" lon="6.04992">
        <ele>322.763583</ele>
        <time>2025-07-06T12:13:04.134Z</time>
      </trkpt>
      <trkpt lat="43.33999" lon="6.04974">
        <ele>322.388998</ele>
        <time>2025-07-06T12:13:07.583Z</time>
      </trkpt>
      <trkpt lat="43.33998" lon="6.04967">
        <ele>322.284001</ele>
        <time>2025-07-06T12:13:08.578Z</time>
      </trkpt>
      <trkpt lat="43.33993" lon="6.04962">
        <ele>322.176193</ele>
        <time>2025-07-06T12:13:09.573Z</time>
      </trkpt>
      <trkpt lat="43.33985" lon="6.04962">
        <ele>322.015547</ele>
        <time>2025-07-06T12:13:11.070Z</time>
      </trkpt>
      <trkpt lat="43.3398" lon="6.0497">
        <ele>321.862389</ele>
        <time>2025-07-06T12:13:12.506Z</time>
      </trkpt>
      <trkpt lat="43.33969" lon="6.04981">
        <ele>321.578639</ele>
        <time>2025-07-06T12:13:15.166Z</time>
      </trkpt>
      <trkpt lat="43.33958" lon="6.04979">
        <ele>321.359845</ele>
        <time>2025-07-06T12:13:17.141Z</time>
      </trkpt>
      <trkpt lat="43.33904" lon="6.04965">
        <ele>320.264991</ele>
        <time>2025-07-06T12:13:27.168Z</time>
      </trkpt>
      <trkpt lat="43.33846" lon="6.04946">
        <ele>319.816021</ele>
        <time>2025-07-06T12:13:39.155Z</time>
      </trkpt>
      <trkpt lat="43.33828" lon="6.0493">
        <ele>319.676078</ele>
        <time>2025-07-06T12:13:43.617Z</time>
      </trkpt>
      <trkpt lat="43.33756" lon="6.04842">
        <ele>319.039245</ele>
        <time>2025-07-06T12:14:04.082Z</time>
      </trkpt>
      <trkpt lat="43.33755" lon="6.05016">
        <ele>318.878583</ele>
        <time>2025-07-06T12:14:32.681Z</time>
      </trkpt>
      <trkpt lat="43.33755" lon="6.05089">
        <ele>318.824892</ele>
        <time>2025-07-06T12:14:45.394Z</time>
      </trkpt>
      <trkpt lat="43.33761" lon="6.05185">
        <ele>319.095994</ele>
        <time>2025-07-06T12:15:02.229Z</time>
      </trkpt>
      <trkpt lat="43.33767" lon="6.05415">
        <ele>320.604576</ele>
        <time>2025-07-06T12:15:45.237Z</time>
      </trkpt>
      <trkpt lat="43.33769" lon="6.05568">
        <ele>322.800235</ele>
        <time>2025-07-06T12:16:24.366Z</time>
      </trkpt>
      <trkpt lat="43.33769" lon="6.05592">
        <ele>323.147784</ele>
        <time>2025-07-06T12:16:31.201Z</time>
      </trkpt>
      <trkpt lat="43.33766" lon="6.05694">
        <ele>325.633251</ele>
        <time>2025-07-06T12:17:00.785Z</time>
      </trkpt>
      <trkpt lat="43.33763" lon="6.05773">
        <ele>327.553346</ele>
        <time>2025-07-06T12:17:24.776Z</time>
      </trkpt>
      <trkpt lat="43.33766" lon="6.05842">
        <ele>329.154764</ele>
        <time>2025-07-06T12:17:45.756Z</time>
      </trkpt>
      <trkpt lat="43.33771" lon="6.05875">
        <ele>329.282595</ele>
        <time>2025-07-06T12:17:55.299Z</time>
      </trkpt>
      <trkpt lat="43.33782" lon="6.05909">
        <ele>329.425439</ele>
        <time>2025-07-06T12:18:04.971Z</time>
      </trkpt>
      <trkpt lat="43.33803" lon="6.05958">
        <ele>329.641993</ele>
        <time>2025-07-06T12:18:17.414Z</time>
      </trkpt>
      <trkpt lat="43.33819" lon="6.06015">
        <ele>329.876272</ele>
        <time>2025-07-06T12:18:27.530Z</time>
      </trkpt>
      <trkpt lat="43.33847" lon="6.06116">
        <ele>328.29444</ele>
        <time>2025-07-06T12:18:42.133Z</time>
      </trkpt>
      <trkpt lat="43.33857" lon="6.06154">
        <ele>326.946446</ele>
        <time>2025-07-06T12:18:47.111Z</time>
      </trkpt>
      <trkpt lat="43.3387" lon="6.06206">
        <ele>325.078074</ele>
        <time>2025-07-06T12:18:53.818Z</time>
      </trkpt>
      <trkpt lat="43.33894" lon="6.06304">
        <ele>321.589776</ele>
        <time>2025-07-06T12:19:05.888Z</time>
      </trkpt>
      <trkpt lat="43.33826" lon="6.06349">
        <ele>318.295665</ele>
        <time>2025-07-06T12:19:17.888Z</time>
      </trkpt>
      <trkpt lat="43.3377" lon="6.06374">
        <ele>315.714581</ele>
        <time>2025-07-06T12:19:27.688Z</time>
      </trkpt>
      <trkpt lat="43.33679" lon="6.06417">
        <ele>314.475397</ele>
        <time>2025-07-06T12:19:47.687Z</time>
      </trkpt>
      <trkpt lat="43.33562" lon="6.06476">
        <ele>315.99325</ele>
        <time>2025-07-06T12:20:32.551Z</time>
      </trkpt>
      <trkpt lat="43.33556" lon="6.06481">
        <ele>316.008325</ele>
        <time>2025-07-06T12:20:34.846Z</time>
      </trkpt>
      <trkpt lat="43.33548" lon="6.06522">
        <ele>315.992184</ele>
        <time>2025-07-06T12:20:45.901Z</time>
      </trkpt>
      <trkpt lat="43.33539" lon="6.06527">
        <ele>315.987389</ele>
        <time>2025-07-06T12:20:49.004Z</time>
      </trkpt>
      <trkpt lat="43.3353" lon="6.06524">
        <ele>315.982238</ele>
        <time>2025-07-06T12:20:52.171Z</time>
      </trkpt>
      <trkpt lat="43.33477" lon="6.06476">
        <ele>315.949652</ele>
        <time>2025-07-06T12:21:07.813Z</time>
      </trkpt>
      <trkpt lat="43.33461" lon="6.06468">
        <ele>315.940655</ele>
        <time>2025-07-06T12:21:11.214Z</time>
      </trkpt>
      <trkpt lat="43.3344" lon="6.06469">
        <ele>315.929802</ele>
        <time>2025-07-06T12:21:14.990Z</time>
      </trkpt>
      <trkpt lat="43.33429" lon="6.06473">
        <ele>315.923718</ele>
        <time>2025-07-06T12:21:17.114Z</time>
      </trkpt>
      <trkpt lat="43.33404" lon="6.06492">
        <ele>315.596884</ele>
        <time>2025-07-06T12:21:22.333Z</time>
      </trkpt>
      <trkpt lat="43.33395" lon="6.06502">
        <ele>315.378813</ele>
        <time>2025-07-06T12:21:24.402Z</time>
      </trkpt>
      <trkpt lat="43.33379" lon="6.06531">
        <ele>314.875595</ele>
        <time>2025-07-06T12:21:29.253Z</time>
      </trkpt>
      <trkpt lat="43.33373" lon="6.06535">
        <ele>314.735211</ele>
        <time>2025-07-06T12:21:30.605Z</time>
      </trkpt>
      <trkpt lat="43.33359" lon="6.06535">
        <ele>314.473314</ele>
        <time>2025-07-06T12:21:33.134Z</time>
      </trkpt>
      <trkpt lat="43.33359" lon="6.06549">
        <ele>314.285629</ele>
        <time>2025-07-06T12:21:36.246Z</time>
      </trkpt>
      <trkpt lat="43.33369" lon="6.06587">
        <ele>313.711605</ele>
        <time>2025-07-06T12:21:45.829Z</time>
      </trkpt>
      <trkpt lat="43.33388" lon="6.06623">
        <ele>313.08409</ele>
        <time>2025-07-06T12:21:56.531Z</time>
      </trkpt>
      <trkpt lat="43.33445" lon="6.06676">
        <ele>311.722462</ele>
        <time>2025-07-06T12:22:21.150Z</time>
      </trkpt>
      <trkpt lat="43.33464" lon="6.06703">
        <ele>311.175424</ele>
        <time>2025-07-06T12:22:31.002Z</time>
      </trkpt>
      <trkpt lat="43.33472" lon="6.06729">
        <ele>310.766281</ele>
        <time>2025-07-06T12:22:38.008Z</time>
      </trkpt>
      <trkpt lat="43.33473" lon="6.06761">
        <ele>310.292223</ele>
        <time>2025-07-06T12:22:45.737Z</time>
      </trkpt>
      <trkpt lat="43.33471" lon="6.06779">
        <ele>310.019372</ele>
        <time>2025-07-06T12:22:50.054Z</time>
      </trkpt>
      <trkpt lat="43.33462" lon="6.06851">
        <ele>308.948484</ele>
        <time>2025-07-06T12:23:06.232Z</time>
      </trkpt>
      <trkpt lat="43.33443" lon="6.06919">
        <ele>306.925289</ele>
        <time>2025-07-06T12:23:21.780Z</time>
      </trkpt>
      <trkpt lat="43.33425" lon="6.06969">
        <ele>305.264999</ele>
        <time>2025-07-06T12:23:33.635Z</time>
      </trkpt>
      <trkpt lat="43.33406" lon="6.07007">
        <ele>303.914352</ele>
        <time>2025-07-06T12:23:43.203Z</time>
      </trkpt>
      <trkpt lat="43.33397" lon="6.07011">
        <ele>303.529437</ele>
        <time>2025-07-06T12:23:45.977Z</time>
      </trkpt>
      <trkpt lat="43.33386" lon="6.07009">
        <ele>303.082281</ele>
        <time>2025-07-06T12:23:49.206Z</time>
      </trkpt>
      <trkpt lat="43.33386" lon="6.07018">
        <ele>302.819756</ele>
        <time>2025-07-06T12:23:50.251Z</time>
      </trkpt>
      <trkpt lat="43.33357" lon="6.0708">
        <ele>301.359987</ele>
        <time>2025-07-06T12:23:59.331Z</time>
      </trkpt>
      <trkpt lat="43.33341" lon="6.07128">
        <ele>301.106156</ele>
        <time>2025-07-06T12:24:06.307Z</time>
      </trkpt>
      <trkpt lat="43.33336" lon="6.07155">
        <ele>300.968539</ele>
        <time>2025-07-06T12:24:10.268Z</time>
      </trkpt>
      <trkpt lat="43.33331" lon="6.07301">
        <ele>300.420255</ele>
        <time>2025-07-06T12:24:36.665Z</time>
      </trkpt>
      <trkpt lat="43.33331" lon="6.07387">
        <ele>301.739272</ele>
        <time>2025-07-06T12:24:58.006Z</time>
      </trkpt>
      <trkpt lat="43.33334" lon="6.07453">
        <ele>302.750754</ele>
        <time>2025-07-06T12:25:14.748Z</time>
      </trkpt>
      <trkpt lat="43.33339" lon="6.07525">
        <ele>303.860247</ele>
        <time>2025-07-06T12:25:32.935Z</time>
      </trkpt>
      <trkpt lat="43.33348" lon="6.07588">
        <ele>304.520509</ele>
        <time>2025-07-06T12:25:48.317Z</time>
      </trkpt>
      <trkpt lat="43.33359" lon="6.07645">
        <ele>305.053445</ele>
        <time>2025-07-06T12:26:01.312Z</time>
      </trkpt>
      <trkpt lat="43.33363" lon="6.07651">
        <ele>305.127938</ele>
        <time>2025-07-06T12:26:03.043Z</time>
      </trkpt>
      <trkpt lat="43.33376" lon="6.07691">
        <ele>305.526117</ele>
        <time>2025-07-06T12:26:11.788Z</time>
      </trkpt>
      <trkpt lat="43.33378" lon="6.07695">
        <ele>305.573701</ele>
        <time>2025-07-06T12:26:12.812Z</time>
      </trkpt>
      <trkpt lat="43.33382" lon="6.07697">
        <ele>305.618777</ele>
        <time>2025-07-06T12:26:13.752Z</time>
      </trkpt>
      <trkpt lat="43.33391" lon="6.07689">
        <ele>305.754361</ele>
        <time>2025-07-06T12:26:16.700Z</time>
      </trkpt>
      <trkpt lat="43.33401" lon="6.0767">
        <ele>305.961068</ele>
        <time>2025-07-06T12:26:21.152Z</time>
      </trkpt>
      <trkpt lat="43.33404" lon="6.07665">
        <ele>306.018542</ele>
        <time>2025-07-06T12:26:22.379Z</time>
      </trkpt>
      <trkpt lat="43.33408" lon="6.07655">
        <ele>306.124152</ele>
        <time>2025-07-06T12:26:24.692Z</time>
      </trkpt>
      <trkpt lat="43.33392" lon="6.07654">
        <ele>306.29702</ele>
        <time>2025-07-06T12:26:29.088Z</time>
      </trkpt>
      <trkpt lat="43.33387" lon="6.07646">
        <ele>306.285351</ele>
        <time>2025-07-06T12:26:31.027Z</time>
      </trkpt>
      <trkpt lat="43.33375" lon="6.07584">
        <ele>306.21152</ele>
        <time>2025-07-06T12:26:42.834Z</time>
      </trkpt>
      <trkpt lat="43.33375" lon="6.07578">
        <ele>306.205328</ele>
        <time>2025-07-06T12:26:43.774Z</time>
      </trkpt>
      <trkpt lat="43.33375" lon="6.07584">
        <ele>306.199136</ele>
        <time>2025-07-06T12:26:44.671Z</time>
      </trkpt>
      <trkpt lat="43.33387" lon="6.07646">
        <ele>306.125305</ele>
        <time>2025-07-06T12:26:55.257Z</time>
      </trkpt>
      <trkpt lat="43.33392" lon="6.07654">
        <ele>306.113636</ele>
        <time>2025-07-06T12:26:56.924Z</time>
      </trkpt>
      <trkpt lat="43.33408" lon="6.07655">
        <ele>306.08715</ele>
        <time>2025-07-06T12:27:00.679Z</time>
      </trkpt>
      <trkpt lat="43.33404" lon="6.07665">
        <ele>306.073703</ele>
        <time>2025-07-06T12:27:02.549Z</time>
      </trkpt>
      <trkpt lat="43.33401" lon="6.0767">
        <ele>306.066386</ele>
        <time>2025-07-06T12:27:03.553Z</time>
      </trkpt>
      <trkpt lat="43.33386" lon="6.07683">
        <ele>306.037513</ele>
        <time>2025-07-06T12:27:07.489Z</time>
      </trkpt>
      <trkpt lat="43.33378" lon="6.07687">
        <ele>306.02411</ele>
        <time>2025-07-06T12:27:09.268Z</time>
      </trkpt>
      <trkpt lat="43.33376" lon="6.07691">
        <ele>306.018527</ele>
        <time>2025-07-06T12:27:10.029Z</time>
      </trkpt>
      <trkpt lat="43.33378" lon="6.07695">
        <ele>305.968934</ele>
        <time>2025-07-06T12:27:10.846Z</time>
      </trkpt>
      <trkpt lat="43.33379" lon="6.07697">
        <ele>305.952101</ele>
        <time>2025-07-06T12:27:11.634Z</time>
      </trkpt>
      <trkpt lat="43.33374" lon="6.07695">
        <ele>305.890076</ele>
        <time>2025-07-06T12:27:12.488Z</time>
      </trkpt>
      <trkpt lat="43.33377" lon="6.07701">
        <ele>305.814618</ele>
        <time>2025-07-06T12:27:13.533Z</time>
      </trkpt>
      <trkpt lat="43.33385" lon="6.07715">
        <ele>305.633075</ele>
        <time>2025-07-06T12:27:16.001Z</time>
      </trkpt>
      <trkpt lat="43.3339" lon="6.07723">
        <ele>305.519983</ele>
        <time>2025-07-06T12:27:17.520Z</time>
      </trkpt>
      <trkpt lat="43.33406" lon="6.07744">
        <ele>305.203687</ele>
        <time>2025-07-06T12:27:21.715Z</time>
      </trkpt>
      <trkpt lat="43.33423" lon="6.07772">
        <ele>304.821468</ele>
        <time>2025-07-06T12:27:26.666Z</time>
      </trkpt>
      <trkpt lat="43.33427" lon="6.07782">
        <ele>304.701605</ele>
        <time>2025-07-06T12:27:28.219Z</time>
      </trkpt>
      <trkpt lat="43.33435" lon="6.07809">
        <ele>304.389517</ele>
        <time>2025-07-06T12:27:32.310Z</time>
      </trkpt>
      <trkpt lat="43.3344" lon="6.07832">
        <ele>304.143326</ele>
        <time>2025-07-06T12:27:35.555Z</time>
      </trkpt>
      <trkpt lat="43.33449" lon="6.07866">
        <ele>303.760126</ele>
        <time>2025-07-06T12:27:40.602Z</time>
      </trkpt>
      <trkpt lat="43.33458" lon="6.07884">
        <ele>303.535844</ele>
        <time>2025-07-06T12:27:43.577Z</time>
      </trkpt>
      <trkpt lat="43.33509" lon="6.0796">
        <ele>302.469393</ele>
        <time>2025-07-06T12:27:57.638Z</time>
      </trkpt>
      <trkpt lat="43.33523" lon="6.07977">
        <ele>302.205056</ele>
        <time>2025-07-06T12:28:01.129Z</time>
      </trkpt>
      <trkpt lat="43.33532" lon="6.07983">
        <ele>302.059087</ele>
        <time>2025-07-06T12:28:03.110Z</time>
      </trkpt>
      <trkpt lat="43.33548" lon="6.07992">
        <ele>301.809972</ele>
        <time>2025-07-06T12:28:06.503Z</time>
      </trkpt>
      <trkpt lat="43.33604" lon="6.08036">
        <ele>300.905182</ele>
        <time>2025-07-06T12:28:19.008Z</time>
      </trkpt>
      <trkpt lat="43.33612" lon="6.08044">
        <ele>300.831981</ele>
        <time>2025-07-06T12:28:21.014Z</time>
      </trkpt>
      <trkpt lat="43.33639" lon="6.08049">
        <ele>300.680669</ele>
        <time>2025-07-06T12:28:26.310Z</time>
      </trkpt>
      <trkpt lat="43.33659" lon="6.08052">
        <ele>300.569531</ele>
        <time>2025-07-06T12:28:30.260Z</time>
      </trkpt>
      <trkpt lat="43.33669" lon="6.08059">
        <ele>300.504879</ele>
        <time>2025-07-06T12:28:32.647Z</time>
      </trkpt>
      <trkpt lat="43.33706" lon="6.08117">
        <ele>300.194666</ele>
        <time>2025-07-06T12:28:44.847Z</time>
      </trkpt>
      <trkpt lat="43.33716" lon="6.08128">
        <ele>300.128435</ele>
        <time>2025-07-06T12:28:47.540Z</time>
      </trkpt>
      <trkpt lat="43.33782" lon="6.08208">
        <ele>299.672797</ele>
        <time>2025-07-06T12:29:06.507Z</time>
      </trkpt>
      <trkpt lat="43.33818" lon="6.08256">
        <ele>299.433636</ele>
        <time>2025-07-06T12:29:17.058Z</time>
      </trkpt>
      <trkpt lat="43.33877" lon="6.08325">
        <ele>299.06357</ele>
        <time>2025-07-06T12:29:33.674Z</time>
      </trkpt>
      <trkpt lat="43.33928" lon="6.08407">
        <ele>298.137726</ele>
        <time>2025-07-06T12:29:48.827Z</time>
      </trkpt>
      <trkpt lat="43.3394" lon="6.08421">
        <ele>297.941428</ele>
        <time>2025-07-06T12:29:51.826Z</time>
      </trkpt>
      <trkpt lat="43.33956" lon="6.08432">
        <ele>297.723284</ele>
        <time>2025-07-06T12:29:55.153Z</time>
      </trkpt>
      <trkpt lat="43.3396" lon="6.08426">
        <ele>297.648105</ele>
        <time>2025-07-06T12:29:56.250Z</time>
      </trkpt>
      <trkpt lat="43.33974" lon="6.08417">
        <ele>297.453991</ele>
        <time>2025-07-06T12:29:59.195Z</time>
      </trkpt>
      <trkpt lat="43.34142" lon="6.08334">
        <ele>295.644867</ele>
        <time>2025-07-06T12:30:33.822Z</time>
      </trkpt>
      <trkpt lat="43.34158" lon="6.08326">
        <ele>295.49364</ele>
        <time>2025-07-06T12:30:37.545Z</time>
      </trkpt>
      <trkpt lat="43.3423" lon="6.08291">
        <ele>295.013996</ele>
        <time>2025-07-06T12:30:54.574Z</time>
      </trkpt>
      <trkpt lat="43.34242" lon="6.0829">
        <ele>294.976032</ele>
        <time>2025-07-06T12:30:57.076Z</time>
      </trkpt>
      <trkpt lat="43.34251" lon="6.08294">
        <ele>294.943067</ele>
        <time>2025-07-06T12:30:59.293Z</time>
      </trkpt>
      <trkpt lat="43.3426" lon="6.08302">
        <ele>294.908047</ele>
        <time>2025-07-06T12:31:01.607Z</time>
      </trkpt>
      <trkpt lat="43.34299" lon="6.08422">
        <ele>294.590276</ele>
        <time>2025-07-06T12:31:22.843Z</time>
      </trkpt>
      <trkpt lat="43.34321" lon="6.08466">
        <ele>294.325505</ele>
        <time>2025-07-06T12:31:30.960Z</time>
      </trkpt>
      <trkpt lat="43.34437" lon="6.0866">
        <ele>292.811879</ele>
        <time>2025-07-06T12:32:09.046Z</time>
      </trkpt>
      <trkpt lat="43.34452" lon="6.08701">
        <ele>292.657819</ele>
        <time>2025-07-06T12:32:16.314Z</time>
      </trkpt>
      <trkpt lat="43.34461" lon="6.0876">
        <ele>292.454895</ele>
        <time>2025-07-06T12:32:25.981Z</time>
      </trkpt>
      <trkpt lat="43.34439" lon="6.08773">
        <ele>292.341095</ele>
        <time>2025-07-06T12:32:31.202Z</time>
      </trkpt>
      <trkpt lat="43.34448" lon="6.08776">
        <ele>292.295371</ele>
        <time>2025-07-06T12:32:33.414Z</time>
      </trkpt>
      <trkpt lat="43.34464" lon="6.08798">
        <ele>292.192136</ele>
        <time>2025-07-06T12:32:38.450Z</time>
      </trkpt>
      <trkpt lat="43.34463" lon="6.08809">
        <ele>292.151863</ele>
        <time>2025-07-06T12:32:40.399Z</time>
      </trkpt>
      <trkpt lat="43.34466" lon="6.08848">
        <ele>292.08621</ele>
        <time>2025-07-06T12:32:46.824Z</time>
      </trkpt>
      <trkpt lat="43.34461" lon="6.08887">
        <ele>292.06096</ele>
        <time>2025-07-06T12:32:53.242Z</time>
      </trkpt>
      <trkpt lat="43.34454" lon="6.08926">
        <ele>292.035176</ele>
        <time>2025-07-06T12:33:00.017Z</time>
      </trkpt>
      <trkpt lat="43.34439" lon="6.08977">
        <ele>291.999537</ele>
        <time>2025-07-06T12:33:09.283Z</time>
      </trkpt>
      <trkpt lat="43.34402" lon="6.0906">
        <ele>291.91156</ele>
        <time>2025-07-06T12:33:25.543Z</time>
      </trkpt>
      <trkpt lat="43.34391" lon="6.0912">
        <ele>291.683254</ele>
        <time>2025-07-06T12:33:35.771Z</time>
      </trkpt>
      <trkpt lat="43.34344" lon="6.09226">
        <ele>291.225238</ele>
        <time>2025-07-06T12:33:55.312Z</time>
      </trkpt>
      <trkpt lat="43.34332" lon="6.09246">
        <ele>291.129378</ele>
        <time>2025-07-06T12:33:59.280Z</time>
      </trkpt>
      <trkpt lat="43.34332" lon="6.09301">
        <ele>290.965487</ele>
        <time>2025-07-06T12:34:07.655Z</time>
      </trkpt>
      <trkpt lat="43.34323" lon="6.09338">
        <ele>290.876754</ele>
        <time>2025-07-06T12:34:13.676Z</time>
      </trkpt>
      <trkpt lat="43.3431" lon="6.09376">
        <ele>290.78104</ele>
        <time>2025-07-06T12:34:20.337Z</time>
      </trkpt>
      <trkpt lat="43.3431" lon="6.09387">
        <ele>290.757048</ele>
        <time>2025-07-06T12:34:22.026Z</time>
      </trkpt>
      <trkpt lat="43.34317" lon="6.09409">
        <ele>290.70333</ele>
        <time>2025-07-06T12:34:25.887Z</time>
      </trkpt>
      <trkpt lat="43.34317" lon="6.09419">
        <ele>290.679743</ele>
        <time>2025-07-06T12:34:27.583Z</time>
      </trkpt>
      <trkpt lat="43.34309" lon="6.09453">
        <ele>290.597968</ele>
        <time>2025-07-06T12:34:33.601Z</time>
      </trkpt>
      <trkpt lat="43.34281" lon="6.09545">
        <ele>290.458007</ele>
        <time>2025-07-06T12:34:51.289Z</time>
      </trkpt>
      <trkpt lat="43.34237" lon="6.09641">
        <ele>290.438934</ele>
        <time>2025-07-06T12:35:10.454Z</time>
      </trkpt>
      <trkpt lat="43.34192" lon="6.09679">
        <ele>290.426758</ele>
        <time>2025-07-06T12:35:21.710Z</time>
      </trkpt>
      <trkpt lat="43.34187" lon="6.09688">
        <ele>290.42482</ele>
        <time>2025-07-06T12:35:23.678Z</time>
      </trkpt>
      <trkpt lat="43.34185" lon="6.09705">
        <ele>290.460918</ele>
        <time>2025-07-06T12:35:26.792Z</time>
      </trkpt>
      <trkpt lat="43.34149" lon="6.09785">
        <ele>290.841926</ele>
        <time>2025-07-06T12:35:44.337Z</time>
      </trkpt>
      <trkpt lat="43.34149" lon="6.09794">
        <ele>290.878719</ele>
        <time>2025-07-06T12:35:46.148Z</time>
      </trkpt>
      <trkpt lat="43.34151" lon="6.09806">
        <ele>290.929004</ele>
        <time>2025-07-06T12:35:48.560Z</time>
      </trkpt>
      <trkpt lat="43.34166" lon="6.09819">
        <ele>291.028367</ele>
        <time>2025-07-06T12:35:53.500Z</time>
      </trkpt>
      <trkpt lat="43.34155" lon="6.09878">
        <ele>291.275144</ele>
        <time>2025-07-06T12:36:05.549Z</time>
      </trkpt>
      <trkpt lat="43.34146" lon="6.09944">
        <ele>291.298451</ele>
        <time>2025-07-06T12:36:18.723Z</time>
      </trkpt>
      <trkpt lat="43.34143" lon="6.09973">
        <ele>291.170241</ele>
        <time>2025-07-06T12:36:23.354Z</time>
      </trkpt>
      <trkpt lat="43.34142" lon="6.10034">
        <ele>290.905873</ele>
        <time>2025-07-06T12:36:32.318Z</time>
      </trkpt>
      <trkpt lat="43.3415" lon="6.10123">
        <ele>290.516985</ele>
        <time>2025-07-06T12:36:44.945Z</time>
      </trkpt>
      <trkpt lat="43.34156" lon="6.10189">
        <ele>290.18654</ele>
        <time>2025-07-06T12:36:54.403Z</time>
      </trkpt>
      <trkpt lat="43.34173" lon="6.10289">
        <ele>289.598426</ele>
        <time>2025-07-06T12:37:09.974Z</time>
      </trkpt>
      <trkpt lat="43.34198" lon="6.10389">
        <ele>288.994701</ele>
        <time>2025-07-06T12:37:25.481Z</time>
      </trkpt>
      <trkpt lat="43.34221" lon="6.10457">
        <ele>288.943224</ele>
        <time>2025-07-06T12:37:36.391Z</time>
      </trkpt>
      <trkpt lat="43.34247" lon="6.10538">
        <ele>288.948982</ele>
        <time>2025-07-06T12:37:50.045Z</time>
      </trkpt>
      <trkpt lat="43.34281" lon="6.1062">
        <ele>288.960341</ele>
        <time>2025-07-06T12:38:07.516Z</time>
      </trkpt>
      <trkpt lat="43.34305" lon="6.10695">
        <ele>289.807721</ele>
        <time>2025-07-06T12:38:25.907Z</time>
      </trkpt>
      <trkpt lat="43.34313" lon="6.10708">
        <ele>289.978182</ele>
        <time>2025-07-06T12:38:29.795Z</time>
      </trkpt>
      <trkpt lat="43.34332" lon="6.10776">
        <ele>290.733022</ele>
        <time>2025-07-06T12:38:47.058Z</time>
      </trkpt>
      <trkpt lat="43.34378" lon="6.10905">
        <ele>291.501927</ele>
        <time>2025-07-06T12:39:15.721Z</time>
      </trkpt>
      <trkpt lat="43.34401" lon="6.10961">
        <ele>291.505166</ele>
        <time>2025-07-06T12:39:26.501Z</time>
      </trkpt>
      <trkpt lat="43.34427" lon="6.11035">
        <ele>291.509237</ele>
        <time>2025-07-06T12:39:38.758Z</time>
      </trkpt>
      <trkpt lat="43.34436" lon="6.11094">
        <ele>291.177681</ele>
        <time>2025-07-06T12:39:47.462Z</time>
      </trkpt>
      <trkpt lat="43.34453" lon="6.11147">
        <ele>290.486512</ele>
        <time>2025-07-06T12:39:55.778Z</time>
      </trkpt>
      <trkpt lat="43.34468" lon="6.11222">
        <ele>289.568827</ele>
        <time>2025-07-06T12:40:06.408Z</time>
      </trkpt>
      <trkpt lat="43.34484" lon="6.11216">
        <ele>289.309516</ele>
        <time>2025-07-06T12:40:09.466Z</time>
      </trkpt>
      <trkpt lat="43.34503" lon="6.11273">
        <ele>288.56331</ele>
        <time>2025-07-06T12:40:18.061Z</time>
      </trkpt>
      <trkpt lat="43.34522" lon="6.11309">
        <ele>288.000717</ele>
        <time>2025-07-06T12:40:24.137Z</time>
      </trkpt>
      <trkpt lat="43.34557" lon="6.11397">
        <ele>286.741542</ele>
        <time>2025-07-06T12:40:37.957Z</time>
      </trkpt>
      <trkpt lat="43.3458" lon="6.11639">
        <ele>283.969651</ele>
        <time>2025-07-06T12:41:14.890Z</time>
      </trkpt>
      <trkpt lat="43.34583" lon="6.11647">
        <ele>283.883478</ele>
        <time>2025-07-06T12:41:16.122Z</time>
      </trkpt>
      <trkpt lat="43.34614" lon="6.11676">
        <ele>283.3386</ele>
        <time>2025-07-06T12:41:23.746Z</time>
      </trkpt>
      <trkpt lat="43.3462" lon="6.11705">
        <ele>283.028781</ele>
        <time>2025-07-06T12:41:27.965Z</time>
      </trkpt>
      <trkpt lat="43.34632" lon="6.11829">
        <ele>280.959073</ele>
        <time>2025-07-06T12:41:44.598Z</time>
      </trkpt>
      <trkpt lat="43.34636" lon="6.11891">
        <ele>279.888555</ele>
        <time>2025-07-06T12:41:52.809Z</time>
      </trkpt>
      <trkpt lat="43.34635" lon="6.11924">
        <ele>279.301173</ele>
        <time>2025-07-06T12:41:57.428Z</time>
      </trkpt>
      <trkpt lat="43.34639" lon="6.11954">
        <ele>278.774929</ele>
        <time>2025-07-06T12:42:01.670Z</time>
      </trkpt>
      <trkpt lat="43.3465" lon="6.12027">
        <ele>278.099115</ele>
        <time>2025-07-06T12:42:12.440Z</time>
      </trkpt>
      <trkpt lat="43.34681" lon="6.12104">
        <ele>277.409511</ele>
        <time>2025-07-06T12:42:26.023Z</time>
      </trkpt>
      <trkpt lat="43.34693" lon="6.1212">
        <ele>277.228024</ele>
        <time>2025-07-06T12:42:29.681Z</time>
      </trkpt>
      <trkpt lat="43.34646" lon="6.12182">
        <ele>276.578592</ele>
        <time>2025-07-06T12:42:43.514Z</time>
      </trkpt>
      <trkpt lat="43.34632" lon="6.12214">
        <ele>276.393345</ele>
        <time>2025-07-06T12:42:49.206Z</time>
      </trkpt>
      <trkpt lat="43.34613" lon="6.12263">
        <ele>276.115936</ele>
        <time>2025-07-06T12:42:57.599Z</time>
      </trkpt>
      <trkpt lat="43.34609" lon="6.12328">
        <ele>275.793123</ele>
        <time>2025-07-06T12:43:07.606Z</time>
      </trkpt>
      <trkpt lat="43.34607" lon="6.12407">
        <ele>275.43166</ele>
        <time>2025-07-06T12:43:20.226Z</time>
      </trkpt>
      <trkpt lat="43.34599" lon="6.12551">
        <ele>275.339711</ele>
        <time>2025-07-06T12:43:44.445Z</time>
      </trkpt>
      <trkpt lat="43.3459" lon="6.12583">
        <ele>275.317743</ele>
        <time>2025-07-06T12:43:50.572Z</time>
      </trkpt>
      <trkpt lat="43.34562" lon="6.12642">
        <ele>275.3143</ele>
        <time>2025-07-06T12:44:02.581Z</time>
      </trkpt>
      <trkpt lat="43.34521" lon="6.12711">
        <ele>275.643337</ele>
        <time>2025-07-06T12:44:16.994Z</time>
      </trkpt>
      <trkpt lat="43.34475" lon="6.1276">
        <ele>275.937086</ele>
        <time>2025-07-06T12:44:31.045Z</time>
      </trkpt>
      <trkpt lat="43.34453" lon="6.12777">
        <ele>276.066741</ele>
        <time>2025-07-06T12:44:39.116Z</time>
      </trkpt>
      <trkpt lat="43.34465" lon="6.12797">
        <ele>276.162642</ele>
        <time>2025-07-06T12:44:45.885Z</time>
      </trkpt>
      <trkpt lat="43.3444" lon="6.12818">
        <ele>276.380351</ele>
        <time>2025-07-06T12:44:55.003Z</time>
      </trkpt>
      <trkpt lat="43.3444" lon="6.12846">
        <ele>276.544605</ele>
        <time>2025-07-06T12:45:01.083Z</time>
      </trkpt>
      <trkpt lat="43.34435" lon="6.1286">
        <ele>276.636205</ele>
        <time>2025-07-06T12:45:04.244Z</time>
      </trkpt>
      <trkpt lat="43.3442" lon="6.12879">
        <ele>276.80369</ele>
        <time>2025-07-06T12:45:10.253Z</time>
      </trkpt>
      <trkpt lat="43.3441" lon="6.12888">
        <ele>276.892131</ele>
        <time>2025-07-06T12:45:13.524Z</time>
      </trkpt>
      <trkpt lat="43.34404" lon="6.1289">
        <ele>276.948558</ele>
        <time>2025-07-06T12:45:15.671Z</time>
      </trkpt>
      <trkpt lat="43.34347" lon="6.12884">
        <ele>277.404034</ele>
        <time>2025-07-06T12:45:31.000Z</time>
      </trkpt>
      <trkpt lat="43.34338" lon="6.12889">
        <ele>277.478417</ele>
        <time>2025-07-06T12:45:33.297Z</time>
      </trkpt>
      <trkpt lat="43.34296" lon="6.12932">
        <ele>277.510474</ele>
        <time>2025-07-06T12:45:44.662Z</time>
      </trkpt>
      <trkpt lat="43.34277" lon="6.12972">
        <ele>277.380786</ele>
        <time>2025-07-06T12:45:51.845Z</time>
      </trkpt>
      <trkpt lat="43.34261" lon="6.13014">
        <ele>277.251172</ele>
        <time>2025-07-06T12:45:59.765Z</time>
      </trkpt>
      <trkpt lat="43.34253" lon="6.13062">
        <ele>277.11731</ele>
        <time>2025-07-06T12:46:08.561Z</time>
      </trkpt>
      <trkpt lat="43.34245" lon="6.1309">
        <ele>277.03471</ele>
        <time>2025-07-06T12:46:13.845Z</time>
      </trkpt>
      <trkpt lat="43.34216" lon="6.13179">
        <ele>276.077017</ele>
        <time>2025-07-06T12:46:28.464Z</time>
      </trkpt>
      <trkpt lat="43.34199" lon="6.13218">
        <ele>275.484979</ele>
        <time>2025-07-06T12:46:34.894Z</time>
      </trkpt>
      <trkpt lat="43.34174" lon="6.13246">
        <ele>274.928958</ele>
        <time>2025-07-06T12:46:40.889Z</time>
      </trkpt>
      <trkpt lat="43.34149" lon="6.13299">
        <ele>274.119645</ele>
        <time>2025-07-06T12:46:49.527Z</time>
      </trkpt>
      <trkpt lat="43.34099" lon="6.13468">
        <ele>272.411975</ele>
        <time>2025-07-06T12:47:15.439Z</time>
      </trkpt>
      <trkpt lat="43.34059" lon="6.13621">
        <ele>271.440175</ele>
        <time>2025-07-06T12:47:42.124Z</time>
      </trkpt>
      <trkpt lat="43.34048" lon="6.13655">
        <ele>271.348691</ele>
        <time>2025-07-06T12:47:52.397Z</time>
      </trkpt>
      <trkpt lat="43.34023" lon="6.13756">
        <ele>271.080398</ele>
        <time>2025-07-06T12:48:21.309Z</time>
      </trkpt>
      <trkpt lat="43.33979" lon="6.14329">
        <ele>265.687458</ele>
        <time>2025-07-06T12:50:41.795Z</time>
      </trkpt>
      <trkpt lat="43.33972" lon="6.14456">
        <ele>264.733282</ele>
        <time>2025-07-06T12:51:13.788Z</time>
      </trkpt>
      <trkpt lat="43.33975" lon="6.14521">
        <ele>264.240959</ele>
        <time>2025-07-06T12:51:30.598Z</time>
      </trkpt>
      <trkpt lat="43.33973" lon="6.14532">
        <ele>264.175183</ele>
        <time>2025-07-06T12:51:33.337Z</time>
      </trkpt>
      <trkpt lat="43.33971" lon="6.14547">
        <ele>264.086446</ele>
        <time>2025-07-06T12:51:37.309Z</time>
      </trkpt>
      <trkpt lat="43.33963" lon="6.1455">
        <ele>264.016796</ele>
        <time>2025-07-06T12:51:40.404Z</time>
      </trkpt>
      <trkpt lat="43.33943" lon="6.14496">
        <ele>263.673224</ele>
        <time>2025-07-06T12:51:49.286Z</time>
      </trkpt>
      <trkpt lat="43.33932" lon="6.14512">
        <ele>263.545759</ele>
        <time>2025-07-06T12:51:54.948Z</time>
      </trkpt>
      <trkpt lat="43.33933" lon="6.14593">
        <ele>263.084813</ele>
        <time>2025-07-06T12:52:07.436Z</time>
      </trkpt>
      <trkpt lat="43.33911" lon="6.14745">
        <ele>262.365357</ele>
        <time>2025-07-06T12:52:31.343Z</time>
      </trkpt>
      <trkpt lat="43.33897" lon="6.14882">
        <ele>261.783235</ele>
        <time>2025-07-06T12:52:53.526Z</time>
      </trkpt>
      <trkpt lat="43.33893" lon="6.15026">
        <ele>261.349571</ele>
        <time>2025-07-06T12:53:16.548Z</time>
      </trkpt>
      <trkpt lat="43.33896" lon="6.15104">
        <ele>261.115893</ele>
        <time>2025-07-06T12:53:28.744Z</time>
      </trkpt>
      <trkpt lat="43.33904" lon="6.15195">
        <ele>260.995769</ele>
        <time>2025-07-06T12:53:44.128Z</time>
      </trkpt>
      <trkpt lat="43.33888" lon="6.15196">
        <ele>260.982449</ele>
        <time>2025-07-06T12:53:50.159Z</time>
      </trkpt>
      <trkpt lat="43.33847" lon="6.15186">
        <ele>260.948037</ele>
        <time>2025-07-06T12:54:05.747Z</time>
      </trkpt>
      <trkpt lat="43.33828" lon="6.15165">
        <ele>260.927822</ele>
        <time>2025-07-06T12:54:15.044Z</time>
      </trkpt>
      <trkpt lat="43.33758" lon="6.15288">
        <ele>260.729347</ele>
        <time>2025-07-06T12:54:56.584Z</time>
      </trkpt>
      <trkpt lat="43.33747" lon="6.15326">
        <ele>260.65544</ele>
        <time>2025-07-06T12:55:06.884Z</time>
      </trkpt>
      <trkpt lat="43.3373" lon="6.15367">
        <ele>260.57119</ele>
        <time>2025-07-06T12:55:18.820Z</time>
      </trkpt>
      <trkpt lat="43.33715" lon="6.15421">
        <ele>260.468602</ele>
        <time>2025-07-06T12:55:33.835Z</time>
      </trkpt>
      <trkpt lat="43.33685" lon="6.15498">
        <ele>261.585527</ele>
        <time>2025-07-06T12:56:00.151Z</time>
      </trkpt>
      <trkpt lat="43.3366" lon="6.15525">
        <ele>262.271985</ele>
        <time>2025-07-06T12:56:15.476Z</time>
      </trkpt>
      <trkpt lat="43.33648" lon="6.1555">
        <ele>262.731974</ele>
        <time>2025-07-06T12:56:26.741Z</time>
      </trkpt>
      <trkpt lat="43.3364" lon="6.15559">
        <ele>262.96518</ele>
        <time>2025-07-06T12:56:32.704Z</time>
      </trkpt>
      <trkpt lat="43.33629" lon="6.1556">
        <ele>263.203194</ele>
        <time>2025-07-06T12:56:38.910Z</time>
      </trkpt>
      <trkpt lat="43.33575" lon="6.15538">
        <ele>264.292178</ele>
        <time>2025-07-06T12:57:09.874Z</time>
      </trkpt>
      <trkpt lat="43.33552" lon="6.15522">
        <ele>264.151584</ele>
        <time>2025-07-06T12:57:22.786Z</time>
      </trkpt>
      <trkpt lat="43.33545" lon="6.15521">
        <ele>264.116224</ele>
        <time>2025-07-06T12:57:25.804Z</time>
      </trkpt>
      <trkpt lat="43.3354" lon="6.15526">
        <ele>264.081514</ele>
        <time>2025-07-06T12:57:28.682Z</time>
      </trkpt>
      <trkpt lat="43.33532" lon="6.15541">
        <ele>264.012202</ele>
        <time>2025-07-06T12:57:34.175Z</time>
      </trkpt>
      <trkpt lat="43.33527" lon="6.1557">
        <ele>263.896989</ele>
        <time>2025-07-06T12:57:42.502Z</time>
      </trkpt>
      <trkpt lat="43.33517" lon="6.15599">
        <ele>263.773354</ele>
        <time>2025-07-06T12:57:50.774Z</time>
      </trkpt>
      <trkpt lat="43.33493" lon="6.15664">
        <ele>263.490151</ele>
        <time>2025-07-06T12:58:07.915Z</time>
      </trkpt>
      <trkpt lat="43.33544" lon="6.15731">
        <ele>262.056673</ele>
        <time>2025-07-06T12:58:23.940Z</time>
      </trkpt>
      <trkpt lat="43.336" lon="6.15793">
        <ele>260.035177</ele>
        <time>2025-07-06T12:58:40.740Z</time>
      </trkpt>
      <trkpt lat="43.33609" lon="6.15807">
        <ele>259.652179</ele>
        <time>2025-07-06T12:58:44.061Z</time>
      </trkpt>
      <trkpt lat="43.33593" lon="6.15844">
        <ele>258.763574</ele>
        <time>2025-07-06T12:58:51.901Z</time>
      </trkpt>
      <trkpt lat="43.33589" lon="6.15858">
        <ele>258.460175</ele>
        <time>2025-07-06T12:58:54.636Z</time>
      </trkpt>
      <trkpt lat="43.33589" lon="6.15879">
        <ele>258.196766</ele>
        <time>2025-07-06T12:58:58.470Z</time>
      </trkpt>
      <trkpt lat="43.33603" lon="6.15938">
        <ele>257.785665</ele>
        <time>2025-07-06T12:59:10.478Z</time>
      </trkpt>
      <trkpt lat="43.33621" lon="6.15991">
        <ele>257.402042</ele>
        <time>2025-07-06T12:59:21.927Z</time>
      </trkpt>
      <trkpt lat="43.33632" lon="6.16167">
        <ele>256.888427</ele>
        <time>2025-07-06T12:59:57.711Z</time>
      </trkpt>
      <trkpt lat="43.33637" lon="6.16236">
        <ele>257.160842</ele>
        <time>2025-07-06T13:00:13.106Z</time>
      </trkpt>
      <trkpt lat="43.33669" lon="6.1643">
        <ele>258.325036</ele>
        <time>2025-07-06T13:01:05.029Z</time>
      </trkpt>
      <trkpt lat="43.33634" lon="6.16436">
        <ele>258.734191</ele>
        <time>2025-07-06T13:01:17.338Z</time>
      </trkpt>
      <trkpt lat="43.33626" lon="6.16445">
        <ele>258.857041</ele>
        <time>2025-07-06T13:01:21.159Z</time>
      </trkpt>
      <trkpt lat="43.33623" lon="6.16437">
        <ele>258.932868</ele>
        <time>2025-07-06T13:01:22.843Z</time>
      </trkpt>
      <trkpt lat="43.33612" lon="6.16431">
        <ele>259.066122</ele>
        <time>2025-07-06T13:01:26.159Z</time>
      </trkpt>
      <trkpt lat="43.33586" lon="6.16434">
        <ele>259.371905</ele>
        <time>2025-07-06T13:01:33.571Z</time>
      </trkpt>
      <trkpt lat="43.33558" lon="6.16438">
        <ele>259.70954</ele>
        <time>2025-07-06T13:01:41.646Z</time>
      </trkpt>
      <trkpt lat="43.33522" lon="6.16448">
        <ele>260.232078</ele>
        <time>2025-07-06T13:01:51.784Z</time>
      </trkpt>
      <trkpt lat="43.33497" lon="6.16446">
        <ele>260.591591</ele>
        <time>2025-07-06T13:01:58.225Z</time>
      </trkpt>
      <trkpt lat="43.33475" lon="6.16448">
        <ele>260.903779</ele>
        <time>2025-07-06T13:02:04.361Z</time>
      </trkpt>
      <trkpt lat="43.33449" lon="6.16465">
        <ele>261.309271</ele>
        <time>2025-07-06T13:02:12.821Z</time>
      </trkpt>
      <trkpt lat="43.33379" lon="6.16521">
        <ele>262.617166</ele>
        <time>2025-07-06T13:02:39.602Z</time>
      </trkpt>
      <trkpt lat="43.33313" lon="6.16541">
        <ele>264.558028</ele>
        <time>2025-07-06T13:03:04.261Z</time>
      </trkpt>
      <trkpt lat="43.33228" lon="6.16587">
        <ele>267.166472</ele>
        <time>2025-07-06T13:03:39.399Z</time>
      </trkpt>
      <trkpt lat="43.33154" lon="6.16627">
        <ele>270.501717</ele>
        <time>2025-07-06T13:04:11.790Z</time>
      </trkpt>
      <trkpt lat="43.33103" lon="6.16644">
        <ele>272.819003</ele>
        <time>2025-07-06T13:04:35.885Z</time>
      </trkpt>
      <trkpt lat="43.33072" lon="6.16649">
        <ele>274.221519</ele>
        <time>2025-07-06T13:04:51.201Z</time>
      </trkpt>
      <trkpt lat="43.33025" lon="6.16655">
        <ele>276.590737</ele>
        <time>2025-07-06T13:05:14.964Z</time>
      </trkpt>
      <trkpt lat="43.33003" lon="6.16657">
        <ele>277.929555</ele>
        <time>2025-07-06T13:05:26.992Z</time>
      </trkpt>
      <trkpt lat="43.32957" lon="6.16657">
        <ele>280.654744</ele>
        <time>2025-07-06T13:05:51.668Z</time>
      </trkpt>
      <trkpt lat="43.32916" lon="6.16649">
        <ele>283.090466</ele>
        <time>2025-07-06T13:06:13.693Z</time>
      </trkpt>
      <trkpt lat="43.32874" lon="6.16647">
        <ele>285.592494</ele>
        <time>2025-07-06T13:06:36.227Z</time>
      </trkpt>
      <trkpt lat="43.32712" lon="6.16661">
        <ele>295.831767</ele>
        <time>2025-07-06T13:08:03.191Z</time>
      </trkpt>
      <trkpt lat="43.3269" lon="6.16655">
        <ele>297.288288</ele>
        <time>2025-07-06T13:08:16.524Z</time>
      </trkpt>
      <trkpt lat="43.32647" lon="6.16632">
        <ele>301.043511</ele>
        <time>2025-07-06T13:08:44.106Z</time>
      </trkpt>
      <trkpt lat="43.32547" lon="6.1657">
        <ele>310.180051</ele>
        <time>2025-07-06T13:09:55.047Z</time>
      </trkpt>
      <trkpt lat="43.32492" lon="6.16546">
        <ele>315.722725</ele>
        <time>2025-07-06T13:10:44.877Z</time>
      </trkpt>
      <trkpt lat="43.32471" lon="6.1654">
        <ele>318.088061</ele>
        <time>2025-07-06T13:11:04.569Z</time>
      </trkpt>
      <trkpt lat="43.32423" lon="6.16491">
        <ele>324.512776</ele>
        <time>2025-07-06T13:12:00.164Z</time>
      </trkpt>
      <trkpt lat="43.32415" lon="6.16462">
        <ele>326.921349</ele>
        <time>2025-07-06T13:12:21.755Z</time>
      </trkpt>
      <trkpt lat="43.32375" lon="6.16448">
        <ele>331.369326</ele>
        <time>2025-07-06T13:13:01.610Z</time>
      </trkpt>
      <trkpt lat="43.32343" lon="6.16443">
        <ele>334.238146</ele>
        <time>2025-07-06T13:13:31.140Z</time>
      </trkpt>
      <trkpt lat="43.32316" lon="6.16426">
        <ele>336.789737</ele>
        <time>2025-07-06T13:13:56.300Z</time>
      </trkpt>
      <trkpt lat="43.32293" lon="6.16436">
        <ele>338.870713</ele>
        <time>2025-07-06T13:14:15.374Z</time>
      </trkpt>
      <trkpt lat="43.32268" lon="6.16438">
        <ele>341.022027</ele>
        <time>2025-07-06T13:14:34.039Z</time>
      </trkpt>
      <trkpt lat="43.32261" lon="6.16428">
        <ele>341.932772</ele>
        <time>2025-07-06T13:14:41.831Z</time>
      </trkpt>
      <trkpt lat="43.32264" lon="6.16417">
        <ele>342.66721</ele>
        <time>2025-07-06T13:14:48.044Z</time>
      </trkpt>
      <trkpt lat="43.32293" lon="6.16388">
        <ele>345.805577</ele>
        <time>2025-07-06T13:15:14.478Z</time>
      </trkpt>
      <trkpt lat="43.32298" lon="6.16371">
        <ele>346.913264</ele>
        <time>2025-07-06T13:15:23.632Z</time>
      </trkpt>
      <trkpt lat="43.32299" lon="6.1635">
        <ele>348.25492</ele>
        <time>2025-07-06T13:15:34.726Z</time>
      </trkpt>
      <trkpt lat="43.3231" lon="6.16342">
        <ele>349.367104</ele>
        <time>2025-07-06T13:15:44.031Z</time>
      </trkpt>
      <trkpt lat="43.32334" lon="6.1633">
        <ele>351.564066</ele>
        <time>2025-07-06T13:16:03.292Z</time>
      </trkpt>
      <trkpt lat="43.32342" lon="6.16311">
        <ele>353.032115</ele>
        <time>2025-07-06T13:16:16.706Z</time>
      </trkpt>
      <trkpt lat="43.32343" lon="6.16256">
        <ele>356.573106</ele>
        <time>2025-07-06T13:16:50.310Z</time>
      </trkpt>
      <trkpt lat="43.32377" lon="6.16151">
        <ele>363.960596</ele>
        <time>2025-07-06T13:18:02.869Z</time>
      </trkpt>
      <trkpt lat="43.32414" lon="6.16082">
        <ele>369.274335</ele>
        <time>2025-07-06T13:18:52.782Z</time>
      </trkpt>
      <trkpt lat="43.32421" lon="6.16061">
        <ele>370.725319</ele>
        <time>2025-07-06T13:19:05.808Z</time>
      </trkpt>
      <trkpt lat="43.32423" lon="6.16054">
        <ele>371.187185</ele>
        <time>2025-07-06T13:19:09.878Z</time>
      </trkpt>
      <trkpt lat="43.32402" lon="6.1597">
        <ele>376.75963</ele>
        <time>2025-07-06T13:19:58.099Z</time>
      </trkpt>
      <trkpt lat="43.3238" lon="6.15786">
        <ele>389.952268</ele>
        <time>2025-07-06T13:21:52.763Z</time>
      </trkpt>
      <trkpt lat="43.32379" lon="6.15756">
        <ele>392.130276</ele>
        <time>2025-07-06T13:22:13.690Z</time>
      </trkpt>
      <trkpt lat="43.3237" lon="6.15761">
        <ele>393.050734</ele>
        <time>2025-07-06T13:22:22.442Z</time>
      </trkpt>
      <trkpt lat="43.32352" lon="6.15866">
        <ele>400.33619</ele>
        <time>2025-07-06T13:23:36.190Z</time>
      </trkpt>
      <trkpt lat="43.32351" lon="6.15869">
        <ele>400.49836</ele>
        <time>2025-07-06T13:23:37.874Z</time>
      </trkpt>
      <trkpt lat="43.3232" lon="6.15978">
        <ele>407.865018</ele>
        <time>2025-07-06T13:24:48.153Z</time>
      </trkpt>
      <trkpt lat="43.32286" lon="6.16029">
        <ele>412.175604</ele>
        <time>2025-07-06T13:25:23.420Z</time>
      </trkpt>
      <trkpt lat="43.32193" lon="6.1612">
        <ele>417.126775</ele>
        <time>2025-07-06T13:26:29.878Z</time>
      </trkpt>
      <trkpt lat="43.32127" lon="6.16177">
        <ele>420.949225</ele>
        <time>2025-07-06T13:27:09.314Z</time>
      </trkpt>
      <trkpt lat="43.32112" lon="6.16193">
        <ele>422.394053</ele>
        <time>2025-07-06T13:27:21.386Z</time>
      </trkpt>
      <trkpt lat="43.32097" lon="6.16209">
        <ele>423.863774</ele>
        <time>2025-07-06T13:27:34.376Z</time>
      </trkpt>
      <trkpt lat="43.32085" lon="6.1621">
        <ele>424.762773</ele>
        <time>2025-07-06T13:27:42.882Z</time>
      </trkpt>
      <trkpt lat="43.32078" lon="6.1621">
        <ele>425.273143</ele>
        <time>2025-07-06T13:27:47.783Z</time>
      </trkpt>
      <trkpt lat="43.32057" lon="6.1618">
        <ele>427.584383</ele>
        <time>2025-07-06T13:28:11.210Z</time>
      </trkpt>
      <trkpt lat="43.3204" lon="6.16125">
        <ele>430.857007</ele>
        <time>2025-07-06T13:28:47.192Z</time>
      </trkpt>
      <trkpt lat="43.32019" lon="6.16082">
        <ele>433.78595</ele>
        <time>2025-07-06T13:29:25.052Z</time>
      </trkpt>
      <trkpt lat="43.3194" lon="6.15962">
        <ele>442.640701</ele>
        <time>2025-07-06T13:30:59.958Z</time>
      </trkpt>
      <trkpt lat="43.31888" lon="6.15906">
        <ele>447.390259</ele>
        <time>2025-07-06T13:31:39.955Z</time>
      </trkpt>
      <trkpt lat="43.31856" lon="6.15879">
        <ele>448.85864</ele>
        <time>2025-07-06T13:32:01.528Z</time>
      </trkpt>
      <trkpt lat="43.31836" lon="6.15855">
        <ele>449.874187</ele>
        <time>2025-07-06T13:32:15.849Z</time>
      </trkpt>
      <trkpt lat="43.31827" lon="6.15835">
        <ele>450.550342</ele>
        <time>2025-07-06T13:32:25.391Z</time>
      </trkpt>
      <trkpt lat="43.31817" lon="6.15804">
        <ele>451.502048</ele>
        <time>2025-07-06T13:32:38.888Z</time>
      </trkpt>
      <trkpt lat="43.31795" lon="6.15737">
        <ele>453.570867</ele>
        <time>2025-07-06T13:33:08.513Z</time>
      </trkpt>
      <trkpt lat="43.31795" lon="6.15704">
        <ele>454.393322</ele>
        <time>2025-07-06T13:33:21.781Z</time>
      </trkpt>
      <trkpt lat="43.31803" lon="6.1563">
        <ele>455.904886</ele>
        <time>2025-07-06T13:33:52.219Z</time>
      </trkpt>
      <trkpt lat="43.31797" lon="6.15574">
        <ele>457.028348</ele>
        <time>2025-07-06T13:34:14.512Z</time>
      </trkpt>
      <trkpt lat="43.31739" lon="6.15312">
        <ele>458.926195</ele>
        <time>2025-07-06T13:35:43.950Z</time>
      </trkpt>
      <trkpt lat="43.31763" lon="6.15211">
        <ele>458.288988</ele>
        <time>2025-07-06T13:36:07.559Z</time>
      </trkpt>
      <trkpt lat="43.31791" lon="6.15156">
        <ele>457.009542</ele>
        <time>2025-07-06T13:36:21.783Z</time>
      </trkpt>
      <trkpt lat="43.31791" lon="6.1514">
        <ele>456.697143</ele>
        <time>2025-07-06T13:36:25.296Z</time>
      </trkpt>
      <trkpt lat="43.31793" lon="6.15071">
        <ele>455.381222</ele>
        <time>2025-07-06T13:36:40.779Z</time>
      </trkpt>
      <trkpt lat="43.31786" lon="6.15045">
        <ele>454.858656</ele>
        <time>2025-07-06T13:36:47.390Z</time>
      </trkpt>
      <trkpt lat="43.31769" lon="6.14995">
        <ele>454.2542</ele>
        <time>2025-07-06T13:37:01.784Z</time>
      </trkpt>
      <trkpt lat="43.31751" lon="6.14892">
        <ele>455.201563</ele>
        <time>2025-07-06T13:37:32.271Z</time>
      </trkpt>
      <trkpt lat="43.31748" lon="6.14823">
        <ele>455.810287</ele>
        <time>2025-07-06T13:37:54.764Z</time>
      </trkpt>
      <trkpt lat="43.31738" lon="6.14792">
        <ele>456.115433</ele>
        <time>2025-07-06T13:38:07.075Z</time>
      </trkpt>
      <trkpt lat="43.31711" lon="6.14753">
        <ele>456.926155</ele>
        <time>2025-07-06T13:38:27.824Z</time>
      </trkpt>
      <trkpt lat="43.31697" lon="6.1467">
        <ele>458.588295</ele>
        <time>2025-07-06T13:39:03.668Z</time>
      </trkpt>
      <trkpt lat="43.31668" lon="6.14587">
        <ele>460.385283</ele>
        <time>2025-07-06T13:39:37.851Z</time>
      </trkpt>
      <trkpt lat="43.31653" lon="6.14568">
        <ele>460.93848</ele>
        <time>2025-07-06T13:39:46.659Z</time>
      </trkpt>
      <trkpt lat="43.31635" lon="6.14563">
        <ele>461.249301</ele>
        <time>2025-07-06T13:39:53.768Z</time>
      </trkpt>
      <trkpt lat="43.31611" lon="6.14568">
        <ele>461.540185</ele>
        <time>2025-07-06T13:40:03.383Z</time>
      </trkpt>
      <trkpt lat="43.31583" lon="6.14568">
        <ele>461.878367</ele>
        <time>2025-07-06T13:40:14.207Z</time>
      </trkpt>
      <trkpt lat="43.31564" lon="6.14552">
        <ele>462.139818</ele>
        <time>2025-07-06T13:40:22.389Z</time>
      </trkpt>
      <trkpt lat="43.31548" lon="6.14525">
        <ele>462.439086</ele>
        <time>2025-07-06T13:40:31.923Z</time>
      </trkpt>
      <trkpt lat="43.31539" lon="6.14496">
        <ele>462.714771</ele>
        <time>2025-07-06T13:40:41.490Z</time>
      </trkpt>
      <trkpt lat="43.31526" lon="6.144">
        <ele>463.931861</ele>
        <time>2025-07-06T13:41:16.621Z</time>
      </trkpt>
      <trkpt lat="43.31513" lon="6.14359">
        <ele>464.790841</ele>
        <time>2025-07-06T13:41:34.399Z</time>
      </trkpt>
      <trkpt lat="43.31487" lon="6.14314">
        <ele>465.90485</ele>
        <time>2025-07-06T13:41:56.807Z</time>
      </trkpt>
      <trkpt lat="43.31384" lon="6.14198">
        <ele>469.914901</ele>
        <time>2025-07-06T13:43:01.144Z</time>
      </trkpt>
      <trkpt lat="43.3136" lon="6.14157">
        <ele>471.254887</ele>
        <time>2025-07-06T13:43:21.452Z</time>
      </trkpt>
      <trkpt lat="43.31308" lon="6.14046">
        <ele>474.708992</ele>
        <time>2025-07-06T13:44:18.558Z</time>
      </trkpt>
      <trkpt lat="43.31292" lon="6.13994">
        <ele>476.459438</ele>
        <time>2025-07-06T13:44:43.233Z</time>
      </trkpt>
      <trkpt lat="43.31258" lon="6.13848">
        <ele>481.248984</ele>
        <time>2025-07-06T13:45:48.770Z</time>
      </trkpt>
      <trkpt lat="43.31258" lon="6.13836">
        <ele>481.624125</ele>
        <time>2025-07-06T13:45:53.695Z</time>
      </trkpt>
      <trkpt lat="43.31255" lon="6.13767">
        <ele>483.628047</ele>
        <time>2025-07-06T13:46:21.645Z</time>
      </trkpt>
      <trkpt lat="43.31263" lon="6.13741">
        <ele>484.425197</ele>
        <time>2025-07-06T13:46:33.009Z</time>
      </trkpt>
      <trkpt lat="43.31288" lon="6.137">
        <ele>485.913918</ele>
        <time>2025-07-06T13:46:54.469Z</time>
      </trkpt>
      <trkpt lat="43.31337" lon="6.13657">
        <ele>488.168074</ele>
        <time>2025-07-06T13:47:27.128Z</time>
      </trkpt>
      <trkpt lat="43.31374" lon="6.13634">
        <ele>489.867547</ele>
        <time>2025-07-06T13:47:49.869Z</time>
      </trkpt>
      <trkpt lat="43.31484" lon="6.1358">
        <ele>495.3471</ele>
        <time>2025-07-06T13:49:01.345Z</time>
      </trkpt>
      <trkpt lat="43.31534" lon="6.13541">
        <ele>497.851627</ele>
        <time>2025-07-06T13:49:37.051Z</time>
      </trkpt>
      <trkpt lat="43.31561" lon="6.13505">
        <ele>499.118296</ele>
        <time>2025-07-06T13:50:00.395Z</time>
      </trkpt>
      <trkpt lat="43.31585" lon="6.13456">
        <ele>500.586255</ele>
        <time>2025-07-06T13:50:25.168Z</time>
      </trkpt>
      <trkpt lat="43.31614" lon="6.13416">
        <ele>501.94273</ele>
        <time>2025-07-06T13:50:45.659Z</time>
      </trkpt>
      <trkpt lat="43.31616" lon="6.13395">
        <ele>502.468941</ele>
        <time>2025-07-06T13:50:53.224Z</time>
      </trkpt>
      <trkpt lat="43.31613" lon="6.1339">
        <ele>502.615507</ele>
        <time>2025-07-06T13:50:55.323Z</time>
      </trkpt>
      <trkpt lat="43.31601" lon="6.13374">
        <ele>503.168364</ele>
        <time>2025-07-06T13:51:03.063Z</time>
      </trkpt>
      <trkpt lat="43.31564" lon="6.13355">
        <ele>504.063719</ele>
        <time>2025-07-06T13:51:20.859Z</time>
      </trkpt>
      <trkpt lat="43.31548" lon="6.13338">
        <ele>504.443216</ele>
        <time>2025-07-06T13:51:29.347Z</time>
      </trkpt>
      <trkpt lat="43.31484" lon="6.13205">
        <ele>506.595203</ele>
        <time>2025-07-06T13:52:20.701Z</time>
      </trkpt>
      <trkpt lat="43.31477" lon="6.13153">
        <ele>507.61486</ele>
        <time>2025-07-06T13:52:41.406Z</time>
      </trkpt>
      <trkpt lat="43.31487" lon="6.13104">
        <ele>508.774656</ele>
        <time>2025-07-06T13:53:02.434Z</time>
      </trkpt>
      <trkpt lat="43.31506" lon="6.13059">
        <ele>509.958677</ele>
        <time>2025-07-06T13:53:24.121Z</time>
      </trkpt>
      <trkpt lat="43.31531" lon="6.1302">
        <ele>511.125542</ele>
        <time>2025-07-06T13:53:44.536Z</time>
      </trkpt>
      <trkpt lat="43.31541" lon="6.12968">
        <ele>512.33953</ele>
        <time>2025-07-06T13:54:04.451Z</time>
      </trkpt>
      <trkpt lat="43.31517" lon="6.12786">
        <ele>515.254583</ele>
        <time>2025-07-06T13:55:04.893Z</time>
      </trkpt>
      <trkpt lat="43.31502" lon="6.12739">
        <ele>516.052574</ele>
        <time>2025-07-06T13:55:23.088Z</time>
      </trkpt>
      <trkpt lat="43.31496" lon="6.12687">
        <ele>517.342468</ele>
        <time>2025-07-06T13:55:43.119Z</time>
      </trkpt>
      <trkpt lat="43.31504" lon="6.12634">
        <ele>518.907583</ele>
        <time>2025-07-06T13:56:06.016Z</time>
      </trkpt>
      <trkpt lat="43.31525" lon="6.12561">
        <ele>521.159096</ele>
        <time>2025-07-06T13:56:41.375Z</time>
      </trkpt>
      <trkpt lat="43.31588" lon="6.12419">
        <ele>524.178002</ele>
        <time>2025-07-06T13:57:49.574Z</time>
      </trkpt>
      <trkpt lat="43.31593" lon="6.12393">
        <ele>524.418426</ele>
        <time>2025-07-06T13:57:58.357Z</time>
      </trkpt>
      <trkpt lat="43.31538" lon="6.12252">
        <ele>525.390439</ele>
        <time>2025-07-06T13:58:39.899Z</time>
      </trkpt>
      <trkpt lat="43.31534" lon="6.12198">
        <ele>524.961565</ele>
        <time>2025-07-06T13:58:52.663Z</time>
      </trkpt>
      <trkpt lat="43.31557" lon="6.12067">
        <ele>523.890982</ele>
        <time>2025-07-06T13:59:25.558Z</time>
      </trkpt>
      <trkpt lat="43.3157" lon="6.11902">
        <ele>524.147625</ele>
        <time>2025-07-06T14:00:11.051Z</time>
      </trkpt>
      <trkpt lat="43.31602" lon="6.11771">
        <ele>524.450832</ele>
        <time>2025-07-06T14:00:54.919Z</time>
      </trkpt>
      <trkpt lat="43.31602" lon="6.11737">
        <ele>524.331675</ele>
        <time>2025-07-06T14:01:05.761Z</time>
      </trkpt>
      <trkpt lat="43.31601" lon="6.11608">
        <ele>523.884226</ele>
        <time>2025-07-06T14:01:39.493Z</time>
      </trkpt>
      <trkpt lat="43.31608" lon="6.11529">
        <ele>523.011976</ele>
        <time>2025-07-06T14:01:57.779Z</time>
      </trkpt>
      <trkpt lat="43.31604" lon="6.11487">
        <ele>521.788293</ele>
        <time>2025-07-06T14:02:07.623Z</time>
      </trkpt>
      <trkpt lat="43.31602" lon="6.11444">
        <ele>520.545093</ele>
        <time>2025-07-06T14:02:17.711Z</time>
      </trkpt>
      <trkpt lat="43.3161" lon="6.11421">
        <ele>519.813841</ele>
        <time>2025-07-06T14:02:23.381Z</time>
      </trkpt>
      <trkpt lat="43.31628" lon="6.11392">
        <ele>518.700115</ele>
        <time>2025-07-06T14:02:31.701Z</time>
      </trkpt>
      <trkpt lat="43.31636" lon="6.11351">
        <ele>517.457782</ele>
        <time>2025-07-06T14:02:40.673Z</time>
      </trkpt>
      <trkpt lat="43.31645" lon="6.11331">
        <ele>516.771522</ele>
        <time>2025-07-06T14:02:45.332Z</time>
      </trkpt>
      <trkpt lat="43.31688" lon="6.11298">
        <ele>512.791387</ele>
        <time>2025-07-06T14:02:58.389Z</time>
      </trkpt>
      <trkpt lat="43.31713" lon="6.11297">
        <ele>510.508716</ele>
        <time>2025-07-06T14:03:05.217Z</time>
      </trkpt>
      <trkpt lat="43.31747" lon="6.11311">
        <ele>507.403829</ele>
        <time>2025-07-06T14:03:14.217Z</time>
      </trkpt>
      <trkpt lat="43.31776" lon="6.11319">
        <ele>504.811644</ele>
        <time>2025-07-06T14:03:21.686Z</time>
      </trkpt>
      <trkpt lat="43.31802" lon="6.11299">
        <ele>502.214036</ele>
        <time>2025-07-06T14:03:29.245Z</time>
      </trkpt>
      <trkpt lat="43.31816" lon="6.11279">
        <ele>500.45249</ele>
        <time>2025-07-06T14:03:34.519Z</time>
      </trkpt>
      <trkpt lat="43.31823" lon="6.11249">
        <ele>498.936219</ele>
        <time>2025-07-06T14:03:40.530Z</time>
      </trkpt>
      <trkpt lat="43.31845" lon="6.11221">
        <ele>496.926737</ele>
        <time>2025-07-06T14:03:48.825Z</time>
      </trkpt>
      <trkpt lat="43.31869" lon="6.11205">
        <ele>495.195716</ele>
        <time>2025-07-06T14:03:56.162Z</time>
      </trkpt>
      <trkpt lat="43.31902" lon="6.11173">
        <ele>492.529394</ele>
        <time>2025-07-06T14:04:07.514Z</time>
      </trkpt>
      <trkpt lat="43.31924" lon="6.11124">
        <ele>489.765613</ele>
        <time>2025-07-06T14:04:19.328Z</time>
      </trkpt>
      <trkpt lat="43.31937" lon="6.11089">
        <ele>487.810403</ele>
        <time>2025-07-06T14:04:27.585Z</time>
      </trkpt>
      <trkpt lat="43.31949" lon="6.10997">
        <ele>483.101376</ele>
        <time>2025-07-06T14:04:47.215Z</time>
      </trkpt>
      <trkpt lat="43.31946" lon="6.10946">
        <ele>480.55916</ele>
        <time>2025-07-06T14:04:57.490Z</time>
      </trkpt>
      <trkpt lat="43.31935" lon="6.10913">
        <ele>478.697377</ele>
        <time>2025-07-06T14:05:04.677Z</time>
      </trkpt>
      <trkpt lat="43.31934" lon="6.1091">
        <ele>478.53152</ele>
        <time>2025-07-06T14:05:05.302Z</time>
      </trkpt>
      <trkpt lat="43.31928" lon="6.10874">
        <ele>476.71214</ele>
        <time>2025-07-06T14:05:12.120Z</time>
      </trkpt>
      <trkpt lat="43.31932" lon="6.10849">
        <ele>474.760058</ele>
        <time>2025-07-06T14:05:17.020Z</time>
      </trkpt>
      <trkpt lat="43.31948" lon="6.10814">
        <ele>471.208805</ele>
        <time>2025-07-06T14:05:24.616Z</time>
      </trkpt>
      <trkpt lat="43.31976" lon="6.10768">
        <ele>466.068763</ele>
        <time>2025-07-06T14:05:35.476Z</time>
      </trkpt>
      <trkpt lat="43.31985" lon="6.10731">
        <ele>462.655991</ele>
        <time>2025-07-06T14:05:42.591Z</time>
      </trkpt>
      <trkpt lat="43.32002" lon="6.10674">
        <ele>457.376679</ele>
        <time>2025-07-06T14:05:53.453Z</time>
      </trkpt>
      <trkpt lat="43.32013" lon="6.10618">
        <ele>452.729137</ele>
        <time>2025-07-06T14:06:03.980Z</time>
      </trkpt>
      <trkpt lat="43.32015" lon="6.10568">
        <ele>449.059331</ele>
        <time>2025-07-06T14:06:13.190Z</time>
      </trkpt>
      <trkpt lat="43.32023" lon="6.10516">
        <ele>445.151368</ele>
        <time>2025-07-06T14:06:23.058Z</time>
      </trkpt>
      <trkpt lat="43.32082" lon="6.10262">
        <ele>428.215067</ele>
        <time>2025-07-06T14:07:14.555Z</time>
      </trkpt>
      <trkpt lat="43.32098" lon="6.10233">
        <ele>426.150301</ele>
        <time>2025-07-06T14:07:21.984Z</time>
      </trkpt>
      <trkpt lat="43.32102" lon="6.10183">
        <ele>423.339439</ele>
        <time>2025-07-06T14:07:31.999Z</time>
      </trkpt>
      <trkpt lat="43.32113" lon="6.10167">
        <ele>421.907505</ele>
        <time>2025-07-06T14:07:36.352Z</time>
      </trkpt>
      <trkpt lat="43.32127" lon="6.10156">
        <ele>420.311533</ele>
        <time>2025-07-06T14:07:40.770Z</time>
      </trkpt>
      <trkpt lat="43.32135" lon="6.10135">
        <ele>418.690577</ele>
        <time>2025-07-06T14:07:45.215Z</time>
      </trkpt>
      <trkpt lat="43.32131" lon="6.10113">
        <ele>417.063714</ele>
        <time>2025-07-06T14:07:49.631Z</time>
      </trkpt>
      <trkpt lat="43.32111" lon="6.10095">
        <ele>414.758202</ele>
        <time>2025-07-06T14:07:55.803Z</time>
      </trkpt>
      <trkpt lat="43.32092" lon="6.10083">
        <ele>412.735376</ele>
        <time>2025-07-06T14:08:01.171Z</time>
      </trkpt>
      <trkpt lat="43.3207" lon="6.10076">
        <ele>410.570762</ele>
        <time>2025-07-06T14:08:06.844Z</time>
      </trkpt>
      <trkpt lat="43.32042" lon="6.10061">
        <ele>407.656379</ele>
        <time>2025-07-06T14:08:14.444Z</time>
      </trkpt>
      <trkpt lat="43.32021" lon="6.10032">
        <ele>404.736875</ele>
        <time>2025-07-06T14:08:21.931Z</time>
      </trkpt>
      <trkpt lat="43.32001" lon="6.09995">
        <ele>401.289777</ele>
        <time>2025-07-06T14:08:30.504Z</time>
      </trkpt>
      <trkpt lat="43.3199" lon="6.0998">
        <ele>399.721057</ele>
        <time>2025-07-06T14:08:34.419Z</time>
      </trkpt>
      <trkpt lat="43.31967" lon="6.09887">
        <ele>392.545948</ele>
        <time>2025-07-06T14:08:52.713Z</time>
      </trkpt>
      <trkpt lat="43.31958" lon="6.09821">
        <ele>387.549991</ele>
        <time>2025-07-06T14:09:05.553Z</time>
      </trkpt>
      <trkpt lat="43.31955" lon="6.09783">
        <ele>385.210017</ele>
        <time>2025-07-06T14:09:12.700Z</time>
      </trkpt>
      <trkpt lat="43.31962" lon="6.097">
        <ele>380.118712</ele>
        <time>2025-07-06T14:09:28.690Z</time>
      </trkpt>
      <trkpt lat="43.31962" lon="6.09657">
        <ele>377.525413</ele>
        <time>2025-07-06T14:09:36.957Z</time>
      </trkpt>
      <trkpt lat="43.31972" lon="6.09639">
        <ele>376.225432</ele>
        <time>2025-07-06T14:09:41.122Z</time>
      </trkpt>
      <trkpt lat="43.32" lon="6.09618">
        <ele>373.557103</ele>
        <time>2025-07-06T14:09:49.792Z</time>
      </trkpt>
      <trkpt lat="43.32028" lon="6.09603">
        <ele>371.351232</ele>
        <time>2025-07-06T14:09:58.106Z</time>
      </trkpt>
      <trkpt lat="43.32061" lon="6.09596">
        <ele>369.24771</ele>
        <time>2025-07-06T14:10:07.483Z</time>
      </trkpt>
      <trkpt lat="43.32155" lon="6.09591">
        <ele>363.248345</ele>
        <time>2025-07-06T14:10:34.217Z</time>
      </trkpt>
      <trkpt lat="43.3219" lon="6.09597">
        <ele>361.007832</ele>
        <time>2025-07-06T14:10:43.861Z</time>
      </trkpt>
      <trkpt lat="43.32213" lon="6.09589">
        <ele>359.306793</ele>
        <time>2025-07-06T14:10:50.135Z</time>
      </trkpt>
      <trkpt lat="43.32228" lon="6.09558">
        <ele>357.317527</ele>
        <time>2025-07-06T14:10:57.359Z</time>
      </trkpt>
      <trkpt lat="43.32225" lon="6.09497">
        <ele>354.033653</ele>
        <time>2025-07-06T14:11:09.195Z</time>
      </trkpt>
      <trkpt lat="43.3227" lon="6.09458">
        <ele>350.118347</ele>
        <time>2025-07-06T14:11:23.443Z</time>
      </trkpt>
      <trkpt lat="43.32289" lon="6.09412">
        <ele>347.414946</ele>
        <time>2025-07-06T14:11:34.105Z</time>
      </trkpt>
      <trkpt lat="43.32286" lon="6.09389">
        <ele>346.638458</ele>
        <time>2025-07-06T14:11:38.841Z</time>
      </trkpt>
      <trkpt lat="43.32255" lon="6.09389">
        <ele>345.233476</ele>
        <time>2025-07-06T14:11:43.894Z</time>
      </trkpt>
      <trkpt lat="43.32324" lon="6.09212">
        <ele>338.790262</ele>
        <time>2025-07-06T14:12:07.994Z</time>
      </trkpt>
      <trkpt lat="43.32334" lon="6.09167">
        <ele>337.659141</ele>
        <time>2025-07-06T14:12:13.801Z</time>
      </trkpt>
      <trkpt lat="43.32335" lon="6.08923">
        <ele>332.045914</ele>
        <time>2025-07-06T14:12:44.227Z</time>
      </trkpt>
      <trkpt lat="43.32327" lon="6.08838">
        <ele>330.266726</ele>
        <time>2025-07-06T14:12:55.152Z</time>
      </trkpt>
      <trkpt lat="43.32311" lon="6.08659">
        <ele>326.491097</ele>
        <time>2025-07-06T14:13:18.215Z</time>
      </trkpt>
      <trkpt lat="43.32309" lon="6.08589">
        <ele>325.020269</ele>
        <time>2025-07-06T14:13:26.966Z</time>
      </trkpt>
      <trkpt lat="43.32355" lon="6.08342">
        <ele>319.933247</ele>
        <time>2025-07-06T14:13:58.884Z</time>
      </trkpt>
      <trkpt lat="43.32401" lon="6.08093">
        <ele>316.215795</ele>
        <time>2025-07-06T14:14:33.330Z</time>
      </trkpt>
      <trkpt lat="43.32426" lon="6.08041">
        <ele>315.448356</ele>
        <time>2025-07-06T14:14:41.941Z</time>
      </trkpt>
      <trkpt lat="43.32523" lon="6.07976">
        <ele>315.477096</ele>
        <time>2025-07-06T14:15:05.183Z</time>
      </trkpt>
      <trkpt lat="43.3253" lon="6.07973">
        <ele>315.48703</ele>
        <time>2025-07-06T14:15:07.220Z</time>
      </trkpt>
      <trkpt lat="43.32544" lon="6.07972">
        <ele>315.505014</ele>
        <time>2025-07-06T14:15:11.141Z</time>
      </trkpt>
      <trkpt lat="43.32556" lon="6.07972">
        <ele>315.521818</ele>
        <time>2025-07-06T14:15:14.853Z</time>
      </trkpt>
      <trkpt lat="43.32576" lon="6.0796">
        <ele>315.550421</ele>
        <time>2025-07-06T14:15:20.930Z</time>
      </trkpt>
      <trkpt lat="43.32585" lon="6.07959">
        <ele>315.562013</ele>
        <time>2025-07-06T14:15:23.419Z</time>
      </trkpt>
      <trkpt lat="43.32605" lon="6.07967">
        <ele>315.539587</ele>
        <time>2025-07-06T14:15:28.997Z</time>
      </trkpt>
      <trkpt lat="43.32624" lon="6.07982">
        <ele>315.420681</ele>
        <time>2025-07-06T14:15:34.725Z</time>
      </trkpt>
      <trkpt lat="43.32665" lon="6.08025">
        <ele>315.132009</ele>
        <time>2025-07-06T14:15:47.178Z</time>
      </trkpt>
      <trkpt lat="43.32705" lon="6.08074">
        <ele>314.837134</ele>
        <time>2025-07-06T14:15:57.682Z</time>
      </trkpt>
      <trkpt lat="43.3271" lon="6.08081">
        <ele>314.798785</ele>
        <time>2025-07-06T14:15:58.928Z</time>
      </trkpt>
      <trkpt lat="43.32852" lon="6.08291">
        <ele>311.704489</ele>
        <time>2025-07-06T14:16:37.360Z</time>
      </trkpt>
      <trkpt lat="43.32896" lon="6.08349">
        <ele>311.502623</ele>
        <time>2025-07-06T14:16:50.070Z</time>
      </trkpt>
      <trkpt lat="43.32977" lon="6.08441">
        <ele>311.427597</ele>
        <time>2025-07-06T14:17:13.734Z</time>
      </trkpt>
      <trkpt lat="43.3303" lon="6.08488">
        <ele>311.977322</ele>
        <time>2025-07-06T14:17:30.022Z</time>
      </trkpt>
      <trkpt lat="43.33075" lon="6.08521">
        <ele>312.707162</ele>
        <time>2025-07-06T14:17:46.355Z</time>
      </trkpt>
      <trkpt lat="43.33062" lon="6.08537">
        <ele>312.962019</ele>
        <time>2025-07-06T14:17:52.197Z</time>
      </trkpt>
      <trkpt lat="43.33027" lon="6.08566">
        <ele>313.550978</ele>
        <time>2025-07-06T14:18:05.339Z</time>
      </trkpt>
      <trkpt lat="43.33019" lon="6.08572">
        <ele>313.677186</ele>
        <time>2025-07-06T14:18:08.186Z</time>
      </trkpt>
      <trkpt lat="43.33005" lon="6.08575">
        <ele>313.884502</ele>
        <time>2025-07-06T14:18:12.763Z</time>
      </trkpt>
      <trkpt lat="43.33016" lon="6.08589">
        <ele>314.014577</ele>
        <time>2025-07-06T14:18:17.669Z</time>
      </trkpt>
      <trkpt lat="43.33031" lon="6.08602">
        <ele>314.067091</ele>
        <time>2025-07-06T14:18:23.192Z</time>
      </trkpt>
      <trkpt lat="43.33063" lon="6.08629">
        <ele>314.181024</ele>
        <time>2025-07-06T14:18:34.104Z</time>
      </trkpt>
      <trkpt lat="43.33121" lon="6.08711">
        <ele>314.435605</ele>
        <time>2025-07-06T14:18:52.518Z</time>
      </trkpt>
      <trkpt lat="43.33132" lon="6.08729">
        <ele>314.486938</ele>
        <time>2025-07-06T14:18:56.170Z</time>
      </trkpt>
      <trkpt lat="43.33155" lon="6.08787">
        <ele>314.640905</ele>
        <time>2025-07-06T14:19:06.837Z</time>
      </trkpt>
      <trkpt lat="43.33157" lon="6.08793">
        <ele>314.65657</ele>
        <time>2025-07-06T14:19:07.913Z</time>
      </trkpt>
      <trkpt lat="43.33176" lon="6.08842">
        <ele>314.789971</ele>
        <time>2025-07-06T14:19:17.555Z</time>
      </trkpt>
      <trkpt lat="43.33208" lon="6.08967">
        <ele>315.109556</ele>
        <time>2025-07-06T14:19:43.168Z</time>
      </trkpt>
      <trkpt lat="43.3323" lon="6.09044">
        <ele>315.894132</ele>
        <time>2025-07-06T14:19:59.005Z</time>
      </trkpt>
      <trkpt lat="43.33237" lon="6.09055">
        <ele>316.056378</ele>
        <time>2025-07-06T14:20:02.007Z</time>
      </trkpt>
      <trkpt lat="43.33241" lon="6.09063">
        <ele>316.156942</ele>
        <time>2025-07-06T14:20:03.877Z</time>
      </trkpt>
      <trkpt lat="43.33253" lon="6.09121">
        <ele>316.785997</ele>
        <time>2025-07-06T14:20:16.649Z</time>
      </trkpt>
      <trkpt lat="43.33274" lon="6.09188">
        <ele>317.546845</ele>
        <time>2025-07-06T14:20:34.067Z</time>
      </trkpt>
      <trkpt lat="43.33276" lon="6.09199">
        <ele>317.66603</ele>
        <time>2025-07-06T14:20:36.978Z</time>
      </trkpt>
      <trkpt lat="43.33274" lon="6.09205">
        <ele>317.74606</ele>
        <time>2025-07-06T14:20:38.476Z</time>
      </trkpt>
      <trkpt lat="43.33265" lon="6.09218">
        <ele>318.245201</ele>
        <time>2025-07-06T14:20:43.567Z</time>
      </trkpt>
      <trkpt lat="43.33261" lon="6.09229">
        <ele>318.589568</ele>
        <time>2025-07-06T14:20:47.204Z</time>
      </trkpt>
      <trkpt lat="43.33257" lon="6.09245">
        <ele>319.028497</ele>
        <time>2025-07-06T14:20:52.004Z</time>
      </trkpt>
      <trkpt lat="43.33256" lon="6.09263">
        <ele>319.494029</ele>
        <time>2025-07-06T14:20:57.262Z</time>
      </trkpt>
      <trkpt lat="43.33266" lon="6.09477">
        <ele>324.861737</ele>
        <time>2025-07-06T14:22:05.692Z</time>
      </trkpt>
      <trkpt lat="43.3327" lon="6.09494">
        <ele>325.155832</ele>
        <time>2025-07-06T14:22:11.142Z</time>
      </trkpt>
      <trkpt lat="43.33275" lon="6.09513">
        <ele>325.479364</ele>
        <time>2025-07-06T14:22:19.053Z</time>
      </trkpt>
      <trkpt lat="43.3328" lon="6.09572">
        <ele>326.432828</ele>
        <time>2025-07-06T14:22:41.719Z</time>
      </trkpt>
      <trkpt lat="43.3329" lon="6.09602">
        <ele>326.967982</ele>
        <time>2025-07-06T14:22:52.970Z</time>
      </trkpt>
      <trkpt lat="43.333" lon="6.0968">
        <ele>328.25336</ele>
        <time>2025-07-06T14:23:15.777Z</time>
      </trkpt>
      <trkpt lat="43.33313" lon="6.09714">
        <ele>328.00682</ele>
        <time>2025-07-06T14:23:26.449Z</time>
      </trkpt>
      <trkpt lat="43.3335" lon="6.09755">
        <ele>327.463263</ele>
        <time>2025-07-06T14:23:43.133Z</time>
      </trkpt>
      <trkpt lat="43.33341" lon="6.09809">
        <ele>327.002337</ele>
        <time>2025-07-06T14:23:56.337Z</time>
      </trkpt>
      <trkpt lat="43.33361" lon="6.09823">
        <ele>326.746248</ele>
        <time>2025-07-06T14:24:03.436Z</time>
      </trkpt>
      <trkpt lat="43.33384" lon="6.09849">
        <ele>326.412572</ele>
        <time>2025-07-06T14:24:12.893Z</time>
      </trkpt>
      <trkpt lat="43.3339" lon="6.09868">
        <ele>326.23772</ele>
        <time>2025-07-06T14:24:18.073Z</time>
      </trkpt>
      <trkpt lat="43.33393" lon="6.099">
        <ele>325.936616</ele>
        <time>2025-07-06T14:24:26.306Z</time>
      </trkpt>
      <trkpt lat="43.33404" lon="6.0993">
        <ele>325.616976</ele>
        <time>2025-07-06T14:24:34.828Z</time>
      </trkpt>
      <trkpt lat="43.33404" lon="6.09959">
        <ele>325.35104</ele>
        <time>2025-07-06T14:24:41.924Z</time>
      </trkpt>
      <trkpt lat="43.33407" lon="6.09979">
        <ele>325.159198</ele>
        <time>2025-07-06T14:24:47.048Z</time>
      </trkpt>
      <trkpt lat="43.3343" lon="6.09993">
        <ele>324.834258</ele>
        <time>2025-07-06T14:24:55.693Z</time>
      </trkpt>
      <trkpt lat="43.33433" lon="6.10021">
        <ele>324.567918</ele>
        <time>2025-07-06T14:25:02.802Z</time>
      </trkpt>
      <trkpt lat="43.33435" lon="6.10088">
        <ele>323.944603</ele>
        <time>2025-07-06T14:25:18.942Z</time>
      </trkpt>
      <trkpt lat="43.33463" lon="6.1018">
        <ele>323.034472</ele>
        <time>2025-07-06T14:25:43.045Z</time>
      </trkpt>
      <trkpt lat="43.33474" lon="6.10216">
        <ele>322.674421</ele>
        <time>2025-07-06T14:25:52.567Z</time>
      </trkpt>
      <trkpt lat="43.33493" lon="6.10323">
        <ele>321.680001</ele>
        <time>2025-07-06T14:26:19.767Z</time>
      </trkpt>
      <trkpt lat="43.33498" lon="6.10369">
        <ele>321.549346</ele>
        <time>2025-07-06T14:26:32.420Z</time>
      </trkpt>
      <trkpt lat="43.33486" lon="6.10429">
        <ele>321.373196</ele>
        <time>2025-07-06T14:26:50.684Z</time>
      </trkpt>
      <trkpt lat="43.33482" lon="6.10465">
        <ele>321.267906</ele>
        <time>2025-07-06T14:27:00.732Z</time>
      </trkpt>
      <trkpt lat="43.33484" lon="6.10495">
        <ele>321.184738</ele>
        <time>2025-07-06T14:27:08.353Z</time>
      </trkpt>
      <trkpt lat="43.33484" lon="6.10551">
        <ele>321.025364</ele>
        <time>2025-07-06T14:27:22.414Z</time>
      </trkpt>
      <trkpt lat="43.3349" lon="6.10621">
        <ele>321.011808</ele>
        <time>2025-07-06T14:27:39.846Z</time>
      </trkpt>
      <trkpt lat="43.33502" lon="6.10703">
        <ele>321.059712</ele>
        <time>2025-07-06T14:28:00.848Z</time>
      </trkpt>
      <trkpt lat="43.33499" lon="6.10722">
        <ele>321.07093</ele>
        <time>2025-07-06T14:28:05.683Z</time>
      </trkpt>
      <trkpt lat="43.33496" lon="6.1074">
        <ele>321.08133</ele>
        <time>2025-07-06T14:28:10.442Z</time>
      </trkpt>
      <trkpt lat="43.33483" lon="6.10794">
        <ele>321.114247</ele>
        <time>2025-07-06T14:28:29.214Z</time>
      </trkpt>
      <trkpt lat="43.3346" lon="6.10819">
        <ele>321.465092</ele>
        <time>2025-07-06T14:28:44.448Z</time>
      </trkpt>
      <trkpt lat="43.33435" lon="6.10832">
        <ele>321.966422</ele>
        <time>2025-07-06T14:28:59.609Z</time>
      </trkpt>
      <trkpt lat="43.33405" lon="6.10834">
        <ele>322.504802</ele>
        <time>2025-07-06T14:29:15.671Z</time>
      </trkpt>
      <trkpt lat="43.33366" lon="6.10836">
        <ele>323.224531</ele>
        <time>2025-07-06T14:29:36.630Z</time>
      </trkpt>
      <trkpt lat="43.33356" lon="6.10842">
        <ele>323.416703</ele>
        <time>2025-07-06T14:29:41.608Z</time>
      </trkpt>
      <trkpt lat="43.33352" lon="6.10852">
        <ele>323.571282</ele>
        <time>2025-07-06T14:29:45.574Z</time>
      </trkpt>
      <trkpt lat="43.33366" lon="6.10872">
        <ele>323.941299</ele>
        <time>2025-07-06T14:29:54.238Z</time>
      </trkpt>
      <trkpt lat="43.33396" lon="6.10897">
        <ele>324.105091</ele>
        <time>2025-07-06T14:30:07.201Z</time>
      </trkpt>
      <trkpt lat="43.33406" lon="6.1091">
        <ele>323.657386</ele>
        <time>2025-07-06T14:30:11.612Z</time>
      </trkpt>
      <trkpt lat="43.33412" lon="6.10916">
        <ele>323.413651</ele>
        <time>2025-07-06T14:30:14.019Z</time>
      </trkpt>
      <trkpt lat="43.33449" lon="6.10939">
        <ele>322.112765</ele>
        <time>2025-07-06T14:30:25.978Z</time>
      </trkpt>
      <trkpt lat="43.33489" lon="6.10957">
        <ele>320.73223</ele>
        <time>2025-07-06T14:30:38.495Z</time>
      </trkpt>
      <trkpt lat="43.33498" lon="6.10968">
        <ele>320.350007</ele>
        <time>2025-07-06T14:30:41.994Z</time>
      </trkpt>
      <trkpt lat="43.33502" lon="6.11002">
        <ele>319.534286</ele>
        <time>2025-07-06T14:30:49.274Z</time>
      </trkpt>
      <trkpt lat="43.33494" lon="6.11146">
        <ele>314.541005</ele>
        <time>2025-07-06T14:31:20.956Z</time>
      </trkpt>
      <trkpt lat="43.3348" lon="6.11179">
        <ele>313.069238</ele>
        <time>2025-07-06T14:31:28.979Z</time>
      </trkpt>
      <trkpt lat="43.33483" lon="6.1119">
        <ele>312.587596</ele>
        <time>2025-07-06T14:31:31.541Z</time>
      </trkpt>
      <trkpt lat="43.33501" lon="6.11209">
        <ele>311.41652</ele>
        <time>2025-07-06T14:31:37.640Z</time>
      </trkpt>
      <trkpt lat="43.33504" lon="6.11242">
        <ele>310.137197</ele>
        <time>2025-07-06T14:31:44.206Z</time>
      </trkpt>
      <trkpt lat="43.33514" lon="6.11247">
        <ele>309.569248</ele>
        <time>2025-07-06T14:31:47.114Z</time>
      </trkpt>
      <trkpt lat="43.33528" lon="6.11232">
        <ele>308.541586</ele>
        <time>2025-07-06T14:31:51.736Z</time>
      </trkpt>
      <trkpt lat="43.33535" lon="6.11225">
        <ele>307.898849</ele>
        <time>2025-07-06T14:31:54.112Z</time>
      </trkpt>
      <trkpt lat="43.33565" lon="6.11212">
        <ele>305.615203</ele>
        <time>2025-07-06T14:32:02.538Z</time>
      </trkpt>
      <trkpt lat="43.33596" lon="6.11205">
        <ele>303.356848</ele>
        <time>2025-07-06T14:32:10.778Z</time>
      </trkpt>
      <trkpt lat="43.33661" lon="6.11172">
        <ele>298.332976</ele>
        <time>2025-07-06T14:32:29.400Z</time>
      </trkpt>
      <trkpt lat="43.3371" lon="6.11192">
        <ele>295.313145</ele>
        <time>2025-07-06T14:32:44.031Z</time>
      </trkpt>
      <trkpt lat="43.33761" lon="6.11216">
        <ele>293.333526</ele>
        <time>2025-07-06T14:33:00.173Z</time>
      </trkpt>
      <trkpt lat="43.33782" lon="6.11225">
        <ele>292.537476</ele>
        <time>2025-07-06T14:33:06.791Z</time>
      </trkpt>
      <trkpt lat="43.33801" lon="6.11232">
        <ele>291.826499</ele>
        <time>2025-07-06T14:33:12.831Z</time>
      </trkpt>
      <trkpt lat="43.33882" lon="6.11231">
        <ele>289.032595</ele>
        <time>2025-07-06T14:33:38.270Z</time>
      </trkpt>
      <trkpt lat="43.33927" lon="6.11235">
        <ele>287.92442</ele>
        <time>2025-07-06T14:33:46.609Z</time>
      </trkpt>
      <trkpt lat="43.33967" lon="6.11247">
        <ele>286.920712</ele>
        <time>2025-07-06T14:33:54.275Z</time>
      </trkpt>
      <trkpt lat="43.33987" lon="6.11244">
        <ele>286.429834</ele>
        <time>2025-07-06T14:33:58.066Z</time>
      </trkpt>
      <trkpt lat="43.3399" lon="6.11239">
        <ele>286.316262</ele>
        <time>2025-07-06T14:33:58.958Z</time>
      </trkpt>
      <trkpt lat="43.34038" lon="6.11245">
        <ele>285.143051</ele>
        <time>2025-07-06T14:34:08.092Z</time>
      </trkpt>
      <trkpt lat="43.34054" lon="6.11252">
        <ele>284.949272</ele>
        <time>2025-07-06T14:34:11.180Z</time>
      </trkpt>
      <trkpt lat="43.34085" lon="6.11269">
        <ele>284.770203</ele>
        <time>2025-07-06T14:34:17.509Z</time>
      </trkpt>
      <trkpt lat="43.3409" lon="6.11274">
        <ele>284.734581</ele>
        <time>2025-07-06T14:34:18.769Z</time>
      </trkpt>
      <trkpt lat="43.341" lon="6.11291">
        <ele>284.648889</ele>
        <time>2025-07-06T14:34:21.886Z</time>
      </trkpt>
      <trkpt lat="43.34105" lon="6.11292">
        <ele>284.626121</ele>
        <time>2025-07-06T14:34:22.752Z</time>
      </trkpt>
      <trkpt lat="43.34126" lon="6.11287">
        <ele>284.509872</ele>
        <time>2025-07-06T14:34:37.748Z</time>
      </trkpt>
      <trkpt lat="43.34129" lon="6.11283">
        <ele>284.488747</ele>
        <time>2025-07-06T14:34:38.555Z</time>
      </trkpt>
      <trkpt lat="43.34132" lon="6.11268">
        <ele>284.428268</ele>
        <time>2025-07-06T14:34:40.972Z</time>
      </trkpt>
      <trkpt lat="43.34137" lon="6.11258">
        <ele>284.378622</ele>
        <time>2025-07-06T14:34:43.017Z</time>
      </trkpt>
      <trkpt lat="43.34168" lon="6.11252">
        <ele>284.210176</ele>
        <time>2025-07-06T14:34:50.763Z</time>
      </trkpt>
      <trkpt lat="43.34173" lon="6.11243">
        <ele>284.169747</ele>
        <time>2025-07-06T14:34:52.867Z</time>
      </trkpt>
      <trkpt lat="43.34175" lon="6.11225">
        <ele>284.096705</ele>
        <time>2025-07-06T14:34:56.950Z</time>
      </trkpt>
      <trkpt lat="43.34183" lon="6.11191">
        <ele>284.503157</ele>
        <time>2025-07-06T14:35:05.571Z</time>
      </trkpt>
      <trkpt lat="43.34189" lon="6.11184">
        <ele>284.709806</ele>
        <time>2025-07-06T14:35:08.085Z</time>
      </trkpt>
      <trkpt lat="43.34199" lon="6.11185">
        <ele>285.006981</ele>
        <time>2025-07-06T14:35:11.870Z</time>
      </trkpt>
      <trkpt lat="43.34245" lon="6.11203">
        <ele>286.3735</ele>
        <time>2025-07-06T14:35:31.436Z</time>
      </trkpt>
      <trkpt lat="43.34257" lon="6.11194">
        <ele>286.777232</ele>
        <time>2025-07-06T14:35:37.454Z</time>
      </trkpt>
      <trkpt lat="43.34263" lon="6.11193">
        <ele>286.95102</ele>
        <time>2025-07-06T14:35:40.081Z</time>
      </trkpt>
      <trkpt lat="43.34319" lon="6.11205">
        <ele>288.570598</ele>
        <time>2025-07-06T14:36:03.610Z</time>
      </trkpt>
      <trkpt lat="43.34347" lon="6.11203">
        <ele>289.21528</ele>
        <time>2025-07-06T14:36:13.994Z</time>
      </trkpt>
      <trkpt lat="43.34379" lon="6.11194">
        <ele>289.182039</ele>
        <time>2025-07-06T14:36:24.654Z</time>
      </trkpt>
      <trkpt lat="43.34386" lon="6.11198">
        <ele>289.174974</ele>
        <time>2025-07-06T14:36:26.638Z</time>
      </trkpt>
      <trkpt lat="43.344" lon="6.1123">
        <ele>289.147395</ele>
        <time>2025-07-06T14:36:33.716Z</time>
      </trkpt>
      <trkpt lat="43.34406" lon="6.11237">
        <ele>289.139757</ele>
        <time>2025-07-06T14:36:35.471Z</time>
      </trkpt>
      <trkpt lat="43.34445" lon="6.1123">
        <ele>289.100616</ele>
        <time>2025-07-06T14:36:43.741Z</time>
      </trkpt>
      <trkpt lat="43.34468" lon="6.11222">
        <ele>289.076945</ele>
        <time>2025-07-06T14:36:48.465Z</time>
      </trkpt>
      <trkpt lat="43.34484" lon="6.11216">
        <ele>289.061036</ele>
        <time>2025-07-06T14:36:51.566Z</time>
      </trkpt>
      <trkpt lat="43.34503" lon="6.11273">
        <ele>288.571609</ele>
        <time>2025-07-06T14:37:00.215Z</time>
      </trkpt>
      <trkpt lat="43.34522" lon="6.11309">
        <ele>287.979398</ele>
        <time>2025-07-06T14:37:06.294Z</time>
      </trkpt>
      <trkpt lat="43.34557" lon="6.11397">
        <ele>286.653933</ele>
        <time>2025-07-06T14:37:20.111Z</time>
      </trkpt>
      <trkpt lat="43.3458" lon="6.11639">
        <ele>284.091734</ele>
        <time>2025-07-06T14:37:57.043Z</time>
      </trkpt>
      <trkpt lat="43.34583" lon="6.11647">
        <ele>284.013933</ele>
        <time>2025-07-06T14:37:58.276Z</time>
      </trkpt>
      <trkpt lat="43.34614" lon="6.11676">
        <ele>283.521993</ele>
        <time>2025-07-06T14:38:05.899Z</time>
      </trkpt>
      <trkpt lat="43.3462" lon="6.11705">
        <ele>283.07603</ele>
        <time>2025-07-06T14:38:10.119Z</time>
      </trkpt>
      <trkpt lat="43.34622" lon="6.11725">
        <ele>282.72757</ele>
        <time>2025-07-06T14:38:12.873Z</time>
      </trkpt>
      <trkpt lat="43.34632" lon="6.11829">
        <ele>280.896106</ele>
        <time>2025-07-06T14:38:26.762Z</time>
      </trkpt>
      <trkpt lat="43.34636" lon="6.11891">
        <ele>279.817051</ele>
        <time>2025-07-06T14:38:34.974Z</time>
      </trkpt>
      <trkpt lat="43.34635" lon="6.11924">
        <ele>279.224985</ele>
        <time>2025-07-06T14:38:39.592Z</time>
      </trkpt>
      <trkpt lat="43.34639" lon="6.11954">
        <ele>279.062585</ele>
        <time>2025-07-06T14:38:43.834Z</time>
      </trkpt>
      <trkpt lat="43.3465" lon="6.12027">
        <ele>278.884687</ele>
        <time>2025-07-06T14:38:54.766Z</time>
      </trkpt>
      <trkpt lat="43.34681" lon="6.12104">
        <ele>278.67467</ele>
        <time>2025-07-06T14:39:11.511Z</time>
      </trkpt>
      <trkpt lat="43.34693" lon="6.1212">
        <ele>278.619398</ele>
        <time>2025-07-06T14:39:16.334Z</time>
      </trkpt>
      <trkpt lat="43.3471" lon="6.121">
        <ele>278.546272</ele>
        <time>2025-07-06T14:39:22.393Z</time>
      </trkpt>
      <trkpt lat="43.34715" lon="6.12099">
        <ele>278.530654</ele>
        <time>2025-07-06T14:39:23.671Z</time>
      </trkpt>
      <trkpt lat="43.34719" lon="6.12099">
        <ele>278.585221</ele>
        <time>2025-07-06T14:39:24.908Z</time>
      </trkpt>
      <trkpt lat="43.34728" lon="6.12101">
        <ele>278.681505</ele>
        <time>2025-07-06T14:39:27.100Z</time>
      </trkpt>
      <trkpt lat="43.34731" lon="6.12062">
        <ele>279.012035</ele>
        <time>2025-07-06T14:39:34.383Z</time>
      </trkpt>
      <trkpt lat="43.34738" lon="6.12038">
        <ele>279.228523</ele>
        <time>2025-07-06T14:39:39.188Z</time>
      </trkpt>
      <trkpt lat="43.34745" lon="6.12042">
        <ele>279.320371</ele>
        <time>2025-07-06T14:39:42.251Z</time>
      </trkpt>
      <trkpt lat="43.3475" lon="6.12041">
        <ele>279.384886</ele>
        <time>2025-07-06T14:39:44.481Z</time>
      </trkpt>
      <trkpt lat="43.34778" lon="6.12014">
        <ele>279.779944</ele>
        <time>2025-07-06T14:39:58.371Z</time>
      </trkpt>
      <trkpt lat="43.34817" lon="6.11998">
        <ele>280.252071</ele>
        <time>2025-07-06T14:40:15.640Z</time>
      </trkpt>
      <trkpt lat="43.34827" lon="6.11998">
        <ele>280.374625</ele>
        <time>2025-07-06T14:40:20.220Z</time>
      </trkpt>
      <trkpt lat="43.3485" lon="6.12004">
        <ele>280.684204</ele>
        <time>2025-07-06T14:40:30.383Z</time>
      </trkpt>
      <trkpt lat="43.34864" lon="6.12011">
        <ele>281.460298</ele>
        <time>2025-07-06T14:40:37.612Z</time>
      </trkpt>
      <trkpt lat="43.34908" lon="6.12049">
        <ele>284.141409</ele>
        <time>2025-07-06T14:41:07.102Z</time>
      </trkpt>
      <trkpt lat="43.3496" lon="6.12061">
        <ele>286.857437</ele>
        <time>2025-07-06T14:41:42.462Z</time>
      </trkpt>
      <trkpt lat="43.34966" lon="6.12067">
        <ele>287.276811</ele>
        <time>2025-07-06T14:41:48.173Z</time>
      </trkpt>
      <trkpt lat="43.35015" lon="6.12142">
        <ele>291.340951</ele>
        <time>2025-07-06T14:42:41.450Z</time>
      </trkpt>
      <trkpt lat="43.35026" lon="6.12149">
        <ele>292.120763</ele>
        <time>2025-07-06T14:42:50.215Z</time>
      </trkpt>
      <trkpt lat="43.3503" lon="6.12147">
        <ele>292.356928</ele>
        <time>2025-07-06T14:42:52.898Z</time>
      </trkpt>
      <trkpt lat="43.35046" lon="6.12116">
        <ele>294.17164</ele>
        <time>2025-07-06T14:43:13.302Z</time>
      </trkpt>
      <trkpt lat="43.35067" lon="6.12058">
        <ele>297.204648</ele>
        <time>2025-07-06T14:43:45.270Z</time>
      </trkpt>
      <trkpt lat="43.35087" lon="6.12027">
        <ele>299.168428</ele>
        <time>2025-07-06T14:44:05.625Z</time>
      </trkpt>
      <trkpt lat="43.35105" lon="6.11974">
        <ele>301.920478</ele>
        <time>2025-07-06T14:44:34.226Z</time>
      </trkpt>
      <trkpt lat="43.35125" lon="6.11943">
        <ele>303.913721</ele>
        <time>2025-07-06T14:44:54.527Z</time>
      </trkpt>
      <trkpt lat="43.35133" lon="6.11944">
        <ele>304.428727</ele>
        <time>2025-07-06T14:44:59.827Z</time>
      </trkpt>
      <trkpt lat="43.35135" lon="6.11949">
        <ele>304.69265</ele>
        <time>2025-07-06T14:45:02.537Z</time>
      </trkpt>
      <trkpt lat="43.35134" lon="6.12014">
        <ele>307.797807</ele>
        <time>2025-07-06T14:45:34.431Z</time>
      </trkpt>
      <trkpt lat="43.35139" lon="6.12066">
        <ele>310.296142</ele>
        <time>2025-07-06T14:46:01.037Z</time>
      </trkpt>
      <trkpt lat="43.35141" lon="6.12153">
        <ele>314.408372</ele>
        <time>2025-07-06T14:46:48.922Z</time>
      </trkpt>
      <trkpt lat="43.35143" lon="6.12174">
        <ele>315.398348</ele>
        <time>2025-07-06T14:47:00.511Z</time>
      </trkpt>
      <trkpt lat="43.35146" lon="6.12186">
        <ele>315.959093</ele>
        <time>2025-07-06T14:47:06.904Z</time>
      </trkpt>
      <trkpt lat="43.35151" lon="6.12203">
        <ele>316.812021</ele>
        <time>2025-07-06T14:47:16.563Z</time>
      </trkpt>
      <trkpt lat="43.35174" lon="6.12249">
        <ele>319.360394</ele>
        <time>2025-07-06T14:47:44.484Z</time>
      </trkpt>
      <trkpt lat="43.35176" lon="6.12288">
        <ele>321.134668</ele>
        <time>2025-07-06T14:48:03.261Z</time>
      </trkpt>
      <trkpt lat="43.3518" lon="6.12318">
        <ele>322.57424</ele>
        <time>2025-07-06T14:48:18.183Z</time>
      </trkpt>
      <trkpt lat="43.35181" lon="6.12332">
        <ele>323.191744</ele>
        <time>2025-07-06T14:48:24.624Z</time>
      </trkpt>
      <trkpt lat="43.35176" lon="6.12347">
        <ele>323.927</ele>
        <time>2025-07-06T14:48:32.359Z</time>
      </trkpt>
      <trkpt lat="43.35167" lon="6.12356">
        <ele>324.627599</ele>
        <time>2025-07-06T14:48:39.722Z</time>
      </trkpt>
      <trkpt lat="43.35164" lon="6.12363">
        <ele>324.946952</ele>
        <time>2025-07-06T14:48:43.600Z</time>
      </trkpt>
      <trkpt lat="43.35161" lon="6.12385">
        <ele>325.757878</ele>
        <time>2025-07-06T14:48:53.745Z</time>
      </trkpt>
      <trkpt lat="43.35163" lon="6.12405">
        <ele>326.504494</ele>
        <time>2025-07-06T14:49:02.895Z</time>
      </trkpt>
      <trkpt lat="43.35175" lon="6.12446">
        <ele>328.118899</ele>
        <time>2025-07-06T14:49:22.183Z</time>
      </trkpt>
      <trkpt lat="43.35199" lon="6.12493">
        <ele>330.229518</ele>
        <time>2025-07-06T14:49:48.092Z</time>
      </trkpt>
      <trkpt lat="43.35199" lon="6.12517">
        <ele>331.12141</ele>
        <time>2025-07-06T14:49:59.159Z</time>
      </trkpt>
      <trkpt lat="43.352" lon="6.12567">
        <ele>332.968756</ele>
        <time>2025-07-06T14:50:22.177Z</time>
      </trkpt>
      <trkpt lat="43.35206" lon="6.12594">
        <ele>333.953362</ele>
        <time>2025-07-06T14:50:34.806Z</time>
      </trkpt>
      <trkpt lat="43.35222" lon="6.12639">
        <ele>335.541836</ele>
        <time>2025-07-06T14:50:57.054Z</time>
      </trkpt>
      <trkpt lat="43.35221" lon="6.12649">
        <ele>335.869897</ele>
        <time>2025-07-06T14:51:01.487Z</time>
      </trkpt>
      <trkpt lat="43.35207" lon="6.12677">
        <ele>336.936361</ele>
        <time>2025-07-06T14:51:16.258Z</time>
      </trkpt>
      <trkpt lat="43.352" lon="6.12697">
        <ele>337.633276</ele>
        <time>2025-07-06T14:51:26.196Z</time>
      </trkpt>
      <trkpt lat="43.35197" lon="6.12717">
        <ele>338.273514</ele>
        <time>2025-07-06T14:51:35.525Z</time>
      </trkpt>
      <trkpt lat="43.35199" lon="6.12739">
        <ele>338.962205</ele>
        <time>2025-07-06T14:51:45.146Z</time>
      </trkpt>
      <trkpt lat="43.35204" lon="6.12766">
        <ele>339.816654</ele>
        <time>2025-07-06T14:51:56.427Z</time>
      </trkpt>
      <trkpt lat="43.35217" lon="6.12792">
        <ele>340.822489</ele>
        <time>2025-07-06T14:52:09.586Z</time>
      </trkpt>
      <trkpt lat="43.35242" lon="6.1281">
        <ele>341.941172</ele>
        <time>2025-07-06T14:52:24.607Z</time>
      </trkpt>
      <trkpt lat="43.35255" lon="6.12828">
        <ele>342.599431</ele>
        <time>2025-07-06T14:52:34.189Z</time>
      </trkpt>
      <trkpt lat="43.35256" lon="6.12842">
        <ele>342.965214</ele>
        <time>2025-07-06T14:52:39.334Z</time>
      </trkpt>
      <trkpt lat="43.35252" lon="6.12851">
        <ele>343.237108</ele>
        <time>2025-07-06T14:52:43.140Z</time>
      </trkpt>
      <trkpt lat="43.35249" lon="6.12858">
        <ele>343.454048</ele>
        <time>2025-07-06T14:52:46.174Z</time>
      </trkpt>
      <trkpt lat="43.35246" lon="6.12879">
        <ele>343.994497</ele>
        <time>2025-07-06T14:52:53.871Z</time>
      </trkpt>
      <trkpt lat="43.35248" lon="6.1291">
        <ele>344.79091</ele>
        <time>2025-07-06T14:53:05.467Z</time>
      </trkpt>
      <trkpt lat="43.35238" lon="6.12964">
        <ele>346.242974</ele>
        <time>2025-07-06T14:53:26.432Z</time>
      </trkpt>
      <trkpt lat="43.35239" lon="6.12999">
        <ele>347.129897</ele>
        <time>2025-07-06T14:53:39.651Z</time>
      </trkpt>
      <trkpt lat="43.35249" lon="6.13113">
        <ele>352.111186</ele>
        <time>2025-07-06T14:54:34.818Z</time>
      </trkpt>
      <trkpt lat="43.35257" lon="6.13144">
        <ele>353.746411</ele>
        <time>2025-07-06T14:54:52.761Z</time>
      </trkpt>
      <trkpt lat="43.35267" lon="6.13169">
        <ele>355.146196</ele>
        <time>2025-07-06T14:55:08.649Z</time>
      </trkpt>
      <trkpt lat="43.35282" lon="6.13191">
        <ele>356.630362</ele>
        <time>2025-07-06T14:55:25.397Z</time>
      </trkpt>
      <trkpt lat="43.35285" lon="6.132">
        <ele>357.158714</ele>
        <time>2025-07-06T14:55:31.353Z</time>
      </trkpt>
      <trkpt lat="43.35272" lon="6.13245">
        <ele>359.562983</ele>
        <time>2025-07-06T14:55:58.463Z</time>
      </trkpt>
      <trkpt lat="43.35267" lon="6.13273">
        <ele>360.902002</ele>
        <time>2025-07-06T14:56:14.019Z</time>
      </trkpt>
      <trkpt lat="43.35278" lon="6.13404">
        <ele>367.039399</ele>
        <time>2025-07-06T14:57:22.829Z</time>
      </trkpt>
      <trkpt lat="43.35284" lon="6.13423">
        <ele>368.023997</ele>
        <time>2025-07-06T14:57:33.110Z</time>
      </trkpt>
      <trkpt lat="43.35306" lon="6.13453">
        <ele>369.996196</ele>
        <time>2025-07-06T14:57:53.212Z</time>
      </trkpt>
      <trkpt lat="43.35303" lon="6.13489">
        <ele>371.662387</ele>
        <time>2025-07-06T14:58:09.538Z</time>
      </trkpt>
      <trkpt lat="43.35312" lon="6.13524">
        <ele>372.924439</ele>
        <time>2025-07-06T14:58:26.041Z</time>
      </trkpt>
      <trkpt lat="43.35312" lon="6.13533">
        <ele>373.230851</ele>
        <time>2025-07-06T14:58:30.071Z</time>
      </trkpt>
      <trkpt lat="43.35292" lon="6.13548">
        <ele>374.276887</ele>
        <time>2025-07-06T14:58:43.980Z</time>
      </trkpt>
      <trkpt lat="43.35289" lon="6.13627">
        <ele>376.958131</ele>
        <time>2025-07-06T14:59:18.291Z</time>
      </trkpt>
      <trkpt lat="43.35292" lon="6.13637">
        <ele>377.313854</ele>
        <time>2025-07-06T14:59:22.772Z</time>
      </trkpt>
      <trkpt lat="43.35305" lon="6.13659">
        <ele>378.259612</ele>
        <time>2025-07-06T14:59:34.341Z</time>
      </trkpt>
      <trkpt lat="43.35309" lon="6.13673">
        <ele>378.769762</ele>
        <time>2025-07-06T14:59:40.854Z</time>
      </trkpt>
      <trkpt lat="43.35308" lon="6.1368">
        <ele>378.990612</ele>
        <time>2025-07-06T14:59:43.489Z</time>
      </trkpt>
      <trkpt lat="43.35317" lon="6.13691">
        <ele>379.562485</ele>
        <time>2025-07-06T14:59:50.854Z</time>
      </trkpt>
      <trkpt lat="43.35322" lon="6.13702">
        <ele>380.007596</ele>
        <time>2025-07-06T14:59:56.596Z</time>
      </trkpt>
      <trkpt lat="43.35316" lon="6.13717">
        <ele>380.578574</ele>
        <time>2025-07-06T15:00:03.772Z</time>
      </trkpt>
      <trkpt lat="43.35314" lon="6.1373">
        <ele>381.048282</ele>
        <time>2025-07-06T15:00:09.869Z</time>
      </trkpt>
      <trkpt lat="43.35329" lon="6.1378">
        <ele>382.886982</ele>
        <time>2025-07-06T15:00:34.511Z</time>
      </trkpt>
      <trkpt lat="43.35345" lon="6.13814">
        <ele>384.248967</ele>
        <time>2025-07-06T15:00:52.737Z</time>
      </trkpt>
      <trkpt lat="43.35367" lon="6.13841">
        <ele>385.625699</ele>
        <time>2025-07-06T15:01:10.072Z</time>
      </trkpt>
      <trkpt lat="43.35391" lon="6.13864">
        <ele>387.008812</ele>
        <time>2025-07-06T15:01:27.611Z</time>
      </trkpt>
      <trkpt lat="43.3542" lon="6.13883">
        <ele>388.516999</ele>
        <time>2025-07-06T15:01:46.806Z</time>
      </trkpt>
      <trkpt lat="43.35458" lon="6.13898">
        <ele>390.548572</ele>
        <time>2025-07-06T15:02:10.983Z</time>
      </trkpt>
      <trkpt lat="43.35463" lon="6.13905">
        <ele>390.912263</ele>
        <time>2025-07-06T15:02:15.411Z</time>
      </trkpt>
      <trkpt lat="43.35465" lon="6.13914">
        <ele>391.256127</ele>
        <time>2025-07-06T15:02:19.569Z</time>
      </trkpt>
      <trkpt lat="43.35463" lon="6.13923">
        <ele>391.587805</ele>
        <time>2025-07-06T15:02:23.664Z</time>
      </trkpt>
      <trkpt lat="43.35451" lon="6.13938">
        <ele>392.410652</ele>
        <time>2025-07-06T15:02:33.863Z</time>
      </trkpt>
      <trkpt lat="43.35448" lon="6.13945">
        <ele>392.725482</ele>
        <time>2025-07-06T15:02:37.781Z</time>
      </trkpt>
      <trkpt lat="43.35446" lon="6.13969">
        <ele>393.612028</ele>
        <time>2025-07-06T15:02:48.845Z</time>
      </trkpt>
      <trkpt lat="43.35452" lon="6.13992">
        <ele>394.513546</ele>
        <time>2025-07-06T15:03:00.162Z</time>
      </trkpt>
      <trkpt lat="43.35483" lon="6.1403">
        <ele>396.611422</ele>
        <time>2025-07-06T15:03:26.546Z</time>
      </trkpt>
      <trkpt lat="43.35537" lon="6.14086">
        <ele>399.808089</ele>
        <time>2025-07-06T15:04:09.525Z</time>
      </trkpt>
      <trkpt lat="43.35538" lon="6.14102">
        <ele>400.343289</ele>
        <time>2025-07-06T15:04:16.856Z</time>
      </trkpt>
      <trkpt lat="43.35495" lon="6.14143">
        <ele>402.719793</ele>
        <time>2025-07-06T15:04:47.542Z</time>
      </trkpt>
      <trkpt lat="43.35478" lon="6.14165">
        <ele>403.793933</ele>
        <time>2025-07-06T15:05:00.737Z</time>
      </trkpt>
      <trkpt lat="43.35458" lon="6.14197">
        <ele>405.228328</ele>
        <time>2025-07-06T15:05:18.140Z</time>
      </trkpt>
      <trkpt lat="43.35447" lon="6.14228">
        <ele>406.525377</ele>
        <time>2025-07-06T15:05:32.302Z</time>
      </trkpt>
      <trkpt lat="43.35447" lon="6.14239">
        <ele>406.979558</ele>
        <time>2025-07-06T15:05:36.846Z</time>
      </trkpt>
      <trkpt lat="43.3545" lon="6.14255">
        <ele>407.648477</ele>
        <time>2025-07-06T15:05:43.805Z</time>
      </trkpt>
      <trkpt lat="43.3547" lon="6.14277">
        <ele>409.112295</ele>
        <time>2025-07-06T15:05:59.662Z</time>
      </trkpt>
      <trkpt lat="43.35508" lon="6.14301">
        <ele>411.480579</ele>
        <time>2025-07-06T15:06:27.990Z</time>
      </trkpt>
      <trkpt lat="43.35534" lon="6.14322">
        <ele>413.218217</ele>
        <time>2025-07-06T15:06:49.272Z</time>
      </trkpt>
      <trkpt lat="43.35579" lon="6.14336">
        <ele>415.88427</ele>
        <time>2025-07-06T15:07:22.816Z</time>
      </trkpt>
      <trkpt lat="43.3559" lon="6.14344">
        <ele>416.47817</ele>
        <time>2025-07-06T15:07:31.688Z</time>
      </trkpt>
      <trkpt lat="43.35595" lon="6.14354">
        <ele>416.865693</ele>
        <time>2025-07-06T15:07:37.804Z</time>
      </trkpt>
      <trkpt lat="43.35591" lon="6.14378">
        <ele>417.653766</ele>
        <time>2025-07-06T15:07:49.989Z</time>
      </trkpt>
      <trkpt lat="43.35594" lon="6.14401">
        <ele>418.371863</ele>
        <time>2025-07-06T15:08:00.633Z</time>
      </trkpt>
      <trkpt lat="43.35608" lon="6.14441">
        <ele>419.798839</ele>
        <time>2025-07-06T15:08:20.340Z</time>
      </trkpt>
      <trkpt lat="43.3561" lon="6.14453">
        <ele>420.179518</ele>
        <time>2025-07-06T15:08:25.229Z</time>
      </trkpt>
      <trkpt lat="43.35609" lon="6.14462">
        <ele>420.501188</ele>
        <time>2025-07-06T15:08:29.370Z</time>
      </trkpt>
      <trkpt lat="43.35601" lon="6.14468">
        <ele>420.871144</ele>
        <time>2025-07-06T15:08:34.025Z</time>
      </trkpt>
      <trkpt lat="43.3557" lon="6.14469">
        <ele>422.236548</ele>
        <time>2025-07-06T15:08:49.719Z</time>
      </trkpt>
      <trkpt lat="43.35541" lon="6.14474">
        <ele>423.522109</ele>
        <time>2025-07-06T15:09:04.473Z</time>
      </trkpt>
      <trkpt lat="43.35512" lon="6.14486">
        <ele>424.996454</ele>
        <time>2025-07-06T15:09:19.874Z</time>
      </trkpt>
      <trkpt lat="43.35493" lon="6.14513">
        <ele>426.380657</ele>
        <time>2025-07-06T15:09:34.621Z</time>
      </trkpt>
      <trkpt lat="43.35493" lon="6.14535">
        <ele>427.219237</ele>
        <time>2025-07-06T15:09:44.077Z</time>
      </trkpt>
      <trkpt lat="43.35497" lon="6.1455">
        <ele>427.829263</ele>
        <time>2025-07-06T15:09:51.238Z</time>
      </trkpt>
      <trkpt lat="43.35509" lon="6.14586">
        <ele>429.308332</ele>
        <time>2025-07-06T15:10:09.836Z</time>
      </trkpt>
      <trkpt lat="43.35525" lon="6.14606">
        <ele>430.410654</ele>
        <time>2025-07-06T15:10:24.843Z</time>
      </trkpt>
      <trkpt lat="43.3554" lon="6.14622">
        <ele>431.3877</ele>
        <time>2025-07-06T15:10:38.872Z</time>
      </trkpt>
      <trkpt lat="43.35573" lon="6.14646">
        <ele>433.281901</ele>
        <time>2025-07-06T15:11:05.515Z</time>
      </trkpt>
      <trkpt lat="43.35596" lon="6.14673">
        <ele>434.723061</ele>
        <time>2025-07-06T15:11:26.524Z</time>
      </trkpt>
      <trkpt lat="43.35604" lon="6.14688">
        <ele>435.385465</ele>
        <time>2025-07-06T15:11:35.924Z</time>
      </trkpt>
      <trkpt lat="43.3561" lon="6.14707">
        <ele>436.085745</ele>
        <time>2025-07-06T15:11:45.687Z</time>
      </trkpt>
      <trkpt lat="43.35611" lon="6.1472">
        <ele>436.528497</ele>
        <time>2025-07-06T15:11:51.848Z</time>
      </trkpt>
      <trkpt lat="43.35609" lon="6.14733">
        <ele>436.982208</ele>
        <time>2025-07-06T15:11:57.925Z</time>
      </trkpt>
      <trkpt lat="43.356" lon="6.14752">
        <ele>437.764874</ele>
        <time>2025-07-06T15:12:08.186Z</time>
      </trkpt>
      <trkpt lat="43.35565" lon="6.14786">
        <ele>439.814375</ele>
        <time>2025-07-06T15:12:33.366Z</time>
      </trkpt>
      <trkpt lat="43.3556" lon="6.14797">
        <ele>440.244093</ele>
        <time>2025-07-06T15:12:38.308Z</time>
      </trkpt>
      <trkpt lat="43.35561" lon="6.14808">
        <ele>440.625568</ele>
        <time>2025-07-06T15:12:42.561Z</time>
      </trkpt>
      <trkpt lat="43.35566" lon="6.14822">
        <ele>441.158267</ele>
        <time>2025-07-06T15:12:48.273Z</time>
      </trkpt>
      <trkpt lat="43.35618" lon="6.14852">
        <ele>442.857453</ele>
        <time>2025-07-06T15:13:14.703Z</time>
      </trkpt>
      <trkpt lat="43.35677" lon="6.14875">
        <ele>444.454865</ele>
        <time>2025-07-06T15:13:43.899Z</time>
      </trkpt>
      <trkpt lat="43.3569" lon="6.14882">
        <ele>444.833743</ele>
        <time>2025-07-06T15:13:50.956Z</time>
      </trkpt>
      <trkpt lat="43.35726" lon="6.14924">
        <ele>446.055489</ele>
        <time>2025-07-06T15:14:14.326Z</time>
      </trkpt>
      <trkpt lat="43.35759" lon="6.14983">
        <ele>448.346566</ele>
        <time>2025-07-06T15:14:44.212Z</time>
      </trkpt>
      <trkpt lat="43.35783" lon="6.15048">
        <ele>450.79775</ele>
        <time>2025-07-06T15:15:16.646Z</time>
      </trkpt>
      <trkpt lat="43.35874" lon="6.15152">
        <ele>456.157939</ele>
        <time>2025-07-06T15:16:33.127Z</time>
      </trkpt>
      <trkpt lat="43.35886" lon="6.15171">
        <ele>456.92059</ele>
        <time>2025-07-06T15:16:43.897Z</time>
      </trkpt>
      <trkpt lat="43.35893" lon="6.15192">
        <ele>457.609476</ele>
        <time>2025-07-06T15:16:53.394Z</time>
      </trkpt>
      <trkpt lat="43.35895" lon="6.1521">
        <ele>458.160651</ele>
        <time>2025-07-06T15:17:01.140Z</time>
      </trkpt>
      <trkpt lat="43.35892" lon="6.15263">
        <ele>459.781156</ele>
        <time>2025-07-06T15:17:24.504Z</time>
      </trkpt>
      <trkpt lat="43.35896" lon="6.15288">
        <ele>460.564821</ele>
        <time>2025-07-06T15:17:35.946Z</time>
      </trkpt>
      <trkpt lat="43.35906" lon="6.15304">
        <ele>461.212606</ele>
        <time>2025-07-06T15:17:44.627Z</time>
      </trkpt>
      <trkpt lat="43.3592" lon="6.15315">
        <ele>461.88165</ele>
        <time>2025-07-06T15:17:52.860Z</time>
      </trkpt>
      <trkpt lat="43.35959" lon="6.15313">
        <ele>462.458284</ele>
        <time>2025-07-06T15:18:11.355Z</time>
      </trkpt>
      <trkpt lat="43.35979" lon="6.15309">
        <ele>462.572822</ele>
        <time>2025-07-06T15:18:20.398Z</time>
      </trkpt>
      <trkpt lat="43.35984" lon="6.15318">
        <ele>462.617728</ele>
        <time>2025-07-06T15:18:24.105Z</time>
      </trkpt>
      <trkpt lat="43.35983" lon="6.15327">
        <ele>462.654966</ele>
        <time>2025-07-06T15:18:26.907Z</time>
      </trkpt>
      <trkpt lat="43.35964" lon="6.15412">
        <ele>463.015547</ele>
        <time>2025-07-06T15:18:53.608Z</time>
      </trkpt>
      <trkpt lat="43.35964" lon="6.15428">
        <ele>463.082884</ele>
        <time>2025-07-06T15:18:57.719Z</time>
      </trkpt>
      <trkpt lat="43.35973" lon="6.15465">
        <ele>463.24183</ele>
        <time>2025-07-06T15:19:06.977Z</time>
      </trkpt>
      <trkpt lat="43.35971" lon="6.15482">
        <ele>463.283399</ele>
        <time>2025-07-06T15:19:10.754Z</time>
      </trkpt>
      <trkpt lat="43.35963" lon="6.15506">
        <ele>462.940207</ele>
        <time>2025-07-06T15:19:16.908Z</time>
      </trkpt>
      <trkpt lat="43.35956" lon="6.15518">
        <ele>462.742796</ele>
        <time>2025-07-06T15:19:20.583Z</time>
      </trkpt>
      <trkpt lat="43.35948" lon="6.15526">
        <ele>462.574442</ele>
        <time>2025-07-06T15:19:23.768Z</time>
      </trkpt>
      <trkpt lat="43.35938" lon="6.15539">
        <ele>462.33173</ele>
        <time>2025-07-06T15:19:28.456Z</time>
      </trkpt>
      <trkpt lat="43.35929" lon="6.15566">
        <ele>461.956456</ele>
        <time>2025-07-06T15:19:35.872Z</time>
      </trkpt>
      <trkpt lat="43.35926" lon="6.15581">
        <ele>461.755248</ele>
        <time>2025-07-06T15:19:39.894Z</time>
      </trkpt>
      <trkpt lat="43.3593" lon="6.15597">
        <ele>461.537505</ele>
        <time>2025-07-06T15:19:44.201Z</time>
      </trkpt>
      <trkpt lat="43.35938" lon="6.15614">
        <ele>461.285033</ele>
        <time>2025-07-06T15:19:49.181Z</time>
      </trkpt>
      <trkpt lat="43.35954" lon="6.15629">
        <ele>460.94379</ele>
        <time>2025-07-06T15:19:55.711Z</time>
      </trkpt>
      <trkpt lat="43.35966" lon="6.15632">
        <ele>460.735286</ele>
        <time>2025-07-06T15:19:59.587Z</time>
      </trkpt>
      <trkpt lat="43.35981" lon="6.15628">
        <ele>460.463868</ele>
        <time>2025-07-06T15:20:04.574Z</time>
      </trkpt>
      <trkpt lat="43.36006" lon="6.15628">
        <ele>459.830298</ele>
        <time>2025-07-06T15:20:12.559Z</time>
      </trkpt>
      <trkpt lat="43.36038" lon="6.15625">
        <ele>458.349096</ele>
        <time>2025-07-06T15:20:22.475Z</time>
      </trkpt>
      <trkpt lat="43.3605" lon="6.15624">
        <ele>457.774146</ele>
        <time>2025-07-06T15:20:26.209Z</time>
      </trkpt>
      <trkpt lat="43.36061" lon="6.15625">
        <ele>457.303656</ele>
        <time>2025-07-06T15:20:29.253Z</time>
      </trkpt>
      <trkpt lat="43.3607" lon="6.15634">
        <ele>456.767014</ele>
        <time>2025-07-06T15:20:32.652Z</time>
      </trkpt>
      <trkpt lat="43.36078" lon="6.15653">
        <ele>456.050195</ele>
        <time>2025-07-06T15:20:37.109Z</time>
      </trkpt>
      <trkpt lat="43.36079" lon="6.15671">
        <ele>455.425546</ele>
        <time>2025-07-06T15:20:40.933Z</time>
      </trkpt>
      <trkpt lat="43.36079" lon="6.15697">
        <ele>454.581843</ele>
        <time>2025-07-06T15:20:46.102Z</time>
      </trkpt>
      <trkpt lat="43.3607" lon="6.15762">
        <ele>452.369696</ele>
        <time>2025-07-06T15:20:59.650Z</time>
      </trkpt>
      <trkpt lat="43.3607" lon="6.15779">
        <ele>451.819754</ele>
        <time>2025-07-06T15:21:03.196Z</time>
      </trkpt>
      <trkpt lat="43.36072" lon="6.15796">
        <ele>451.364821</ele>
        <time>2025-07-06T15:21:06.858Z</time>
      </trkpt>
      <trkpt lat="43.3608" lon="6.15816">
        <ele>450.796028</ele>
        <time>2025-07-06T15:21:11.490Z</time>
      </trkpt>
      <trkpt lat="43.36106" lon="6.15848">
        <ele>449.559133</ele>
        <time>2025-07-06T15:21:21.685Z</time>
      </trkpt>
      <trkpt lat="43.36115" lon="6.15853">
        <ele>449.217635</ele>
        <time>2025-07-06T15:21:24.546Z</time>
      </trkpt>
      <trkpt lat="43.36137" lon="6.15854">
        <ele>448.433331</ele>
        <time>2025-07-06T15:21:31.189Z</time>
      </trkpt>
      <trkpt lat="43.36174" lon="6.15845">
        <ele>447.113086</ele>
        <time>2025-07-06T15:21:42.865Z</time>
      </trkpt>
      <trkpt lat="43.36226" lon="6.15847">
        <ele>445.429409</ele>
        <time>2025-07-06T15:22:00.384Z</time>
      </trkpt>
      <trkpt lat="43.36232" lon="6.15847">
        <ele>445.342459</ele>
        <time>2025-07-06T15:22:02.492Z</time>
      </trkpt>
      <trkpt lat="43.36243" lon="6.15834">
        <ele>445.127914</ele>
        <time>2025-07-06T15:22:07.515Z</time>
      </trkpt>
      <trkpt lat="43.36249" lon="6.15818">
        <ele>444.94419</ele>
        <time>2025-07-06T15:22:11.769Z</time>
      </trkpt>
      <trkpt lat="43.36253" lon="6.15797">
        <ele>444.708395</ele>
        <time>2025-07-06T15:22:17.211Z</time>
      </trkpt>
      <trkpt lat="43.36255" lon="6.15776">
        <ele>444.489637</ele>
        <time>2025-07-06T15:22:22.252Z</time>
      </trkpt>
      <trkpt lat="43.36246" lon="6.15709">
        <ele>443.770433</ele>
        <time>2025-07-06T15:22:38.814Z</time>
      </trkpt>
      <trkpt lat="43.3625" lon="6.157">
        <ele>443.666663</ele>
        <time>2025-07-06T15:22:41.192Z</time>
      </trkpt>
      <trkpt lat="43.36279" lon="6.15672">
        <ele>443.144615</ele>
        <time>2025-07-06T15:22:53.486Z</time>
      </trkpt>
      <trkpt lat="43.36287" lon="6.15651">
        <ele>442.920409</ele>
        <time>2025-07-06T15:22:59.483Z</time>
      </trkpt>
      <trkpt lat="43.36295" lon="6.1561">
        <ele>442.729766</ele>
        <time>2025-07-06T15:23:09.805Z</time>
      </trkpt>
      <trkpt lat="43.36289" lon="6.15584">
        <ele>442.606961</ele>
        <time>2025-07-06T15:23:16.471Z</time>
      </trkpt>
      <trkpt lat="43.36287" lon="6.1556">
        <ele>442.494369</ele>
        <time>2025-07-06T15:23:22.635Z</time>
      </trkpt>
      <trkpt lat="43.36291" lon="6.15547">
        <ele>442.435328</ele>
        <time>2025-07-06T15:23:25.933Z</time>
      </trkpt>
      <trkpt lat="43.36305" lon="6.1552">
        <ele>442.278139</ele>
        <time>2025-07-06T15:23:34.997Z</time>
      </trkpt>
      <trkpt lat="43.36333" lon="6.15483">
        <ele>442.036602</ele>
        <time>2025-07-06T15:23:49.286Z</time>
      </trkpt>
      <trkpt lat="43.36353" lon="6.15474">
        <ele>441.909002</ele>
        <time>2025-07-06T15:23:57.177Z</time>
      </trkpt>
      <trkpt lat="43.3638" lon="6.15457">
        <ele>441.402591</ele>
        <time>2025-07-06T15:24:08.757Z</time>
      </trkpt>
      <trkpt lat="43.36392" lon="6.15441">
        <ele>440.916441</ele>
        <time>2025-07-06T15:24:14.943Z</time>
      </trkpt>
      <trkpt lat="43.36416" lon="6.15392">
        <ele>439.732339</ele>
        <time>2025-07-06T15:24:28.925Z</time>
      </trkpt>
      <trkpt lat="43.36454" lon="6.15361">
        <ele>438.487364</ele>
        <time>2025-07-06T15:24:42.611Z</time>
      </trkpt>
      <trkpt lat="43.3647" lon="6.15343">
        <ele>437.90759</ele>
        <time>2025-07-06T15:24:48.734Z</time>
      </trkpt>
      <trkpt lat="43.36479" lon="6.15338">
        <ele>437.643316</ele>
        <time>2025-07-06T15:24:51.499Z</time>
      </trkpt>
      <trkpt lat="43.36489" lon="6.15344">
        <ele>437.351123</ele>
        <time>2025-07-06T15:24:54.510Z</time>
      </trkpt>
      <trkpt lat="43.365" lon="6.15363">
        <ele>436.854502</ele>
        <time>2025-07-06T15:24:59.643Z</time>
      </trkpt>
      <trkpt lat="43.36506" lon="6.15387">
        <ele>435.995687</ele>
        <time>2025-07-06T15:25:04.912Z</time>
      </trkpt>
      <trkpt lat="43.3651" lon="6.15412">
        <ele>435.081308</ele>
        <time>2025-07-06T15:25:10.165Z</time>
      </trkpt>
      <trkpt lat="43.36511" lon="6.15535">
        <ele>430.663192</ele>
        <time>2025-07-06T15:25:35.555Z</time>
      </trkpt>
      <trkpt lat="43.36518" lon="6.1563">
        <ele>427.492766</ele>
        <time>2025-07-06T15:25:55.897Z</time>
      </trkpt>
      <trkpt lat="43.36541" lon="6.15764">
        <ele>424.240774</ele>
        <time>2025-07-06T15:26:26.713Z</time>
      </trkpt>
      <trkpt lat="43.36546" lon="6.15776">
        <ele>423.914256</ele>
        <time>2025-07-06T15:26:29.871Z</time>
      </trkpt>
      <trkpt lat="43.36552" lon="6.15782">
        <ele>423.652039</ele>
        <time>2025-07-06T15:26:32.400Z</time>
      </trkpt>
      <trkpt lat="43.3658" lon="6.15778">
        <ele>422.759742</ele>
        <time>2025-07-06T15:26:40.898Z</time>
      </trkpt>
      <trkpt lat="43.36602" lon="6.1577">
        <ele>422.072711</ele>
        <time>2025-07-06T15:26:47.797Z</time>
      </trkpt>
      <trkpt lat="43.36637" lon="6.158">
        <ele>421.683093</ele>
        <time>2025-07-06T15:27:00.919Z</time>
      </trkpt>
      <trkpt lat="43.36657" lon="6.15811">
        <ele>421.488112</ele>
        <time>2025-07-06T15:27:07.879Z</time>
      </trkpt>
      <trkpt lat="43.36675" lon="6.15865">
        <ele>421.090377</ele>
        <time>2025-07-06T15:27:23.456Z</time>
      </trkpt>
      <trkpt lat="43.3669" lon="6.15888">
        <ele>420.875294</ele>
        <time>2025-07-06T15:27:33.483Z</time>
      </trkpt>
      <trkpt lat="43.36712" lon="6.15877">
        <ele>420.657999</ele>
        <time>2025-07-06T15:27:43.813Z</time>
      </trkpt>
      <trkpt lat="43.36748" lon="6.15823">
        <ele>419.574487</ele>
        <time>2025-07-06T15:28:02.785Z</time>
      </trkpt>
      <trkpt lat="43.36762" lon="6.15798">
        <ele>418.875147</ele>
        <time>2025-07-06T15:28:10.696Z</time>
      </trkpt>
      <trkpt lat="43.36769" lon="6.15778">
        <ele>418.366101</ele>
        <time>2025-07-06T15:28:16.238Z</time>
      </trkpt>
      <trkpt lat="43.36777" lon="6.15774">
        <ele>418.107254</ele>
        <time>2025-07-06T15:28:18.951Z</time>
      </trkpt>
      <trkpt lat="43.36786" lon="6.15788">
        <ele>417.704794</ele>
        <time>2025-07-06T15:28:23.100Z</time>
      </trkpt>
      <trkpt lat="43.368" lon="6.1582">
        <ele>416.868252</ele>
        <time>2025-07-06T15:28:31.316Z</time>
      </trkpt>
      <trkpt lat="43.36807" lon="6.15842">
        <ele>416.329721</ele>
        <time>2025-07-06T15:28:36.359Z</time>
      </trkpt>
      <trkpt lat="43.36808" lon="6.1591">
        <ele>414.825141</ele>
        <time>2025-07-06T15:28:49.951Z</time>
      </trkpt>
      <trkpt lat="43.36813" lon="6.15945">
        <ele>414.079515</ele>
        <time>2025-07-06T15:28:57.182Z</time>
      </trkpt>
      <trkpt lat="43.36815" lon="6.15996">
        <ele>413.03227</ele>
        <time>2025-07-06T15:29:08.089Z</time>
      </trkpt>
      <trkpt lat="43.36815" lon="6.16088">
        <ele>411.118501</ele>
        <time>2025-07-06T15:29:30.113Z</time>
      </trkpt>
      <trkpt lat="43.36821" lon="6.16128">
        <ele>410.281067</ele>
        <time>2025-07-06T15:29:40.606Z</time>
      </trkpt>
      <trkpt lat="43.36823" lon="6.16165">
        <ele>409.618884</ele>
        <time>2025-07-06T15:29:50.266Z</time>
      </trkpt>
      <trkpt lat="43.36844" lon="6.16203">
        <ele>409.070458</ele>
        <time>2025-07-06T15:30:01.997Z</time>
      </trkpt>
      <trkpt lat="43.36849" lon="6.16211">
        <ele>408.941302</ele>
        <time>2025-07-06T15:30:04.678Z</time>
      </trkpt>
      <trkpt lat="43.3685" lon="6.16213">
        <ele>408.917696</ele>
        <time>2025-07-06T15:30:05.161Z</time>
      </trkpt>
      <trkpt lat="43.3686" lon="6.1624">
        <ele>408.567685</ele>
        <time>2025-07-06T15:30:12.354Z</time>
      </trkpt>
      <trkpt lat="43.36849" lon="6.16374">
        <ele>407.006521</ele>
        <time>2025-07-06T15:30:44.018Z</time>
      </trkpt>
      <trkpt lat="43.36833" lon="6.16437">
        <ele>406.849182</ele>
        <time>2025-07-06T15:31:00.669Z</time>
      </trkpt>
      <trkpt lat="43.36835" lon="6.16468">
        <ele>406.818566</ele>
        <time>2025-07-06T15:31:08.916Z</time>
      </trkpt>
      <trkpt lat="43.36841" lon="6.1649">
        <ele>406.794626</ele>
        <time>2025-07-06T15:31:15.741Z</time>
      </trkpt>
      <trkpt lat="43.36881" lon="6.16512">
        <ele>406.736316</ele>
        <time>2025-07-06T15:31:33.510Z</time>
      </trkpt>
      <trkpt lat="43.36891" lon="6.16526">
        <ele>406.716375</ele>
        <time>2025-07-06T15:31:39.589Z</time>
      </trkpt>
      <trkpt lat="43.36898" lon="6.16543">
        <ele>406.697368</ele>
        <time>2025-07-06T15:31:45.309Z</time>
      </trkpt>
      <trkpt lat="43.36894" lon="6.16614">
        <ele>406.343805</ele>
        <time>2025-07-06T15:32:04.934Z</time>
      </trkpt>
      <trkpt lat="43.36894" lon="6.16699">
        <ele>405.562325</ele>
        <time>2025-07-06T15:32:25.620Z</time>
      </trkpt>
      <trkpt lat="43.36887" lon="6.16743">
        <ele>405.138623</ele>
        <time>2025-07-06T15:32:36.458Z</time>
      </trkpt>
      <trkpt lat="43.36868" lon="6.16783">
        <ele>404.700584</ele>
        <time>2025-07-06T15:32:47.671Z</time>
      </trkpt>
      <trkpt lat="43.36849" lon="6.16835">
        <ele>404.078986</ele>
        <time>2025-07-06T15:33:01.609Z</time>
      </trkpt>
      <trkpt lat="43.36821" lon="6.16977">
        <ele>402.148178</ele>
        <time>2025-07-06T15:33:36.996Z</time>
      </trkpt>
      <trkpt lat="43.36806" lon="6.17079">
        <ele>400.616201</ele>
        <time>2025-07-06T15:34:01.762Z</time>
      </trkpt>
      <trkpt lat="43.36813" lon="6.17121">
        <ele>399.747864</ele>
        <time>2025-07-06T15:34:12.180Z</time>
      </trkpt>
      <trkpt lat="43.36822" lon="6.17152">
        <ele>399.10384</ele>
        <time>2025-07-06T15:34:19.795Z</time>
      </trkpt>
      <trkpt lat="43.36843" lon="6.17183">
        <ele>398.255293</ele>
        <time>2025-07-06T15:34:29.648Z</time>
      </trkpt>
      <trkpt lat="43.36846" lon="6.17199">
        <ele>397.927522</ele>
        <time>2025-07-06T15:34:33.393Z</time>
      </trkpt>
      <trkpt lat="43.3682" lon="6.17258">
        <ele>396.553474</ele>
        <time>2025-07-06T15:34:48.863Z</time>
      </trkpt>
      <trkpt lat="43.36785" lon="6.17319">
        <ele>394.890238</ele>
        <time>2025-07-06T15:35:05.447Z</time>
      </trkpt>
      <trkpt lat="43.36754" lon="6.1738">
        <ele>393.252294</ele>
        <time>2025-07-06T15:35:21.080Z</time>
      </trkpt>
      <trkpt lat="43.36753" lon="6.17417">
        <ele>392.432078</ele>
        <time>2025-07-06T15:35:29.073Z</time>
      </trkpt>
      <trkpt lat="43.36758" lon="6.17453">
        <ele>391.612665</ele>
        <time>2025-07-06T15:35:37.630Z</time>
      </trkpt>
      <trkpt lat="43.36746" lon="6.1751">
        <ele>390.957441</ele>
        <time>2025-07-06T15:35:53.558Z</time>
      </trkpt>
      <trkpt lat="43.36732" lon="6.17548">
        <ele>391.316185</ele>
        <time>2025-07-06T15:36:07.942Z</time>
      </trkpt>
      <trkpt lat="43.36728" lon="6.1757">
        <ele>391.509577</ele>
        <time>2025-07-06T15:36:16.055Z</time>
      </trkpt>
      <trkpt lat="43.36736" lon="6.17604">
        <ele>391.815288</ele>
        <time>2025-07-06T15:36:28.998Z</time>
      </trkpt>
      <trkpt lat="43.36723" lon="6.17637">
        <ele>392.131802</ele>
        <time>2025-07-06T15:36:42.190Z</time>
      </trkpt>
      <trkpt lat="43.36702" lon="6.17676">
        <ele>392.547022</ele>
        <time>2025-07-06T15:36:59.311Z</time>
      </trkpt>
      <trkpt lat="43.36635" lon="6.177">
        <ele>392.129528</ele>
        <time>2025-07-06T15:37:26.305Z</time>
      </trkpt>
      <trkpt lat="43.36623" lon="6.17714">
        <ele>391.835019</ele>
        <time>2025-07-06T15:37:31.356Z</time>
      </trkpt>
      <trkpt lat="43.36614" lon="6.17733">
        <ele>391.525728</ele>
        <time>2025-07-06T15:37:36.384Z</time>
      </trkpt>
      <trkpt lat="43.36597" lon="6.1779">
        <ele>390.699217</ele>
        <time>2025-07-06T15:37:49.536Z</time>
      </trkpt>
      <trkpt lat="43.36562" lon="6.17824">
        <ele>389.913229</ele>
        <time>2025-07-06T15:38:05.349Z</time>
      </trkpt>
      <trkpt lat="43.36542" lon="6.17839">
        <ele>389.397967</ele>
        <time>2025-07-06T15:38:13.082Z</time>
      </trkpt>
      <trkpt lat="43.36529" lon="6.17867">
        <ele>388.345064</ele>
        <time>2025-07-06T15:38:20.249Z</time>
      </trkpt>
      <trkpt lat="43.36523" lon="6.17889">
        <ele>387.628009</ele>
        <time>2025-07-06T15:38:25.141Z</time>
      </trkpt>
      <trkpt lat="43.36526" lon="6.17898">
        <ele>387.322363</ele>
        <time>2025-07-06T15:38:27.184Z</time>
      </trkpt>
      <trkpt lat="43.36529" lon="6.17925">
        <ele>386.434287</ele>
        <time>2025-07-06T15:38:33.332Z</time>
      </trkpt>
      <trkpt lat="43.36527" lon="6.17936">
        <ele>386.096574</ele>
        <time>2025-07-06T15:38:35.647Z</time>
      </trkpt>
      <trkpt lat="43.36519" lon="6.17948">
        <ele>385.560087</ele>
        <time>2025-07-06T15:38:39.408Z</time>
      </trkpt>
      <trkpt lat="43.36506" lon="6.17957">
        <ele>384.926365</ele>
        <time>2025-07-06T15:38:43.869Z</time>
      </trkpt>
      <trkpt lat="43.36488" lon="6.17975">
        <ele>383.97744</ele>
        <time>2025-07-06T15:38:50.631Z</time>
      </trkpt>
      <trkpt lat="43.36482" lon="6.17987">
        <ele>383.532687</ele>
        <time>2025-07-06T15:38:53.952Z</time>
      </trkpt>
      <trkpt lat="43.36481" lon="6.18007">
        <ele>382.894226</ele>
        <time>2025-07-06T15:38:58.470Z</time>
      </trkpt>
      <trkpt lat="43.36493" lon="6.18086">
        <ele>379.007666</ele>
        <time>2025-07-06T15:39:13.908Z</time>
      </trkpt>
      <trkpt lat="43.36484" lon="6.18119">
        <ele>376.798627</ele>
        <time>2025-07-06T15:39:20.726Z</time>
      </trkpt>
      <trkpt lat="43.36476" lon="6.18175">
        <ele>373.298133</ele>
        <time>2025-07-06T15:39:31.777Z</time>
      </trkpt>
      <trkpt lat="43.36459" lon="6.18214">
        <ele>370.433653</ele>
        <time>2025-07-06T15:39:40.582Z</time>
      </trkpt>
      <trkpt lat="43.36451" lon="6.18312">
        <ele>364.927795</ele>
        <time>2025-07-06T15:39:58.837Z</time>
      </trkpt>
      <trkpt lat="43.36453" lon="6.18334">
        <ele>363.906943</ele>
        <time>2025-07-06T15:40:03.030Z</time>
      </trkpt>
      <trkpt lat="43.36449" lon="6.18361">
        <ele>362.675515</ele>
        <time>2025-07-06T15:40:08.139Z</time>
      </trkpt>
      <trkpt lat="43.36436" lon="6.18388">
        <ele>361.211545</ele>
        <time>2025-07-06T15:40:14.307Z</time>
      </trkpt>
      <trkpt lat="43.36425" lon="6.18403">
        <ele>360.21493</ele>
        <time>2025-07-06T15:40:18.628Z</time>
      </trkpt>
      <trkpt lat="43.36383" lon="6.18435">
        <ele>357.241972</ele>
        <time>2025-07-06T15:40:32.744Z</time>
      </trkpt>
      <trkpt lat="43.36373" lon="6.18458">
        <ele>356.028383</ele>
        <time>2025-07-06T15:40:39.047Z</time>
      </trkpt>
      <trkpt lat="43.3637" lon="6.18479">
        <ele>355.180156</ele>
        <time>2025-07-06T15:40:44.382Z</time>
      </trkpt>
      <trkpt lat="43.36369" lon="6.18525">
        <ele>354.707468</ele>
        <time>2025-07-06T15:40:56.147Z</time>
      </trkpt>
      <trkpt lat="43.36371" lon="6.18548">
        <ele>354.470037</ele>
        <time>2025-07-06T15:41:02.422Z</time>
      </trkpt>
      <trkpt lat="43.3638" lon="6.18558">
        <ele>354.313504</ele>
        <time>2025-07-06T15:41:06.797Z</time>
      </trkpt>
      <trkpt lat="43.36421" lon="6.18542">
        <ele>353.705526</ele>
        <time>2025-07-06T15:41:24.298Z</time>
      </trkpt>
      <trkpt lat="43.36476" lon="6.18532">
        <ele>352.924667</ele>
        <time>2025-07-06T15:41:44.028Z</time>
      </trkpt>
      <trkpt lat="43.36506" lon="6.18518">
        <ele>351.454071</ele>
        <time>2025-07-06T15:41:53.659Z</time>
      </trkpt>
      <trkpt lat="43.36613" lon="6.18533">
        <ele>342.320663</ele>
        <time>2025-07-06T15:42:22.051Z</time>
      </trkpt>
      <trkpt lat="43.36632" lon="6.18545">
        <ele>340.513772</ele>
        <time>2025-07-06T15:42:27.361Z</time>
      </trkpt>
      <trkpt lat="43.36645" lon="6.18565">
        <ele>338.881271</ele>
        <time>2025-07-06T15:42:32.131Z</time>
      </trkpt>
      <trkpt lat="43.36649" lon="6.18581">
        <ele>337.830849</ele>
        <time>2025-07-06T15:42:35.214Z</time>
      </trkpt>
      <trkpt lat="43.36649" lon="6.18609">
        <ele>336.098785</ele>
        <time>2025-07-06T15:42:40.343Z</time>
      </trkpt>
      <trkpt lat="43.36644" lon="6.18642">
        <ele>334.015816</ele>
        <time>2025-07-06T15:42:46.572Z</time>
      </trkpt>
      <trkpt lat="43.3663" lon="6.18675">
        <ele>331.701142</ele>
        <time>2025-07-06T15:42:53.563Z</time>
      </trkpt>
      <trkpt lat="43.36618" lon="6.18719">
        <ele>328.820721</ele>
        <time>2025-07-06T15:43:02.654Z</time>
      </trkpt>
      <trkpt lat="43.36611" lon="6.18756">
        <ele>326.523646</ele>
        <time>2025-07-06T15:43:10.291Z</time>
      </trkpt>
      <trkpt lat="43.36612" lon="6.18772">
        <ele>325.53753</ele>
        <time>2025-07-06T15:43:13.655Z</time>
      </trkpt>
      <trkpt lat="43.36619" lon="6.18784">
        <ele>324.60592</ele>
        <time>2025-07-06T15:43:16.837Z</time>
      </trkpt>
      <trkpt lat="43.36623" lon="6.18784">
        <ele>324.211954</ele>
        <time>2025-07-06T15:43:18.189Z</time>
      </trkpt>
      <trkpt lat="43.3664" lon="6.18774">
        <ele>322.735957</ele>
        <time>2025-07-06T15:43:23.242Z</time>
      </trkpt>
      <trkpt lat="43.36666" lon="6.18765">
        <ele>320.670924</ele>
        <time>2025-07-06T15:43:31.095Z</time>
      </trkpt>
      <trkpt lat="43.3667" lon="6.1877">
        <ele>320.319952</ele>
        <time>2025-07-06T15:43:32.449Z</time>
      </trkpt>
      <trkpt lat="43.36668" lon="6.18778">
        <ele>319.884083</ele>
        <time>2025-07-06T15:43:34.154Z</time>
      </trkpt>
      <trkpt lat="43.36638" lon="6.18805">
        <ele>317.178455</ele>
        <time>2025-07-06T15:43:44.413Z</time>
      </trkpt>
      <trkpt lat="43.3663" lon="6.1883">
        <ele>315.71843</ele>
        <time>2025-07-06T15:43:49.805Z</time>
      </trkpt>
      <trkpt lat="43.36574" lon="6.18904">
        <ele>309.982006</ele>
        <time>2025-07-06T15:44:09.986Z</time>
      </trkpt>
      <trkpt lat="43.36546" lon="6.18961">
        <ele>307.205326</ele>
        <time>2025-07-06T15:44:22.988Z</time>
      </trkpt>
      <trkpt lat="43.36542" lon="6.19007">
        <ele>305.542256</ele>
        <time>2025-07-06T15:44:32.226Z</time>
      </trkpt>
      <trkpt lat="43.36547" lon="6.19114">
        <ele>301.719489</ele>
        <time>2025-07-06T15:44:55.394Z</time>
      </trkpt>
      <trkpt lat="43.36559" lon="6.19159">
        <ele>300.112577</ele>
        <time>2025-07-06T15:45:07.302Z</time>
      </trkpt>
      <trkpt lat="43.36589" lon="6.19299">
        <ele>299.18081</ele>
        <time>2025-07-06T15:45:47.957Z</time>
      </trkpt>
      <trkpt lat="43.36617" lon="6.19344">
        <ele>298.802513</ele>
        <time>2025-07-06T15:46:02.987Z</time>
      </trkpt>
      <trkpt lat="43.36624" lon="6.19361">
        <ele>298.676615</ele>
        <time>2025-07-06T15:46:07.700Z</time>
      </trkpt>
      <trkpt lat="43.36626" lon="6.19392">
        <ele>298.268195</ele>
        <time>2025-07-06T15:46:14.901Z</time>
      </trkpt>
      <trkpt lat="43.36623" lon="6.19422">
        <ele>297.535924</ele>
        <time>2025-07-06T15:46:21.778Z</time>
      </trkpt>
      <trkpt lat="43.36601" lon="6.19449">
        <ele>296.558663</ele>
        <time>2025-07-06T15:46:30.819Z</time>
      </trkpt>
      <trkpt lat="43.36569" lon="6.19477">
        <ele>295.291407</ele>
        <time>2025-07-06T15:46:42.427Z</time>
      </trkpt>
      <trkpt lat="43.36562" lon="6.19503">
        <ele>294.635746</ele>
        <time>2025-07-06T15:46:48.379Z</time>
      </trkpt>
      <trkpt lat="43.3656" lon="6.19531">
        <ele>293.944425</ele>
        <time>2025-07-06T15:46:54.633Z</time>
      </trkpt>
      <trkpt lat="43.36564" lon="6.19554">
        <ele>293.363195</ele>
        <time>2025-07-06T15:46:59.883Z</time>
      </trkpt>
      <trkpt lat="43.36573" lon="6.19574">
        <ele>292.785533</ele>
        <time>2025-07-06T15:47:05.101Z</time>
      </trkpt>
      <trkpt lat="43.36587" lon="6.19593">
        <ele>291.674072</ele>
        <time>2025-07-06T15:47:10.768Z</time>
      </trkpt>
      <trkpt lat="43.36603" lon="6.19607">
        <ele>290.298673</ele>
        <time>2025-07-06T15:47:16.436Z</time>
      </trkpt>
      <trkpt lat="43.3662" lon="6.1961">
        <ele>289.057803</ele>
        <time>2025-07-06T15:47:21.496Z</time>
      </trkpt>
      <trkpt lat="43.36638" lon="6.19609">
        <ele>287.816258</ele>
        <time>2025-07-06T15:47:26.483Z</time>
      </trkpt>
      <trkpt lat="43.36657" lon="6.19601">
        <ele>286.392243</ele>
        <time>2025-07-06T15:47:32.092Z</time>
      </trkpt>
      <trkpt lat="43.36662" lon="6.19604">
        <ele>285.985424</ele>
        <time>2025-07-06T15:47:33.661Z</time>
      </trkpt>
      <trkpt lat="43.3667" lon="6.19615">
        <ele>285.222185</ele>
        <time>2025-07-06T15:47:36.564Z</time>
      </trkpt>
      <trkpt lat="43.36698" lon="6.19695">
        <ele>280.607642</ele>
        <time>2025-07-06T15:47:53.371Z</time>
      </trkpt>
      <trkpt lat="43.36707" lon="6.19707">
        <ele>279.712439</ele>
        <time>2025-07-06T15:47:56.542Z</time>
      </trkpt>
      <trkpt lat="43.36718" lon="6.19738">
        <ele>277.678231</ele>
        <time>2025-07-06T15:48:02.987Z</time>
      </trkpt>
      <trkpt lat="43.3672" lon="6.19758">
        <ele>276.532175</ele>
        <time>2025-07-06T15:48:06.632Z</time>
      </trkpt>
      <trkpt lat="43.36733" lon="6.19819">
        <ele>272.807692</ele>
        <time>2025-07-06T15:48:18.713Z</time>
      </trkpt>
      <trkpt lat="43.36737" lon="6.19901">
        <ele>268.054179</ele>
        <time>2025-07-06T15:48:34.853Z</time>
      </trkpt>
      <trkpt lat="43.36742" lon="6.19957">
        <ele>265.065553</ele>
        <time>2025-07-06T15:48:46.699Z</time>
      </trkpt>
      <trkpt lat="43.36747" lon="6.19979">
        <ele>264.382989</ele>
        <time>2025-07-06T15:48:51.545Z</time>
      </trkpt>
      <trkpt lat="43.36743" lon="6.20021">
        <ele>263.091068</ele>
        <time>2025-07-06T15:49:00.838Z</time>
      </trkpt>
      <trkpt lat="43.36745" lon="6.20076">
        <ele>261.412386</ele>
        <time>2025-07-06T15:49:12.990Z</time>
      </trkpt>
      <trkpt lat="43.3675" lon="6.20133">
        <ele>259.656337</ele>
        <time>2025-07-06T15:49:25.314Z</time>
      </trkpt>
      <trkpt lat="43.36761" lon="6.20188">
        <ele>257.938206</ele>
        <time>2025-07-06T15:49:37.350Z</time>
      </trkpt>
      <trkpt lat="43.36765" lon="6.20196">
        <ele>257.798642</ele>
        <time>2025-07-06T15:49:39.469Z</time>
      </trkpt>
      <trkpt lat="43.36775" lon="6.20205">
        <ele>257.652389</ele>
        <time>2025-07-06T15:49:43.181Z</time>
      </trkpt>
      <trkpt lat="43.3678" lon="6.20216">
        <ele>257.54433</ele>
        <time>2025-07-06T15:49:45.912Z</time>
      </trkpt>
      <trkpt lat="43.36822" lon="6.20198">
        <ele>257.017601</ele>
        <time>2025-07-06T15:49:53.672Z</time>
      </trkpt>
      <trkpt lat="43.36874" lon="6.2019">
        <ele>256.39514</ele>
        <time>2025-07-06T15:50:04.018Z</time>
      </trkpt>
      <trkpt lat="43.36866" lon="6.20244">
        <ele>255.919567</ele>
        <time>2025-07-06T15:50:14.669Z</time>
      </trkpt>
      <trkpt lat="43.36844" lon="6.20351">
        <ele>255.814583</ele>
        <time>2025-07-06T15:50:41.079Z</time>
      </trkpt>
      <trkpt lat="43.36837" lon="6.20439">
        <ele>255.909235</ele>
        <time>2025-07-06T15:50:57.703Z</time>
      </trkpt>
      <trkpt lat="43.36846" lon="6.20568">
        <ele>254.115561</ele>
        <time>2025-07-06T15:51:14.982Z</time>
      </trkpt>
      <trkpt lat="43.36847" lon="6.20616">
        <ele>252.591234</ele>
        <time>2025-07-06T15:51:20.619Z</time>
      </trkpt>
      <trkpt lat="43.36841" lon="6.20719">
        <ele>249.302077</ele>
        <time>2025-07-06T15:51:32.401Z</time>
      </trkpt>
      <trkpt lat="43.36833" lon="6.20743">
        <ele>248.469791</ele>
        <time>2025-07-06T15:51:35.331Z</time>
      </trkpt>
      <trkpt lat="43.36824" lon="6.20777">
        <ele>247.342495</ele>
        <time>2025-07-06T15:51:39.360Z</time>
      </trkpt>
      <trkpt lat="43.36805" lon="6.20857">
        <ele>244.72876</ele>
        <time>2025-07-06T15:51:48.954Z</time>
      </trkpt>
      <trkpt lat="43.36804" lon="6.20888">
        <ele>243.736232</ele>
        <time>2025-07-06T15:51:52.736Z</time>
      </trkpt>
      <trkpt lat="43.36815" lon="6.20955">
        <ele>241.611823</ele>
        <time>2025-07-06T15:52:01.102Z</time>
      </trkpt>
      <trkpt lat="43.36818" lon="6.21033">
        <ele>239.972805</ele>
        <time>2025-07-06T15:52:11.183Z</time>
      </trkpt>
      <trkpt lat="43.36835" lon="6.21108">
        <ele>239.074714</ele>
        <time>2025-07-06T15:52:21.667Z</time>
      </trkpt>
      <trkpt lat="43.36848" lon="6.21206">
        <ele>237.931435</ele>
        <time>2025-07-06T15:52:35.561Z</time>
      </trkpt>
      <trkpt lat="43.36851" lon="6.21296">
        <ele>237.873992</ele>
        <time>2025-07-06T15:52:49.817Z</time>
      </trkpt>
      <trkpt lat="43.36864" lon="6.21368">
        <ele>238.201578</ele>
        <time>2025-07-06T15:53:04.643Z</time>
      </trkpt>
      <trkpt lat="43.36868" lon="6.21403">
        <ele>238.357452</ele>
        <time>2025-07-06T15:53:12.512Z</time>
      </trkpt>
      <trkpt lat="43.36887" lon="6.21577">
        <ele>238.479677</ele>
        <time>2025-07-06T15:53:45.950Z</time>
      </trkpt>
      <trkpt lat="43.36896" lon="6.21618">
        <ele>238.384545</ele>
        <time>2025-07-06T15:53:52.267Z</time>
      </trkpt>
      <trkpt lat="43.36912" lon="6.21667">
        <ele>238.266442</ele>
        <time>2025-07-06T15:53:59.975Z</time>
      </trkpt>
      <trkpt lat="43.36918" lon="6.21674">
        <ele>238.242308</ele>
        <time>2025-07-06T15:54:01.476Z</time>
      </trkpt>
      <trkpt lat="43.36912" lon="6.21725">
        <ele>238.044564</ele>
        <time>2025-07-06T15:54:08.791Z</time>
      </trkpt>
      <trkpt lat="43.36911" lon="6.21736">
        <ele>237.931934</ele>
        <time>2025-07-06T15:54:10.307Z</time>
      </trkpt>
      <trkpt lat="43.36908" lon="6.2175">
        <ele>237.787372</ele>
        <time>2025-07-06T15:54:12.371Z</time>
      </trkpt>
      <trkpt lat="43.36865" lon="6.21943">
        <ele>235.757953</ele>
        <time>2025-07-06T15:54:41.626Z</time>
      </trkpt>
      <trkpt lat="43.3685" lon="6.22002">
        <ele>234.20847</ele>
        <time>2025-07-06T15:54:49.480Z</time>
      </trkpt>
      <trkpt lat="43.36835" lon="6.22033">
        <ele>233.187437</ele>
        <time>2025-07-06T15:54:53.877Z</time>
      </trkpt>
      <trkpt lat="43.36827" lon="6.22006">
        <ele>232.396024</ele>
        <time>2025-07-06T15:54:57.246Z</time>
      </trkpt>
      <trkpt lat="43.3682" lon="6.21997">
        <ele>232.030186</ele>
        <time>2025-07-06T15:54:58.794Z</time>
      </trkpt>
      <trkpt lat="43.36782" lon="6.21992">
        <ele>230.597643</ele>
        <time>2025-07-06T15:55:04.896Z</time>
      </trkpt>
      <trkpt lat="43.3676" lon="6.2198">
        <ele>229.731538</ele>
        <time>2025-07-06T15:55:08.644Z</time>
      </trkpt>
      <trkpt lat="43.36743" lon="6.21977">
        <ele>229.07696</ele>
        <time>2025-07-06T15:55:11.605Z</time>
      </trkpt>
      <trkpt lat="43.36726" lon="6.21971">
        <ele>228.794762</ele>
        <time>2025-07-06T15:55:14.718Z</time>
      </trkpt>
      <trkpt lat="43.36683" lon="6.21932">
        <ele>228.301268</ele>
        <time>2025-07-06T15:55:23.651Z</time>
      </trkpt>
      <trkpt lat="43.36599" lon="6.21871">
        <ele>227.374041</ele>
        <time>2025-07-06T15:55:44.924Z</time>
      </trkpt>
      <trkpt lat="43.36569" lon="6.21853">
        <ele>227.266644</ele>
        <time>2025-07-06T15:55:53.667Z</time>
      </trkpt>
      <trkpt lat="43.36562" lon="6.21845">
        <ele>227.329673</ele>
        <time>2025-07-06T15:55:56.121Z</time>
      </trkpt>
      <trkpt lat="43.36547" lon="6.21796">
        <ele>227.594543</ele>
        <time>2025-07-06T15:56:06.552Z</time>
      </trkpt>
      <trkpt lat="43.36531" lon="6.21753">
        <ele>227.833843</ele>
        <time>2025-07-06T15:56:15.966Z</time>
      </trkpt>
      <trkpt lat="43.3652" lon="6.21706">
        <ele>228.081923</ele>
        <time>2025-07-06T15:56:25.512Z</time>
      </trkpt>
      <trkpt lat="43.36513" lon="6.21698">
        <ele>228.150802</ele>
        <time>2025-07-06T15:56:28.089Z</time>
      </trkpt>
      <trkpt lat="43.36488" lon="6.21687">
        <ele>228.328579</ele>
        <time>2025-07-06T15:56:34.515Z</time>
      </trkpt>
      <trkpt lat="43.36464" lon="6.21669">
        <ele>228.425531</ele>
        <time>2025-07-06T15:56:41.017Z</time>
      </trkpt>
      <trkpt lat="43.36437" lon="6.21669">
        <ele>228.441372</ele>
        <time>2025-07-06T15:56:47.242Z</time>
      </trkpt>
      <trkpt lat="43.36427" lon="6.21666">
        <ele>228.447213</ele>
        <time>2025-07-06T15:56:49.501Z</time>
      </trkpt>
      <trkpt lat="43.36367" lon="6.21628">
        <ele>228.485312</ele>
        <time>2025-07-06T15:57:03.834Z</time>
      </trkpt>
      <trkpt lat="43.36362" lon="6.21623">
        <ele>228.488865</ele>
        <time>2025-07-06T15:57:05.153Z</time>
      </trkpt>
      <trkpt lat="43.36337" lon="6.21556">
        <ele>228.520629</ele>
        <time>2025-07-06T15:57:17.103Z</time>
      </trkpt>
      <trkpt lat="43.36307" lon="6.21476">
        <ele>229.157418</ele>
        <time>2025-07-06T15:57:33.341Z</time>
      </trkpt>
      <trkpt lat="43.36288" lon="6.21465">
        <ele>229.355994</ele>
        <time>2025-07-06T15:57:38.837Z</time>
      </trkpt>
      <trkpt lat="43.3625" lon="6.21453">
        <ele>229.750852</ele>
        <time>2025-07-06T15:57:50.569Z</time>
      </trkpt>
      <trkpt lat="43.36193" lon="6.21411">
        <ele>230.595451</ele>
        <time>2025-07-06T15:58:11.009Z</time>
      </trkpt>
      <trkpt lat="43.36166" lon="6.21391">
        <ele>231.742008</ele>
        <time>2025-07-06T15:58:21.135Z</time>
      </trkpt>
      <trkpt lat="43.36147" lon="6.2139">
        <ele>232.432844</ele>
        <time>2025-07-06T15:58:27.217Z</time>
      </trkpt>
      <trkpt lat="43.36137" lon="6.21385">
        <ele>232.8172</ele>
        <time>2025-07-06T15:58:31.969Z</time>
      </trkpt>
      <trkpt lat="43.36131" lon="6.21377">
        <ele>233.115463</ele>
        <time>2025-07-06T15:58:35.919Z</time>
      </trkpt>
      <trkpt lat="43.36124" lon="6.21353">
        <ele>233.821484</ele>
        <time>2025-07-06T15:58:45.441Z</time>
      </trkpt>
      <trkpt lat="43.36122" lon="6.2129">
        <ele>235.495719</ele>
        <time>2025-07-06T15:59:10.258Z</time>
      </trkpt>
      <trkpt lat="43.36126" lon="6.21244">
        <ele>236.717426</ele>
        <time>2025-07-06T15:59:31.500Z</time>
      </trkpt>
      <trkpt lat="43.36162" lon="6.21163">
        <ele>244.003532</ele>
        <time>2025-07-06T16:00:28.538Z</time>
      </trkpt>
      <trkpt lat="43.36179" lon="6.21141">
        <ele>246.539122</ele>
        <time>2025-07-06T16:00:51.258Z</time>
      </trkpt>
      <trkpt lat="43.36186" lon="6.2111">
        <ele>249.163231</ele>
        <time>2025-07-06T16:01:16.446Z</time>
      </trkpt>
      <trkpt lat="43.36198" lon="6.21093">
        <ele>251.042386</ele>
        <time>2025-07-06T16:01:35.180Z</time>
      </trkpt>
      <trkpt lat="43.36205" lon="6.21084">
        <ele>252.142962</ele>
        <time>2025-07-06T16:01:45.949Z</time>
      </trkpt>
      <trkpt lat="43.3622" lon="6.21079">
        <ele>253.756809</ele>
        <time>2025-07-06T16:02:01.633Z</time>
      </trkpt>
      <trkpt lat="43.36239" lon="6.21083">
        <ele>255.885908</ele>
        <time>2025-07-06T16:02:21.732Z</time>
      </trkpt>
      <trkpt lat="43.36248" lon="6.2108">
        <ele>256.85908</ele>
        <time>2025-07-06T16:02:31.766Z</time>
      </trkpt>
      <trkpt lat="43.36277" lon="6.21014">
        <ele>260.503009</ele>
        <time>2025-07-06T16:03:24.845Z</time>
      </trkpt>
      <trkpt lat="43.36295" lon="6.20965">
        <ele>263.035845</ele>
        <time>2025-07-06T16:03:55.322Z</time>
      </trkpt>
      <trkpt lat="43.364" lon="6.21064">
        <ele>266.618796</ele>
        <time>2025-07-06T16:04:35.714Z</time>
      </trkpt>
      <trkpt lat="43.36408" lon="6.21063">
        <ele>266.322135</ele>
        <time>2025-07-06T16:04:37.143Z</time>
      </trkpt>
      <trkpt lat="43.36422" lon="6.21026">
        <ele>265.168054</ele>
        <time>2025-07-06T16:04:42.517Z</time>
      </trkpt>
      <trkpt lat="43.36428" lon="6.21001">
        <ele>264.455367</ele>
        <time>2025-07-06T16:04:45.672Z</time>
      </trkpt>
      <trkpt lat="43.36435" lon="6.20992">
        <ele>264.114895</ele>
        <time>2025-07-06T16:04:47.151Z</time>
      </trkpt>
      <trkpt lat="43.36449" lon="6.20982">
        <ele>263.50195</ele>
        <time>2025-07-06T16:04:49.774Z</time>
      </trkpt>
      <trkpt lat="43.36461" lon="6.2094">
        <ele>262.289617</ele>
        <time>2025-07-06T16:04:54.822Z</time>
      </trkpt>
      <trkpt lat="43.36487" lon="6.20883">
        <ele>260.288483</ele>
        <time>2025-07-06T16:05:02.404Z</time>
      </trkpt>
      <trkpt lat="43.36492" lon="6.20828">
        <ele>258.566034</ele>
        <time>2025-07-06T16:05:08.803Z</time>
      </trkpt>
      <trkpt lat="43.36496" lon="6.20822">
        <ele>258.316973</ele>
        <time>2025-07-06T16:05:09.755Z</time>
      </trkpt>
      <trkpt lat="43.36504" lon="6.2082">
        <ele>257.963814</ele>
        <time>2025-07-06T16:05:11.122Z</time>
      </trkpt>
      <trkpt lat="43.36534" lon="6.20821">
        <ele>256.653021</ele>
        <time>2025-07-06T16:05:16.412Z</time>
      </trkpt>
      <trkpt lat="43.36539" lon="6.20816">
        <ele>256.415107</ele>
        <time>2025-07-06T16:05:17.415Z</time>
      </trkpt>
      <trkpt lat="43.36529" lon="6.20763">
        <ele>254.700059</ele>
        <time>2025-07-06T16:05:25.097Z</time>
      </trkpt>
      <trkpt lat="43.36543" lon="6.20756">
        <ele>254.058142</ele>
        <time>2025-07-06T16:05:28.144Z</time>
      </trkpt>
      <trkpt lat="43.36524" lon="6.20672">
        <ele>253.594692</ele>
        <time>2025-07-06T16:05:41.420Z</time>
      </trkpt>
      <trkpt lat="43.36525" lon="6.20638">
        <ele>253.489057</ele>
        <time>2025-07-06T16:05:46.857Z</time>
      </trkpt>
      <trkpt lat="43.36528" lon="6.20624">
        <ele>253.441655</ele>
        <time>2025-07-06T16:05:49.392Z</time>
      </trkpt>
      <trkpt lat="43.36529" lon="6.20601">
        <ele>253.36766</ele>
        <time>2025-07-06T16:05:53.482Z</time>
      </trkpt>
      <trkpt lat="43.36526" lon="6.20512">
        <ele>253.088372</ele>
        <time>2025-07-06T16:06:07.480Z</time>
      </trkpt>
      <trkpt lat="43.36526" lon="6.20379">
        <ele>254.525307</ele>
        <time>2025-07-06T16:06:27.512Z</time>
      </trkpt>
      <trkpt lat="43.3653" lon="6.20342">
        <ele>254.946755</ele>
        <time>2025-07-06T16:06:37.410Z</time>
      </trkpt>
      <trkpt lat="43.36533" lon="6.20317">
        <ele>255.231339</ele>
        <time>2025-07-06T16:06:44.825Z</time>
      </trkpt>
      <trkpt lat="43.36524" lon="6.20316">
        <ele>255.381821</ele>
        <time>2025-07-06T16:06:49.060Z</time>
      </trkpt>
      <trkpt lat="43.36497" lon="6.20314">
        <ele>255.794057</ele>
        <time>2025-07-06T16:07:00.828Z</time>
      </trkpt>
      <trkpt lat="43.36463" lon="6.20318">
        <ele>256.448102</ele>
        <time>2025-07-06T16:07:15.737Z</time>
      </trkpt>
      <trkpt lat="43.36444" lon="6.20324">
        <ele>256.839364</ele>
        <time>2025-07-06T16:07:24.168Z</time>
      </trkpt>
      <trkpt lat="43.3641" lon="6.2034">
        <ele>257.566373</ele>
        <time>2025-07-06T16:07:40.414Z</time>
      </trkpt>
      <trkpt lat="43.36367" lon="6.20345">
        <ele>258.427039</ele>
        <time>2025-07-06T16:07:55.475Z</time>
      </trkpt>
      <trkpt lat="43.36332" lon="6.20342">
        <ele>259.113108</ele>
        <time>2025-07-06T16:08:02.881Z</time>
      </trkpt>
      <trkpt lat="43.36297" lon="6.20331">
        <ele>258.774105</ele>
        <time>2025-07-06T16:08:09.323Z</time>
      </trkpt>
      <trkpt lat="43.36271" lon="6.20316">
        <ele>257.749432</ele>
        <time>2025-07-06T16:08:14.072Z</time>
      </trkpt>
      <trkpt lat="43.36252" lon="6.203">
        <ele>256.944809</ele>
        <time>2025-07-06T16:08:17.715Z</time>
      </trkpt>
      <trkpt lat="43.36224" lon="6.20261">
        <ele>255.478832</ele>
        <time>2025-07-06T16:08:24.347Z</time>
      </trkpt>
      <trkpt lat="43.36213" lon="6.20235">
        <ele>254.700893</ele>
        <time>2025-07-06T16:08:27.852Z</time>
      </trkpt>
      <trkpt lat="43.36187" lon="6.20156">
        <ele>252.167047</ele>
        <time>2025-07-06T16:08:38.110Z</time>
      </trkpt>
      <trkpt lat="43.36176" lon="6.20134">
        <ele>251.124273</ele>
        <time>2025-07-06T16:08:41.272Z</time>
      </trkpt>
      <trkpt lat="43.36158" lon="6.20107">
        <ele>249.730655</ele>
        <time>2025-07-06T16:08:45.415Z</time>
      </trkpt>
      <trkpt lat="43.36097" lon="6.20032">
        <ele>245.402591</ele>
        <time>2025-07-06T16:08:58.101Z</time>
      </trkpt>
      <trkpt lat="43.36075" lon="6.20003">
        <ele>243.812194</ele>
        <time>2025-07-06T16:09:02.792Z</time>
      </trkpt>
      <trkpt lat="43.36054" lon="6.19982">
        <ele>242.653984</ele>
        <time>2025-07-06T16:09:06.899Z</time>
      </trkpt>
      <trkpt lat="43.36033" lon="6.19966">
        <ele>241.694137</ele>
        <time>2025-07-06T16:09:10.630Z</time>
      </trkpt>
      <trkpt lat="43.3596" lon="6.19934">
        <ele>238.571181</ele>
        <time>2025-07-06T16:09:23.125Z</time>
      </trkpt>
      <trkpt lat="43.35954" lon="6.19937">
        <ele>238.322312</ele>
        <time>2025-07-06T16:09:24.220Z</time>
      </trkpt>
      <trkpt lat="43.35938" lon="6.19934">
        <ele>237.68073</ele>
        <time>2025-07-06T16:09:27.086Z</time>
      </trkpt>
      <trkpt lat="43.35913" lon="6.1992">
        <ele>236.584804</ele>
        <time>2025-07-06T16:09:32.078Z</time>
      </trkpt>
      <trkpt lat="43.35903" lon="6.19911">
        <ele>236.125862</ele>
        <time>2025-07-06T16:09:34.355Z</time>
      </trkpt>
      <trkpt lat="43.35903" lon="6.19925">
        <ele>236.009521</ele>
        <time>2025-07-06T16:09:36.253Z</time>
      </trkpt>
      <trkpt lat="43.35943" lon="6.20007">
        <ele>235.176206</ele>
        <time>2025-07-06T16:09:50.504Z</time>
      </trkpt>
      <trkpt lat="43.3595" lon="6.20027">
        <ele>234.990018</ele>
        <time>2025-07-06T16:09:53.951Z</time>
      </trkpt>
      <trkpt lat="43.35953" lon="6.20046">
        <ele>234.831208</ele>
        <time>2025-07-06T16:09:56.943Z</time>
      </trkpt>
      <trkpt lat="43.35952" lon="6.20095">
        <ele>234.421404</ele>
        <time>2025-07-06T16:10:05.001Z</time>
      </trkpt>
      <trkpt lat="43.35958" lon="6.20118">
        <ele>234.217324</ele>
        <time>2025-07-06T16:10:09.007Z</time>
      </trkpt>
      <trkpt lat="43.35964" lon="6.20131">
        <ele>234.085968</ele>
        <time>2025-07-06T16:10:11.570Z</time>
      </trkpt>
      <trkpt lat="43.3598" lon="6.20147">
        <ele>234.02649</ele>
        <time>2025-07-06T16:10:15.969Z</time>
      </trkpt>
      <trkpt lat="43.36001" lon="6.2016">
        <ele>233.974754</ele>
        <time>2025-07-06T16:10:20.937Z</time>
      </trkpt>
      <trkpt lat="43.36018" lon="6.20177">
        <ele>233.924683</ele>
        <time>2025-07-06T16:10:25.750Z</time>
      </trkpt>
      <trkpt lat="43.36028" lon="6.20191">
        <ele>233.892519</ele>
        <time>2025-07-06T16:10:28.810Z</time>
      </trkpt>
      <trkpt lat="43.3598" lon="6.20318">
        <ele>233.653093</ele>
        <time>2025-07-06T16:11:06.045Z</time>
      </trkpt>
      <trkpt lat="43.35971" lon="6.20333">
        <ele>233.998678</ele>
        <time>2025-07-06T16:11:11.228Z</time>
      </trkpt>
      <trkpt lat="43.35973" lon="6.20398">
        <ele>235.148336</ele>
        <time>2025-07-06T16:11:30.941Z</time>
      </trkpt>
      <trkpt lat="43.35969" lon="6.20404">
        <ele>235.294419</ele>
        <time>2025-07-06T16:11:33.763Z</time>
      </trkpt>
      <trkpt lat="43.35953" lon="6.20413">
        <ele>235.703599</ele>
        <time>2025-07-06T16:11:41.935Z</time>
      </trkpt>
      <trkpt lat="43.35937" lon="6.20424">
        <ele>236.140362</ele>
        <time>2025-07-06T16:11:51.089Z</time>
      </trkpt>
      <trkpt lat="43.35925" lon="6.20429">
        <ele>236.446563</ele>
        <time>2025-07-06T16:11:57.701Z</time>
      </trkpt>
      <trkpt lat="43.35889" lon="6.20435">
        <ele>237.352409</ele>
        <time>2025-07-06T16:12:18.307Z</time>
      </trkpt>
      <trkpt lat="43.35883" lon="6.20431">
        <ele>237.514436</ele>
        <time>2025-07-06T16:12:22.093Z</time>
      </trkpt>
      <trkpt lat="43.35873" lon="6.2038">
        <ele>238.718473</ele>
        <time>2025-07-06T16:12:44.916Z</time>
      </trkpt>
      <trkpt lat="43.35797" lon="6.20296">
        <ele>242.668802</ele>
        <time>2025-07-06T16:13:45.283Z</time>
      </trkpt>
      <trkpt lat="43.35765" lon="6.20184">
        <ele>245.46882</ele>
        <time>2025-07-06T16:14:32.618Z</time>
      </trkpt>
      <trkpt lat="43.35725" lon="6.20114">
        <ele>245.752435</ele>
        <time>2025-07-06T16:14:59.910Z</time>
      </trkpt>
      <trkpt lat="43.35712" lon="6.20065">
        <ele>245.917577</ele>
        <time>2025-07-06T16:15:13.373Z</time>
      </trkpt>
      <trkpt lat="43.35713" lon="6.20051">
        <ele>245.962968</ele>
        <time>2025-07-06T16:15:16.921Z</time>
      </trkpt>
      <trkpt lat="43.35705" lon="6.20014">
        <ele>246.086101</ele>
        <time>2025-07-06T16:15:26.460Z</time>
      </trkpt>
      <trkpt lat="43.3567" lon="6.19919">
        <ele>245.88008</ele>
        <time>2025-07-06T16:15:52.593Z</time>
      </trkpt>
      <trkpt lat="43.35667" lon="6.19891">
        <ele>245.78306</ele>
        <time>2025-07-06T16:15:59.810Z</time>
      </trkpt>
      <trkpt lat="43.35645" lon="6.19841">
        <ele>245.58333</ele>
        <time>2025-07-06T16:16:14.948Z</time>
      </trkpt>
      <trkpt lat="43.3559" lon="6.1975">
        <ele>245.129002</ele>
        <time>2025-07-06T16:16:49.388Z</time>
      </trkpt>
      <trkpt lat="43.35581" lon="6.19746">
        <ele>245.071838</ele>
        <time>2025-07-06T16:16:53.053Z</time>
      </trkpt>
      <trkpt lat="43.35573" lon="6.19733">
        <ele>244.992572</ele>
        <time>2025-07-06T16:16:57.813Z</time>
      </trkpt>
      <trkpt lat="43.35549" lon="6.19729">
        <ele>244.84012</ele>
        <time>2025-07-06T16:17:06.576Z</time>
      </trkpt>
      <trkpt lat="43.35537" lon="6.19733">
        <ele>244.762234</ele>
        <time>2025-07-06T16:17:10.945Z</time>
      </trkpt>
      <trkpt lat="43.35504" lon="6.19752">
        <ele>244.537909</ele>
        <time>2025-07-06T16:17:23.196Z</time>
      </trkpt>
      <trkpt lat="43.35492" lon="6.19748">
        <ele>244.461739</ele>
        <time>2025-07-06T16:17:27.289Z</time>
      </trkpt>
      <trkpt lat="43.35464" lon="6.19721">
        <ele>244.250758</ele>
        <time>2025-07-06T16:17:38.721Z</time>
      </trkpt>
      <trkpt lat="43.35427" lon="6.19672">
        <ele>243.714886</ele>
        <time>2025-07-06T16:17:56.089Z</time>
      </trkpt>
      <trkpt lat="43.35413" lon="6.19659">
        <ele>243.525214</ele>
        <time>2025-07-06T16:18:01.374Z</time>
      </trkpt>
      <trkpt lat="43.35378" lon="6.19648">
        <ele>243.113328</ele>
        <time>2025-07-06T16:18:13.137Z</time>
      </trkpt>
      <trkpt lat="43.35364" lon="6.1965">
        <ele>242.954719</ele>
        <time>2025-07-06T16:18:17.933Z</time>
      </trkpt>
      <trkpt lat="43.35335" lon="6.19665">
        <ele>242.598845</ele>
        <time>2025-07-06T16:18:29.039Z</time>
      </trkpt>
      <trkpt lat="43.35289" lon="6.19701">
        <ele>242.040337</ele>
        <time>2025-07-06T16:18:48.357Z</time>
      </trkpt>
      <trkpt lat="43.35267" lon="6.19726">
        <ele>241.824249</ele>
        <time>2025-07-06T16:18:58.302Z</time>
      </trkpt>
      <trkpt lat="43.3524" lon="6.19749">
        <ele>241.572638</ele>
        <time>2025-07-06T16:19:09.786Z</time>
      </trkpt>
      <trkpt lat="43.35216" lon="6.19781">
        <ele>241.316814</ele>
        <time>2025-07-06T16:19:21.293Z</time>
      </trkpt>
      <trkpt lat="43.35201" lon="6.19795">
        <ele>241.17979</ele>
        <time>2025-07-06T16:19:27.369Z</time>
      </trkpt>
      <trkpt lat="43.35189" lon="6.19817">
        <ele>241.02056</ele>
        <time>2025-07-06T16:19:34.359Z</time>
      </trkpt>
      <trkpt lat="43.35167" lon="6.19833">
        <ele>240.831432</ele>
        <time>2025-07-06T16:19:42.663Z</time>
      </trkpt>
      <trkpt lat="43.35069" lon="6.19845">
        <ele>240.580475</ele>
        <time>2025-07-06T16:20:17.195Z</time>
      </trkpt>
      <trkpt lat="43.34979" lon="6.19835">
        <ele>240.407099</ele>
        <time>2025-07-06T16:20:51.508Z</time>
      </trkpt>
      <trkpt lat="43.34974" lon="6.19734">
        <ele>241.857935</ele>
        <time>2025-07-06T16:21:12.205Z</time>
      </trkpt>
      <trkpt lat="43.34969" lon="6.19717">
        <ele>242.119523</ele>
        <time>2025-07-06T16:21:16.041Z</time>
      </trkpt>
      <trkpt lat="43.34968" lon="6.19716">
        <ele>242.138605</ele>
        <time>2025-07-06T16:21:16.336Z</time>
      </trkpt>
      <trkpt lat="43.34895" lon="6.19551">
        <ele>245.765804</ele>
        <time>2025-07-06T16:22:10.581Z</time>
      </trkpt>
      <trkpt lat="43.34836" lon="6.1954">
        <ele>247.954098</ele>
        <time>2025-07-06T16:22:38.004Z</time>
      </trkpt>
      <trkpt lat="43.34779" lon="6.19357">
        <ele>251.177863</ele>
        <time>2025-07-06T16:23:37.011Z</time>
      </trkpt>
      <trkpt lat="43.34768" lon="6.19201">
        <ele>251.845184</ele>
        <time>2025-07-06T16:24:01.723Z</time>
      </trkpt>
      <trkpt lat="43.34726" lon="6.19058">
        <ele>248.415949</ele>
        <time>2025-07-06T16:24:21.462Z</time>
      </trkpt>
      <trkpt lat="43.34713" lon="6.18981">
        <ele>246.657409</ele>
        <time>2025-07-06T16:24:31.494Z</time>
      </trkpt>
      <trkpt lat="43.34679" lon="6.18874">
        <ele>245.38974</ele>
        <time>2025-07-06T16:24:47.454Z</time>
      </trkpt>
      <trkpt lat="43.34642" lon="6.18816">
        <ele>244.603949</ele>
        <time>2025-07-06T16:24:59.375Z</time>
      </trkpt>
      <trkpt lat="43.34606" lon="6.18722">
        <ele>244.214839</ele>
        <time>2025-07-06T16:25:17.401Z</time>
      </trkpt>
      <trkpt lat="43.34617" lon="6.18665">
        <ele>244.4956</ele>
        <time>2025-07-06T16:25:27.972Z</time>
      </trkpt>
      <trkpt lat="43.34618" lon="6.1866">
        <ele>244.523501</ele>
        <time>2025-07-06T16:25:29.030Z</time>
      </trkpt>
      <trkpt lat="43.34617" lon="6.18647">
        <ele>244.583932</ele>
        <time>2025-07-06T16:25:31.337Z</time>
      </trkpt>
      <trkpt lat="43.34603" lon="6.18615">
        <ele>244.761567</ele>
        <time>2025-07-06T16:25:38.267Z</time>
      </trkpt>
      <trkpt lat="43.34596" lon="6.18576">
        <ele>244.952516</ele>
        <time>2025-07-06T16:25:46.135Z</time>
      </trkpt>
      <trkpt lat="43.34542" lon="6.18576">
        <ele>245.91559</ele>
        <time>2025-07-06T16:26:02.501Z</time>
      </trkpt>
      <trkpt lat="43.34521" lon="6.18584">
        <ele>246.697193</ele>
        <time>2025-07-06T16:26:09.778Z</time>
      </trkpt>
      <trkpt lat="43.34477" lon="6.18587">
        <ele>248.312691</ele>
        <time>2025-07-06T16:26:26.048Z</time>
      </trkpt>
      <trkpt lat="43.34426" lon="6.18609">
        <ele>250.251102</ele>
        <time>2025-07-06T16:26:49.055Z</time>
      </trkpt>
      <trkpt lat="43.34413" lon="6.18621">
        <ele>250.838288</ele>
        <time>2025-07-06T16:26:56.987Z</time>
      </trkpt>
      <trkpt lat="43.34387" lon="6.18571">
        <ele>253.18611</ele>
        <time>2025-07-06T16:27:20.727Z</time>
      </trkpt>
      <trkpt lat="43.34377" lon="6.18567">
        <ele>253.930766</ele>
        <time>2025-07-06T16:27:26.479Z</time>
      </trkpt>
      <trkpt lat="43.34369" lon="6.18569">
        <ele>254.474057</ele>
        <time>2025-07-06T16:27:30.837Z</time>
      </trkpt>
      <trkpt lat="43.34262" lon="6.18583">
        <ele>262.303982</ele>
        <time>2025-07-06T16:28:37.746Z</time>
      </trkpt>
      <trkpt lat="43.34234" lon="6.18577">
        <ele>264.342217</ele>
        <time>2025-07-06T16:28:55.759Z</time>
      </trkpt>
      <trkpt lat="43.34202" lon="6.18599">
        <ele>266.386026</ele>
        <time>2025-07-06T16:29:18.032Z</time>
      </trkpt>
      <trkpt lat="43.34193" lon="6.18593">
        <ele>266.949644</ele>
        <time>2025-07-06T16:29:24.324Z</time>
      </trkpt>
      <trkpt lat="43.34178" lon="6.18569">
        <ele>268.184684</ele>
        <time>2025-07-06T16:29:37.816Z</time>
      </trkpt>
      <trkpt lat="43.34163" lon="6.18562">
        <ele>269.035349</ele>
        <time>2025-07-06T16:29:46.897Z</time>
      </trkpt>
      <trkpt lat="43.34138" lon="6.18534">
        <ele>270.758998</ele>
        <time>2025-07-06T16:30:04.307Z</time>
      </trkpt>
      <trkpt lat="43.34117" lon="6.18487">
        <ele>272.944897</ele>
        <time>2025-07-06T16:30:23.156Z</time>
      </trkpt>
      <trkpt lat="43.34105" lon="6.1847">
        <ele>273.873271</ele>
        <time>2025-07-06T16:30:29.896Z</time>
      </trkpt>
      <trkpt lat="43.34079" lon="6.18425">
        <ele>273.60892</ele>
        <time>2025-07-06T16:30:42.321Z</time>
      </trkpt>
      <trkpt lat="43.34105" lon="6.18368">
        <ele>272.16661</ele>
        <time>2025-07-06T16:30:51.898Z</time>
      </trkpt>
      <trkpt lat="43.34121" lon="6.18344">
        <ele>271.484968</ele>
        <time>2025-07-06T16:30:55.870Z</time>
      </trkpt>
      <trkpt lat="43.34143" lon="6.18324">
        <ele>270.718084</ele>
        <time>2025-07-06T16:31:00.110Z</time>
      </trkpt>
      <trkpt lat="43.34166" lon="6.1828">
        <ele>269.551467</ele>
        <time>2025-07-06T16:31:06.409Z</time>
      </trkpt>
      <trkpt lat="43.34186" lon="6.18252">
        <ele>268.943106</ele>
        <time>2025-07-06T16:31:11.092Z</time>
      </trkpt>
      <trkpt lat="43.34207" lon="6.18228">
        <ele>268.510987</ele>
        <time>2025-07-06T16:31:15.620Z</time>
      </trkpt>
      <trkpt lat="43.34225" lon="6.18216">
        <ele>268.196149</ele>
        <time>2025-07-06T16:31:19.077Z</time>
      </trkpt>
      <trkpt lat="43.34245" lon="6.1821">
        <ele>267.865662</ele>
        <time>2025-07-06T16:31:22.889Z</time>
      </trkpt>
      <trkpt lat="43.34245" lon="6.18164">
        <ele>267.334867</ele>
        <time>2025-07-06T16:31:34.262Z</time>
      </trkpt>
      <trkpt lat="43.34242" lon="6.18136">
        <ele>266.998281</ele>
        <time>2025-07-06T16:31:42.574Z</time>
      </trkpt>
      <trkpt lat="43.34241" lon="6.18106">
        <ele>266.654444</ele>
        <time>2025-07-06T16:31:52.386Z</time>
      </trkpt>
      <trkpt lat="43.34239" lon="6.18046">
        <ele>266.869447</ele>
        <time>2025-07-06T16:32:15.942Z</time>
      </trkpt>
      <trkpt lat="43.34226" lon="6.17988">
        <ele>267.765132</ele>
        <time>2025-07-06T16:32:39.877Z</time>
      </trkpt>
      <trkpt lat="43.34213" lon="6.17905">
        <ele>269.027195</ele>
        <time>2025-07-06T16:33:10.929Z</time>
      </trkpt>
      <trkpt lat="43.34215" lon="6.17902">
        <ele>269.081564</ele>
        <time>2025-07-06T16:33:12.191Z</time>
      </trkpt>
      <trkpt lat="43.34241" lon="6.17896">
        <ele>269.62228</ele>
        <time>2025-07-06T16:33:24.425Z</time>
      </trkpt>
      <trkpt lat="43.3427" lon="6.17768">
        <ele>267.508649</ele>
        <time>2025-07-06T16:33:58.761Z</time>
      </trkpt>
      <trkpt lat="43.34273" lon="6.17672">
        <ele>265.200848</ele>
        <time>2025-07-06T16:34:19.227Z</time>
      </trkpt>
      <trkpt lat="43.34268" lon="6.17646">
        <ele>264.561735</ele>
        <time>2025-07-06T16:34:24.600Z</time>
      </trkpt>
      <trkpt lat="43.34243" lon="6.17597">
        <ele>262.192583</ele>
        <time>2025-07-06T16:34:36.514Z</time>
      </trkpt>
      <trkpt lat="43.34239" lon="6.17582">
        <ele>261.484319</ele>
        <time>2025-07-06T16:34:39.527Z</time>
      </trkpt>
      <trkpt lat="43.34241" lon="6.17453">
        <ele>255.600011</ele>
        <time>2025-07-06T16:35:04.931Z</time>
      </trkpt>
      <trkpt lat="43.34264" lon="6.17432">
        <ele>253.861</ele>
        <time>2025-07-06T16:35:12.794Z</time>
      </trkpt>
      <trkpt lat="43.34265" lon="6.17427">
        <ele>253.620543</ele>
        <time>2025-07-06T16:35:13.916Z</time>
      </trkpt>
      <trkpt lat="43.34255" lon="6.17402">
        <ele>252.678153</ele>
        <time>2025-07-06T16:35:19.900Z</time>
      </trkpt>
      <trkpt lat="43.34254" lon="6.17358">
        <ele>252.049987</ele>
        <time>2025-07-06T16:35:29.883Z</time>
      </trkpt>
      <trkpt lat="43.34188" lon="6.17376">
        <ele>250.755801</ele>
        <time>2025-07-06T16:35:42.504Z</time>
      </trkpt>
      <trkpt lat="43.34186" lon="6.17361">
        <ele>250.541047</ele>
        <time>2025-07-06T16:35:44.872Z</time>
      </trkpt>
      <trkpt lat="43.34188" lon="6.17343">
        <ele>250.286143</ele>
        <time>2025-07-06T16:35:47.704Z</time>
      </trkpt>
      <trkpt lat="43.34201" lon="6.17337">
        <ele>250.028412</ele>
        <time>2025-07-06T16:35:50.645Z</time>
      </trkpt>
      <trkpt lat="43.34225" lon="6.17341">
        <ele>249.556812</ele>
        <time>2025-07-06T16:35:56.115Z</time>
      </trkpt>
      <trkpt lat="43.34251" lon="6.17339">
        <ele>249.382308</ele>
        <time>2025-07-06T16:36:02.010Z</time>
      </trkpt>
      <trkpt lat="43.34263" lon="6.1733">
        <ele>249.39548</ele>
        <time>2025-07-06T16:36:05.151Z</time>
      </trkpt>
      <trkpt lat="43.34269" lon="6.17313">
        <ele>249.408055</ele>
        <time>2025-07-06T16:36:08.156Z</time>
      </trkpt>
      <trkpt lat="43.34266" lon="6.17295">
        <ele>249.420947</ele>
        <time>2025-07-06T16:36:11.245Z</time>
      </trkpt>
      <trkpt lat="43.34246" lon="6.17252">
        <ele>249.455484</ele>
        <time>2025-07-06T16:36:19.628Z</time>
      </trkpt>
      <trkpt lat="43.34191" lon="6.17118">
        <ele>249.840534</ele>
        <time>2025-07-06T16:36:48.111Z</time>
      </trkpt>
      <trkpt lat="43.34147" lon="6.17034">
        <ele>250.707601</ele>
        <time>2025-07-06T16:37:08.961Z</time>
      </trkpt>
      <trkpt lat="43.34128" lon="6.16983">
        <ele>251.184717</ele>
        <time>2025-07-06T16:37:21.254Z</time>
      </trkpt>
      <trkpt lat="43.34122" lon="6.16976">
        <ele>251.276471</ele>
        <time>2025-07-06T16:37:23.736Z</time>
      </trkpt>
      <trkpt lat="43.34118" lon="6.16965">
        <ele>251.377476</ele>
        <time>2025-07-06T16:37:26.522Z</time>
      </trkpt>
      <trkpt lat="43.34087" lon="6.16874">
        <ele>253.290307</ele>
        <time>2025-07-06T16:37:50.716Z</time>
      </trkpt>
      <trkpt lat="43.34081" lon="6.16866">
        <ele>253.543785</ele>
        <time>2025-07-06T16:37:53.542Z</time>
      </trkpt>
      <trkpt lat="43.34029" lon="6.16839">
        <ele>255.309529</ele>
        <time>2025-07-06T16:38:15.465Z</time>
      </trkpt>
      <trkpt lat="43.34003" lon="6.16818">
        <ele>256.243407</ele>
        <time>2025-07-06T16:38:28.325Z</time>
      </trkpt>
      <trkpt lat="43.33997" lon="6.16806">
        <ele>256.59937</ele>
        <time>2025-07-06T16:38:33.407Z</time>
      </trkpt>
      <trkpt lat="43.33976" lon="6.16802">
        <ele>257.26016</ele>
        <time>2025-07-06T16:38:43.115Z</time>
      </trkpt>
      <trkpt lat="43.33886" lon="6.16801">
        <ele>260.952076</ele>
        <time>2025-07-06T16:39:24.186Z</time>
      </trkpt>
      <trkpt lat="43.33826" lon="6.16793">
        <ele>263.471039</ele>
        <time>2025-07-06T16:39:54.176Z</time>
      </trkpt>
      <trkpt lat="43.33782" lon="6.1678">
        <ele>264.796036</ele>
        <time>2025-07-06T16:40:10.539Z</time>
      </trkpt>
      <trkpt lat="43.33729" lon="6.16752">
        <ele>265.153038</ele>
        <time>2025-07-06T16:40:26.804Z</time>
      </trkpt>
      <trkpt lat="43.33721" lon="6.16744">
        <ele>265.214861</ele>
        <time>2025-07-06T16:40:29.457Z</time>
      </trkpt>
      <trkpt lat="43.33692" lon="6.16694">
        <ele>265.505386</ele>
        <time>2025-07-06T16:40:43.321Z</time>
      </trkpt>
      <trkpt lat="43.33632" lon="6.16571">
        <ele>264.190407</ele>
        <time>2025-07-06T16:41:04.376Z</time>
      </trkpt>
      <trkpt lat="43.33629" lon="6.16558">
        <ele>263.910196</ele>
        <time>2025-07-06T16:41:06.168Z</time>
      </trkpt>
      <trkpt lat="43.33626" lon="6.16445">
        <ele>261.506227</ele>
        <time>2025-07-06T16:41:20.675Z</time>
      </trkpt>
      <trkpt lat="43.33634" lon="6.16436">
        <ele>261.203256</ele>
        <time>2025-07-06T16:41:22.949Z</time>
      </trkpt>
      <trkpt lat="43.33669" lon="6.1643">
        <ele>260.301711</ele>
        <time>2025-07-06T16:41:30.558Z</time>
      </trkpt>
      <trkpt lat="43.33637" lon="6.16236">
        <ele>257.239748</ele>
        <time>2025-07-06T16:42:06.466Z</time>
      </trkpt>
      <trkpt lat="43.33632" lon="6.16167">
        <ele>256.86514</ele>
        <time>2025-07-06T16:42:20.848Z</time>
      </trkpt>
      <trkpt lat="43.33621" lon="6.15991">
        <ele>257.258941</ele>
        <time>2025-07-06T16:43:01.578Z</time>
      </trkpt>
      <trkpt lat="43.33603" lon="6.15938">
        <ele>257.715442</ele>
        <time>2025-07-06T16:43:15.924Z</time>
      </trkpt>
      <trkpt lat="43.33589" lon="6.15879">
        <ele>258.619306</ele>
        <time>2025-07-06T16:43:31.976Z</time>
      </trkpt>
      <trkpt lat="43.33589" lon="6.15858">
        <ele>258.91524</ele>
        <time>2025-07-06T16:43:37.514Z</time>
      </trkpt>
      <trkpt lat="43.33593" lon="6.15844">
        <ele>259.128247</ele>
        <time>2025-07-06T16:43:41.571Z</time>
      </trkpt>
      <trkpt lat="43.33609" lon="6.15807">
        <ele>259.75211</ele>
        <time>2025-07-06T16:43:53.983Z</time>
      </trkpt>
      <trkpt lat="43.336" lon="6.15793">
        <ele>260.021001</ele>
        <time>2025-07-06T16:43:59.602Z</time>
      </trkpt>
      <trkpt lat="43.33544" lon="6.15731">
        <ele>261.568078</ele>
        <time>2025-07-06T16:44:31.867Z</time>
      </trkpt>
      <trkpt lat="43.33493" lon="6.15664">
        <ele>263.31522</ele>
        <time>2025-07-06T16:45:07.762Z</time>
      </trkpt>
      <trkpt lat="43.33517" lon="6.15599">
        <ele>264.618751</ele>
        <time>2025-07-06T16:45:33.212Z</time>
      </trkpt>
      <trkpt lat="43.33527" lon="6.1557">
        <ele>265.187819</ele>
        <time>2025-07-06T16:45:42.388Z</time>
      </trkpt>
      <trkpt lat="43.33532" lon="6.15541">
        <ele>264.959373</ele>
        <time>2025-07-06T16:45:50.199Z</time>
      </trkpt>
      <trkpt lat="43.3354" lon="6.15526">
        <ele>264.680473</ele>
        <time>2025-07-06T16:45:54.676Z</time>
      </trkpt>
      <trkpt lat="43.33545" lon="6.15521">
        <ele>264.540807</ele>
        <time>2025-07-06T16:45:56.867Z</time>
      </trkpt>
      <trkpt lat="43.33552" lon="6.15522">
        <ele>264.398525</ele>
        <time>2025-07-06T16:45:59.079Z</time>
      </trkpt>
      <trkpt lat="43.33575" lon="6.15538">
        <ele>263.832795</ele>
        <time>2025-07-06T16:46:07.474Z</time>
      </trkpt>
      <trkpt lat="43.33629" lon="6.1556">
        <ele>262.636</ele>
        <time>2025-07-06T16:46:24.305Z</time>
      </trkpt>
      <trkpt lat="43.3364" lon="6.15559">
        <ele>262.398863</ele>
        <time>2025-07-06T16:46:27.632Z</time>
      </trkpt>
      <trkpt lat="43.33648" lon="6.1555">
        <ele>262.166516</ele>
        <time>2025-07-06T16:46:30.883Z</time>
      </trkpt>
      <trkpt lat="43.3366" lon="6.15525">
        <ele>261.708223</ele>
        <time>2025-07-06T16:46:37.488Z</time>
      </trkpt>
      <trkpt lat="43.33685" lon="6.15498">
        <ele>261.388492</ele>
        <time>2025-07-06T16:46:47.771Z</time>
      </trkpt>
      <trkpt lat="43.33715" lon="6.15421">
        <ele>261.177078</ele>
        <time>2025-07-06T16:47:10.137Z</time>
      </trkpt>
      <trkpt lat="43.3373" lon="6.15367">
        <ele>261.040082</ele>
        <time>2025-07-06T16:47:26.125Z</time>
      </trkpt>
      <trkpt lat="43.33747" lon="6.15326">
        <ele>260.927576</ele>
        <time>2025-07-06T16:47:40.125Z</time>
      </trkpt>
      <trkpt lat="43.33758" lon="6.15288">
        <ele>261.093774</ele>
        <time>2025-07-06T16:47:52.686Z</time>
      </trkpt>
      <trkpt lat="43.33828" lon="6.15165">
        <ele>263.818318</ele>
        <time>2025-07-06T16:48:44.211Z</time>
      </trkpt>
      <trkpt lat="43.33843" lon="6.15096">
        <ele>265.064011</ele>
        <time>2025-07-06T16:49:11.819Z</time>
      </trkpt>
      <trkpt lat="43.3381" lon="6.15047">
        <ele>268.341003</ele>
        <time>2025-07-06T16:49:42.422Z</time>
      </trkpt>
      <trkpt lat="43.33782" lon="6.15038">
        <ele>270.496253</ele>
        <time>2025-07-06T16:50:03.769Z</time>
      </trkpt>
      <trkpt lat="43.33717" lon="6.14939">
        <ele>277.488496</ele>
        <time>2025-07-06T16:51:22.355Z</time>
      </trkpt>
      <trkpt lat="43.33679" lon="6.14926">
        <ele>279.454353</ele>
        <time>2025-07-06T16:51:54.185Z</time>
      </trkpt>
      <trkpt lat="43.33667" lon="6.14873">
        <ele>281.149069</ele>
        <time>2025-07-06T16:52:24.115Z</time>
      </trkpt>
      <trkpt lat="43.33674" lon="6.14837">
        <ele>282.291417</ele>
        <time>2025-07-06T16:52:41.827Z</time>
      </trkpt>
      <trkpt lat="43.33644" lon="6.14772">
        <ele>284.636918</ele>
        <time>2025-07-06T16:53:10.556Z</time>
      </trkpt>
      <trkpt lat="43.33642" lon="6.14768">
        <ele>284.763037</ele>
        <time>2025-07-06T16:53:11.713Z</time>
      </trkpt>
      <trkpt lat="43.3363" lon="6.14749">
        <ele>285.537175</ele>
        <time>2025-07-06T16:53:18.193Z</time>
      </trkpt>
      <trkpt lat="43.33627" lon="6.14636">
        <ele>282.387476</ele>
        <time>2025-07-06T16:53:43.042Z</time>
      </trkpt>
      <trkpt lat="43.33649" lon="6.14614">
        <ele>281.185343</ele>
        <time>2025-07-06T16:53:50.857Z</time>
      </trkpt>
      <trkpt lat="43.33669" lon="6.14593">
        <ele>280.0608</ele>
        <time>2025-07-06T16:53:58.086Z</time>
      </trkpt>
      <trkpt lat="43.337" lon="6.14544">
        <ele>277.954632</ele>
        <time>2025-07-06T16:54:10.952Z</time>
      </trkpt>
      <trkpt lat="43.33751" lon="6.1448">
        <ele>274.240993</ele>
        <time>2025-07-06T16:54:29.866Z</time>
      </trkpt>
      <trkpt lat="43.33779" lon="6.14475">
        <ele>272.718714</ele>
        <time>2025-07-06T16:54:37.839Z</time>
      </trkpt>
      <trkpt lat="43.338" lon="6.14474">
        <ele>271.589801</ele>
        <time>2025-07-06T16:54:41.274Z</time>
      </trkpt>
      <trkpt lat="43.33792" lon="6.14452">
        <ele>270.626201</ele>
        <time>2025-07-06T16:54:44.203Z</time>
      </trkpt>
      <trkpt lat="43.33817" lon="6.14404">
        <ele>268.296437</ele>
        <time>2025-07-06T16:54:51.320Z</time>
      </trkpt>
      <trkpt lat="43.33834" lon="6.14312">
        <ele>267.08749</ele>
        <time>2025-07-06T16:55:04.343Z</time>
      </trkpt>
      <trkpt lat="43.33861" lon="6.14288">
        <ele>266.624392</ele>
        <time>2025-07-06T16:55:11.147Z</time>
      </trkpt>
      <trkpt lat="43.33872" lon="6.14211">
        <ele>265.814582</ele>
        <time>2025-07-06T16:55:23.394Z</time>
      </trkpt>
      <trkpt lat="43.33871" lon="6.14135">
        <ele>265.560548</ele>
        <time>2025-07-06T16:55:36.184Z</time>
      </trkpt>
      <trkpt lat="43.33866" lon="6.14104">
        <ele>265.670885</ele>
        <time>2025-07-06T16:55:42.062Z</time>
      </trkpt>
      <trkpt lat="43.33872" lon="6.14029">
        <ele>265.925803</ele>
        <time>2025-07-06T16:55:56.367Z</time>
      </trkpt>
      <trkpt lat="43.3387" lon="6.13943">
        <ele>266.221109</ele>
        <time>2025-07-06T16:56:13.350Z</time>
      </trkpt>
      <trkpt lat="43.33866" lon="6.13929">
        <ele>266.274768</ele>
        <time>2025-07-06T16:56:16.350Z</time>
      </trkpt>
      <trkpt lat="43.33854" lon="6.13886">
        <ele>266.546536</ele>
        <time>2025-07-06T16:56:25.279Z</time>
      </trkpt>
      <trkpt lat="43.33848" lon="6.13841">
        <ele>266.817969</ele>
        <time>2025-07-06T16:56:34.129Z</time>
      </trkpt>
      <trkpt lat="43.3385" lon="6.13788">
        <ele>267.13807</ele>
        <time>2025-07-06T16:56:44.378Z</time>
      </trkpt>
      <trkpt lat="43.33877" lon="6.13713">
        <ele>267.639397</ele>
        <time>2025-07-06T16:57:00.069Z</time>
      </trkpt>
      <trkpt lat="43.33937" lon="6.13592">
        <ele>269.626075</ele>
        <time>2025-07-06T16:57:34.152Z</time>
      </trkpt>
      <trkpt lat="43.33944" lon="6.13565">
        <ele>270.049369</ele>
        <time>2025-07-06T16:57:42.412Z</time>
      </trkpt>
      <trkpt lat="43.33962" lon="6.13421">
        <ele>271.48183</ele>
        <time>2025-07-06T16:58:20.002Z</time>
      </trkpt>
      <trkpt lat="43.33973" lon="6.13393">
        <ele>271.543771</ele>
        <time>2025-07-06T16:58:26.440Z</time>
      </trkpt>
      <trkpt lat="43.34008" lon="6.13347">
        <ele>271.674655</ele>
        <time>2025-07-06T16:58:37.537Z</time>
      </trkpt>
      <trkpt lat="43.3406" lon="6.1329">
        <ele>271.85314</ele>
        <time>2025-07-06T16:58:50.936Z</time>
      </trkpt>
      <trkpt lat="43.34098" lon="6.13208">
        <ele>271.866893</ele>
        <time>2025-07-06T16:59:05.911Z</time>
      </trkpt>
      <trkpt lat="43.34125" lon="6.13138">
        <ele>271.875577</ele>
        <time>2025-07-06T16:59:20.306Z</time>
      </trkpt>
      <trkpt lat="43.34127" lon="6.13126">
        <ele>271.876896</ele>
        <time>2025-07-06T16:59:22.652Z</time>
      </trkpt>
      <trkpt lat="43.34145" lon="6.13042">
        <ele>272.132127</ele>
        <time>2025-07-06T16:59:40.145Z</time>
      </trkpt>
      <trkpt lat="43.34157" lon="6.12945">
        <ele>273.036967</ele>
        <time>2025-07-06T17:00:00.309Z</time>
      </trkpt>
      <trkpt lat="43.34161" lon="6.12945">
        <ele>273.092827</ele>
        <time>2025-07-06T17:00:03.332Z</time>
      </trkpt>
      <trkpt lat="43.34172" lon="6.12945">
        <ele>273.23375</ele>
        <time>2025-07-06T17:00:11.033Z</time>
      </trkpt>
      <trkpt lat="43.34196" lon="6.12947">
        <ele>273.536586</ele>
        <time>2025-07-06T17:00:17.997Z</time>
      </trkpt>
      <trkpt lat="43.34214" lon="6.12943">
        <ele>273.763059</ele>
        <time>2025-07-06T17:00:23.626Z</time>
      </trkpt>
      <trkpt lat="43.34218" lon="6.12933">
        <ele>273.872917</ele>
        <time>2025-07-06T17:00:26.272Z</time>
      </trkpt>
      <trkpt lat="43.34254" lon="6.12885">
        <ele>274.621218</ele>
        <time>2025-07-06T17:00:42.425Z</time>
      </trkpt>
      <trkpt lat="43.34267" lon="6.12879">
        <ele>274.854229</ele>
        <time>2025-07-06T17:00:47.050Z</time>
      </trkpt>
      <trkpt lat="43.34278" lon="6.12908">
        <ele>275.258152</ele>
        <time>2025-07-06T17:00:55.716Z</time>
      </trkpt>
      <trkpt lat="43.34282" lon="6.12914">
        <ele>275.35565</ele>
        <time>2025-07-06T17:00:57.793Z</time>
      </trkpt>
      <trkpt lat="43.34296" lon="6.12932">
        <ele>275.677324</ele>
        <time>2025-07-06T17:01:05.066Z</time>
      </trkpt>
      <trkpt lat="43.34338" lon="6.12889">
        <ele>276.567463</ele>
        <time>2025-07-06T17:01:23.734Z</time>
      </trkpt>
      <trkpt lat="43.34347" lon="6.12884">
        <ele>276.723072</ele>
        <time>2025-07-06T17:01:26.426Z</time>
      </trkpt>
      <trkpt lat="43.34404" lon="6.1289">
        <ele>276.935138</ele>
        <time>2025-07-06T17:01:39.222Z</time>
      </trkpt>
      <trkpt lat="43.3441" lon="6.12888">
        <ele>276.872697</ele>
        <time>2025-07-06T17:01:40.606Z</time>
      </trkpt>
      <trkpt lat="43.3442" lon="6.12879">
        <ele>276.774832</ele>
        <time>2025-07-06T17:01:42.832Z</time>
      </trkpt>
      <trkpt lat="43.34435" lon="6.1286">
        <ele>276.589499</ele>
        <time>2025-07-06T17:01:47.114Z</time>
      </trkpt>
      <trkpt lat="43.3444" lon="6.12846">
        <ele>276.488138</ele>
        <time>2025-07-06T17:01:49.511Z</time>
      </trkpt>
      <trkpt lat="43.3444" lon="6.12818">
        <ele>276.306382</ele>
        <time>2025-07-06T17:01:53.629Z</time>
      </trkpt>
      <trkpt lat="43.34465" lon="6.12797">
        <ele>276.047679</ele>
        <time>2025-07-06T17:01:59.362Z</time>
      </trkpt>
      <trkpt lat="43.34453" lon="6.12777">
        <ele>275.879247</ele>
        <time>2025-07-06T17:02:02.882Z</time>
      </trkpt>
      <trkpt lat="43.34475" lon="6.1276">
        <ele>275.651532</ele>
        <time>2025-07-06T17:02:07.903Z</time>
      </trkpt>
      <trkpt lat="43.34521" lon="6.12711">
        <ele>275.514211</ele>
        <time>2025-07-06T17:02:21.009Z</time>
      </trkpt>
      <trkpt lat="43.34562" lon="6.12642">
        <ele>275.416033</ele>
        <time>2025-07-06T17:02:37.195Z</time>
      </trkpt>
      <trkpt lat="43.3459" lon="6.12583">
        <ele>275.338947</ele>
        <time>2025-07-06T17:02:48.896Z</time>
      </trkpt>
      <trkpt lat="43.34599" lon="6.12551">
        <ele>275.346405</ele>
        <time>2025-07-06T17:02:54.537Z</time>
      </trkpt>
      <trkpt lat="43.34607" lon="6.12407">
        <ele>275.568767</ele>
        <time>2025-07-06T17:03:19.131Z</time>
      </trkpt>
      <trkpt lat="43.34609" lon="6.12328">
        <ele>275.69066</ele>
        <time>2025-07-06T17:03:33.868Z</time>
      </trkpt>
      <trkpt lat="43.34613" lon="6.12263">
        <ele>276.038295</ele>
        <time>2025-07-06T17:03:46.594Z</time>
      </trkpt>
      <trkpt lat="43.34632" lon="6.12214">
        <ele>276.36</ele>
        <time>2025-07-06T17:03:58.071Z</time>
      </trkpt>
      <trkpt lat="43.34646" lon="6.12182">
        <ele>276.574827</ele>
        <time>2025-07-06T17:04:05.585Z</time>
      </trkpt>
      <trkpt lat="43.34693" lon="6.1212">
        <ele>277.090852</ele>
        <time>2025-07-06T17:04:23.045Z</time>
      </trkpt>
      <trkpt lat="43.34681" lon="6.12104">
        <ele>277.307603</ele>
        <time>2025-07-06T17:04:27.421Z</time>
      </trkpt>
      <trkpt lat="43.3465" lon="6.12027">
        <ele>278.254721</ele>
        <time>2025-07-06T17:04:44.716Z</time>
      </trkpt>
      <trkpt lat="43.34639" lon="6.11954">
        <ele>279.056988</ele>
        <time>2025-07-06T17:05:01.413Z</time>
      </trkpt>
      <trkpt lat="43.34635" lon="6.11924">
        <ele>279.384396</ele>
        <time>2025-07-06T17:05:08.772Z</time>
      </trkpt>
      <trkpt lat="43.34636" lon="6.11891">
        <ele>279.749841</ele>
        <time>2025-07-06T17:05:17.461Z</time>
      </trkpt>
      <trkpt lat="43.34632" lon="6.11829">
        <ele>280.773603</ele>
        <time>2025-07-06T17:05:34.304Z</time>
      </trkpt>
      <trkpt lat="43.3462" lon="6.11705">
        <ele>282.89071</ele>
        <time>2025-07-06T17:06:08.024Z</time>
      </trkpt>
      <trkpt lat="43.34614" lon="6.11676">
        <ele>283.395099</ele>
        <time>2025-07-06T17:06:15.040Z</time>
      </trkpt>
      <trkpt lat="43.34583" lon="6.11647">
        <ele>284.141464</ele>
        <time>2025-07-06T17:06:26.561Z</time>
      </trkpt>
      <trkpt lat="43.3458" lon="6.11639">
        <ele>284.215759</ele>
        <time>2025-07-06T17:06:28.305Z</time>
      </trkpt>
      <trkpt lat="43.34557" lon="6.11397">
        <ele>286.540003</ele>
        <time>2025-07-06T17:07:18.704Z</time>
      </trkpt>
      <trkpt lat="43.34522" lon="6.11309">
        <ele>287.972484</ele>
        <time>2025-07-06T17:07:43.387Z</time>
      </trkpt>
      <trkpt lat="43.34503" lon="6.11273">
        <ele>288.612509</ele>
        <time>2025-07-06T17:07:54.857Z</time>
      </trkpt>
      <trkpt lat="43.34484" lon="6.11216">
        <ele>289.513816</ele>
        <time>2025-07-06T17:08:10.791Z</time>
      </trkpt>
      <trkpt lat="43.34468" lon="6.11222">
        <ele>289.796046</ele>
        <time>2025-07-06T17:08:16.102Z</time>
      </trkpt>
      <trkpt lat="43.34453" lon="6.11147">
        <ele>290.467858</ele>
        <time>2025-07-06T17:08:33.184Z</time>
      </trkpt>
      <trkpt lat="43.34436" lon="6.11094">
        <ele>290.973842</ele>
        <time>2025-07-06T17:08:45.072Z</time>
      </trkpt>
      <trkpt lat="43.34427" lon="6.11035">
        <ele>291.500412</ele>
        <time>2025-07-06T17:08:57.244Z</time>
      </trkpt>
      <trkpt lat="43.34401" lon="6.10961">
        <ele>291.728123</ele>
        <time>2025-07-06T17:09:12.085Z</time>
      </trkpt>
      <trkpt lat="43.34378" lon="6.10905">
        <ele>291.429276</ele>
        <time>2025-07-06T17:09:22.370Z</time>
      </trkpt>
      <trkpt lat="43.34332" lon="6.10776">
        <ele>290.767308</ele>
        <time>2025-07-06T17:09:42.969Z</time>
      </trkpt>
      <trkpt lat="43.34313" lon="6.10708">
        <ele>290.130747</ele>
        <time>2025-07-06T17:09:52.748Z</time>
      </trkpt>
      <trkpt lat="43.34305" lon="6.10695">
        <ele>289.983636</ele>
        <time>2025-07-06T17:09:54.955Z</time>
      </trkpt>
      <trkpt lat="43.34281" lon="6.1062">
        <ele>289.252335</ele>
        <time>2025-07-06T17:10:06.204Z</time>
      </trkpt>
      <trkpt lat="43.34247" lon="6.10538">
        <ele>288.609114</ele>
        <time>2025-07-06T17:10:20.449Z</time>
      </trkpt>
      <trkpt lat="43.34221" lon="6.10457">
        <ele>288.892945</ele>
        <time>2025-07-06T17:10:35.694Z</time>
      </trkpt>
      <trkpt lat="43.34198" lon="6.10389">
        <ele>289.134298</ele>
        <time>2025-07-06T17:10:50.293Z</time>
      </trkpt>
      <trkpt lat="43.34173" lon="6.10289">
        <ele>289.593002</ele>
        <time>2025-07-06T17:11:10.500Z</time>
      </trkpt>
      <trkpt lat="43.34156" lon="6.10189">
        <ele>290.249706</ele>
        <time>2025-07-06T17:11:29.199Z</time>
      </trkpt>
      <trkpt lat="43.3415" lon="6.10123">
        <ele>290.6763</ele>
        <time>2025-07-06T17:11:42.972Z</time>
      </trkpt>
      <trkpt lat="43.34142" lon="6.10034">
        <ele>290.963619</ele>
        <time>2025-07-06T17:12:01.531Z</time>
      </trkpt>
      <trkpt lat="43.34143" lon="6.09973">
        <ele>291.000473</ele>
        <time>2025-07-06T17:12:13.171Z</time>
      </trkpt>
      <trkpt lat="43.34146" lon="6.09944">
        <ele>291.018346</ele>
        <time>2025-07-06T17:12:18.174Z</time>
      </trkpt>
      <trkpt lat="43.34155" lon="6.09878">
        <ele>291.0594</ele>
        <time>2025-07-06T17:12:28.052Z</time>
      </trkpt>
      <trkpt lat="43.34166" lon="6.09819">
        <ele>291.02902</ele>
        <time>2025-07-06T17:12:36.826Z</time>
      </trkpt>
      <trkpt lat="43.34151" lon="6.09806">
        <ele>290.963959</ele>
        <time>2025-07-06T17:12:40.338Z</time>
      </trkpt>
      <trkpt lat="43.34149" lon="6.09794">
        <ele>290.931034</ele>
        <time>2025-07-06T17:12:42.146Z</time>
      </trkpt>
      <trkpt lat="43.34149" lon="6.09785">
        <ele>290.906942</ele>
        <time>2025-07-06T17:12:43.445Z</time>
      </trkpt>
      <trkpt lat="43.34185" lon="6.09705">
        <ele>290.657464</ele>
        <time>2025-07-06T17:12:58.308Z</time>
      </trkpt>
      <trkpt lat="43.34187" lon="6.09688">
        <ele>290.610369</ele>
        <time>2025-07-06T17:13:01.203Z</time>
      </trkpt>
      <trkpt lat="43.34192" lon="6.09679">
        <ele>290.579788</ele>
        <time>2025-07-06T17:13:03.131Z</time>
      </trkpt>
      <trkpt lat="43.34237" lon="6.09641">
        <ele>290.428104</ele>
        <time>2025-07-06T17:13:17.066Z</time>
      </trkpt>
      <trkpt lat="43.34281" lon="6.09545">
        <ele>290.4491</ele>
        <time>2025-07-06T17:13:36.031Z</time>
      </trkpt>
      <trkpt lat="43.34309" lon="6.09453">
        <ele>290.467721</ele>
        <time>2025-07-06T17:13:52.475Z</time>
      </trkpt>
      <trkpt lat="43.34317" lon="6.09419">
        <ele>290.533538</ele>
        <time>2025-07-06T17:13:58.541Z</time>
      </trkpt>
      <trkpt lat="43.34317" lon="6.09409">
        <ele>290.573636</ele>
        <time>2025-07-06T17:14:00.331Z</time>
      </trkpt>
      <trkpt lat="43.3431" lon="6.09387">
        <ele>290.664953</ele>
        <time>2025-07-06T17:14:04.499Z</time>
      </trkpt>
      <trkpt lat="43.3431" lon="6.09376">
        <ele>290.705738</ele>
        <time>2025-07-06T17:14:06.379Z</time>
      </trkpt>
      <trkpt lat="43.34323" lon="6.09338">
        <ele>290.868447</ele>
        <time>2025-07-06T17:14:14.200Z</time>
      </trkpt>
      <trkpt lat="43.34332" lon="6.09301">
        <ele>291.019288</ele>
        <time>2025-07-06T17:14:21.794Z</time>
      </trkpt>
      <trkpt lat="43.34332" lon="6.09246">
        <ele>291.233725</ele>
        <time>2025-07-06T17:14:32.981Z</time>
      </trkpt>
      <trkpt lat="43.34344" lon="6.09226">
        <ele>291.334641</ele>
        <time>2025-07-06T17:14:38.236Z</time>
      </trkpt>
      <trkpt lat="43.34391" lon="6.0912">
        <ele>291.663845</ele>
        <time>2025-07-06T17:15:01.712Z</time>
      </trkpt>
      <trkpt lat="43.34402" lon="6.0906">
        <ele>291.808636</ele>
        <time>2025-07-06T17:15:12.514Z</time>
      </trkpt>
      <trkpt lat="43.34439" lon="6.08977">
        <ele>292.025528</ele>
        <time>2025-07-06T17:15:28.853Z</time>
      </trkpt>
      <trkpt lat="43.34454" lon="6.08926">
        <ele>292.104755</ele>
        <time>2025-07-06T17:15:38.424Z</time>
      </trkpt>
      <trkpt lat="43.34461" lon="6.08887">
        <ele>292.162075</ele>
        <time>2025-07-06T17:15:45.526Z</time>
      </trkpt>
      <trkpt lat="43.34466" lon="6.08848">
        <ele>292.218208</ele>
        <time>2025-07-06T17:15:52.391Z</time>
      </trkpt>
      <trkpt lat="43.34463" lon="6.08809">
        <ele>292.274239</ele>
        <time>2025-07-06T17:15:59.320Z</time>
      </trkpt>
      <trkpt lat="43.34464" lon="6.08798">
        <ele>292.291308</ele>
        <time>2025-07-06T17:16:01.505Z</time>
      </trkpt>
      <trkpt lat="43.34468" lon="6.08769">
        <ele>292.332962</ele>
        <time>2025-07-06T17:16:06.654Z</time>
      </trkpt>
      <trkpt lat="43.34467" lon="6.08756">
        <ele>292.35097</ele>
        <time>2025-07-06T17:16:08.988Z</time>
      </trkpt>
      <trkpt lat="43.34461" lon="6.0876">
        <ele>292.362297</ele>
        <time>2025-07-06T17:16:10.289Z</time>
      </trkpt>
      <trkpt lat="43.34452" lon="6.08701">
        <ele>292.67349</ele>
        <time>2025-07-06T17:16:21.433Z</time>
      </trkpt>
      <trkpt lat="43.34437" lon="6.0866">
        <ele>292.914285</ele>
        <time>2025-07-06T17:16:29.966Z</time>
      </trkpt>
      <trkpt lat="43.34321" lon="6.08466">
        <ele>294.229502</ele>
        <time>2025-07-06T17:17:20.581Z</time>
      </trkpt>
      <trkpt lat="43.34299" lon="6.08422">
        <ele>294.508561</ele>
        <time>2025-07-06T17:17:31.632Z</time>
      </trkpt>
      <trkpt lat="43.3426" lon="6.08302">
        <ele>295.064606</ele>
        <time>2025-07-06T17:17:55.361Z</time>
      </trkpt>
      <trkpt lat="43.34251" lon="6.08294">
        <ele>295.100125</ele>
        <time>2025-07-06T17:17:57.741Z</time>
      </trkpt>
      <trkpt lat="43.34242" lon="6.0829">
        <ele>295.13356</ele>
        <time>2025-07-06T17:17:59.961Z</time>
      </trkpt>
      <trkpt lat="43.3423" lon="6.08291">
        <ele>295.172063</ele>
        <time>2025-07-06T17:18:02.539Z</time>
      </trkpt>
      <trkpt lat="43.34158" lon="6.08326">
        <ele>295.431571</ele>
        <time>2025-07-06T17:18:19.737Z</time>
      </trkpt>
      <trkpt lat="43.34142" lon="6.08334">
        <ele>295.488225</ele>
        <time>2025-07-06T17:18:23.532Z</time>
      </trkpt>
      <trkpt lat="43.33974" lon="6.08417">
        <ele>297.537205</ele>
        <time>2025-07-06T17:19:14.943Z</time>
      </trkpt>
      <trkpt lat="43.3396" lon="6.08426">
        <ele>297.730466</ele>
        <time>2025-07-06T17:19:19.493Z</time>
      </trkpt>
      <trkpt lat="43.33956" lon="6.08432">
        <ele>297.805314</ele>
        <time>2025-07-06T17:19:21.375Z</time>
      </trkpt>
      <trkpt lat="43.3394" lon="6.08421">
        <ele>297.973824</ele>
        <time>2025-07-06T17:19:26.409Z</time>
      </trkpt>
      <trkpt lat="43.33928" lon="6.08407">
        <ele>298.123874</ele>
        <time>2025-07-06T17:19:31.011Z</time>
      </trkpt>
      <trkpt lat="43.33877" lon="6.08325">
        <ele>298.882542</ele>
        <time>2025-07-06T17:19:53.999Z</time>
      </trkpt>
      <trkpt lat="43.33818" lon="6.08256">
        <ele>299.552451</ele>
        <time>2025-07-06T17:20:12.358Z</time>
      </trkpt>
      <trkpt lat="43.33782" lon="6.08208">
        <ele>299.604666</ele>
        <time>2025-07-06T17:20:24.454Z</time>
      </trkpt>
      <trkpt lat="43.33716" lon="6.08128">
        <ele>299.696676</ele>
        <time>2025-07-06T17:20:43.928Z</time>
      </trkpt>
      <trkpt lat="43.3371" lon="6.08096">
        <ele>299.721448</ele>
        <time>2025-07-06T17:20:49.051Z</time>
      </trkpt>
      <trkpt lat="43.33703" lon="6.08072">
        <ele>299.825545</ele>
        <time>2025-07-06T17:20:53.073Z</time>
      </trkpt>
      <trkpt lat="43.33692" lon="6.08054">
        <ele>299.994109</ele>
        <time>2025-07-06T17:20:56.961Z</time>
      </trkpt>
      <trkpt lat="43.33679" lon="6.0804">
        <ele>300.152795</ele>
        <time>2025-07-06T17:21:00.865Z</time>
      </trkpt>
      <trkpt lat="43.33665" lon="6.08031">
        <ele>300.307451</ele>
        <time>2025-07-06T17:21:04.952Z</time>
      </trkpt>
      <trkpt lat="43.33604" lon="6.08036">
        <ele>300.898424</ele>
        <time>2025-07-06T17:21:22.266Z</time>
      </trkpt>
      <trkpt lat="43.33548" lon="6.07992">
        <ele>301.544736</ele>
        <time>2025-07-06T17:21:41.439Z</time>
      </trkpt>
      <trkpt lat="43.33532" lon="6.07983">
        <ele>301.824159</ele>
        <time>2025-07-06T17:21:46.775Z</time>
      </trkpt>
      <trkpt lat="43.33523" lon="6.07977">
        <ele>301.987888</ele>
        <time>2025-07-06T17:21:49.912Z</time>
      </trkpt>
      <trkpt lat="43.33509" lon="6.0796">
        <ele>302.284385</ele>
        <time>2025-07-06T17:21:55.782Z</time>
      </trkpt>
      <trkpt lat="43.33458" lon="6.07884">
        <ele>303.478497</ele>
        <time>2025-07-06T17:22:18.917Z</time>
      </trkpt>
      <trkpt lat="43.33449" lon="6.07866">
        <ele>303.725812</ele>
        <time>2025-07-06T17:22:23.562Z</time>
      </trkpt>
      <trkpt lat="43.3344" lon="6.07832">
        <ele>304.148364</ele>
        <time>2025-07-06T17:22:31.464Z</time>
      </trkpt>
      <trkpt lat="43.33435" lon="6.07809">
        <ele>304.351887</ele>
        <time>2025-07-06T17:22:36.597Z</time>
      </trkpt>
      <trkpt lat="43.33427" lon="6.07769">
        <ele>304.436727</ele>
        <time>2025-07-06T17:22:45.324Z</time>
      </trkpt>
      <trkpt lat="43.3341" lon="6.07739">
        <ele>304.514497</ele>
        <time>2025-07-06T17:22:52.941Z</time>
      </trkpt>
      <trkpt lat="43.33406" lon="6.07734">
        <ele>304.530203</ele>
        <time>2025-07-06T17:22:54.443Z</time>
      </trkpt>
      <trkpt lat="43.334" lon="6.07731">
        <ele>304.547811</ele>
        <time>2025-07-06T17:22:56.080Z</time>
      </trkpt>
      <trkpt lat="43.3338" lon="6.07699">
        <ele>304.63392</ele>
        <time>2025-07-06T17:23:03.713Z</time>
      </trkpt>
      <trkpt lat="43.33379" lon="6.07697">
        <ele>304.639148</ele>
        <time>2025-07-06T17:23:04.171Z</time>
      </trkpt>
      <trkpt lat="43.33378" lon="6.07695">
        <ele>304.642417</ele>
        <time>2025-07-06T17:23:04.443Z</time>
      </trkpt>
      <trkpt lat="43.33378" lon="6.07687">
        <ele>304.65906</ele>
        <time>2025-07-06T17:23:05.852Z</time>
      </trkpt>
      <trkpt lat="43.33369" lon="6.07662">
        <ele>304.7161</ele>
        <time>2025-07-06T17:23:10.473Z</time>
      </trkpt>
      <trkpt lat="43.33348" lon="6.07588">
        <ele>304.567017</ele>
        <time>2025-07-06T17:23:22.081Z</time>
      </trkpt>
      <trkpt lat="43.33339" lon="6.07525">
        <ele>303.614857</ele>
        <time>2025-07-06T17:23:30.471Z</time>
      </trkpt>
      <trkpt lat="43.33334" lon="6.07453">
        <ele>302.52538</ele>
        <time>2025-07-06T17:23:39.852Z</time>
      </trkpt>
      <trkpt lat="43.33331" lon="6.07387">
        <ele>301.532147</ele>
        <time>2025-07-06T17:23:48.416Z</time>
      </trkpt>
      <trkpt lat="43.33331" lon="6.0738">
        <ele>301.422713</ele>
        <time>2025-07-06T17:23:49.362Z</time>
      </trkpt>
      <trkpt lat="43.33331" lon="6.07301">
        <ele>300.945881</ele>
        <time>2025-07-06T17:23:59.681Z</time>
      </trkpt>
      <trkpt lat="43.33336" lon="6.07155">
        <ele>300.489465</ele>
        <time>2025-07-06T17:24:21.687Z</time>
      </trkpt>
      <trkpt lat="43.33341" lon="6.07128">
        <ele>300.400304</ele>
        <time>2025-07-06T17:24:27.692Z</time>
      </trkpt>
      <trkpt lat="43.33357" lon="6.0708">
        <ele>301.357413</ele>
        <time>2025-07-06T17:24:40.012Z</time>
      </trkpt>
      <trkpt lat="43.33386" lon="6.07018">
        <ele>303.267187</ele>
        <time>2025-07-06T17:25:00.991Z</time>
      </trkpt>
      <trkpt lat="43.33386" lon="6.07009">
        <ele>303.497314</ele>
        <time>2025-07-06T17:25:03.735Z</time>
      </trkpt>
      <trkpt lat="43.33397" lon="6.07011">
        <ele>303.889286</ele>
        <time>2025-07-06T17:25:10.240Z</time>
      </trkpt>
      <trkpt lat="43.33406" lon="6.07007">
        <ele>304.2267</ele>
        <time>2025-07-06T17:25:15.965Z</time>
      </trkpt>
      <trkpt lat="43.33425" lon="6.06969">
        <ele>305.410664</ele>
        <time>2025-07-06T17:25:36.382Z</time>
      </trkpt>
      <trkpt lat="43.33443" lon="6.06919">
        <ele>306.84821</ele>
        <time>2025-07-06T17:26:01.228Z</time>
      </trkpt>
      <trkpt lat="43.33462" lon="6.06851">
        <ele>308.370722</ele>
        <time>2025-07-06T17:26:32.445Z</time>
      </trkpt>
      <trkpt lat="43.33471" lon="6.06779">
        <ele>309.896707</ele>
        <time>2025-07-06T17:27:01.175Z</time>
      </trkpt>
      <trkpt lat="43.33473" lon="6.06761">
        <ele>310.285513</ele>
        <time>2025-07-06T17:27:07.727Z</time>
      </trkpt>
      <trkpt lat="43.33472" lon="6.06729">
        <ele>310.961033</ele>
        <time>2025-07-06T17:27:18.487Z</time>
      </trkpt>
      <trkpt lat="43.33464" lon="6.06703">
        <ele>311.54405</ele>
        <time>2025-07-06T17:27:27.000Z</time>
      </trkpt>
      <trkpt lat="43.33445" lon="6.06676">
        <ele>312.150155</ele>
        <time>2025-07-06T17:27:37.341Z</time>
      </trkpt>
      <trkpt lat="43.33388" lon="6.06623">
        <ele>313.211325</ele>
        <time>2025-07-06T17:28:04.535Z</time>
      </trkpt>
      <trkpt lat="43.33369" lon="6.06587">
        <ele>313.712958</ele>
        <time>2025-07-06T17:28:19.656Z</time>
      </trkpt>
      <trkpt lat="43.33359" lon="6.06549">
        <ele>314.171832</ele>
        <time>2025-07-06T17:28:33.995Z</time>
      </trkpt>
      <trkpt lat="43.33359" lon="6.06535">
        <ele>314.321866</ele>
        <time>2025-07-06T17:28:38.776Z</time>
      </trkpt>
      <trkpt lat="43.33373" lon="6.06535">
        <ele>314.531226</ele>
        <time>2025-07-06T17:28:43.703Z</time>
      </trkpt>
      <trkpt lat="43.33379" lon="6.06531">
        <ele>314.643449</ele>
        <time>2025-07-06T17:28:46.248Z</time>
      </trkpt>
      <trkpt lat="43.33395" lon="6.06502">
        <ele>314.969263</ele>
        <time>2025-07-06T17:28:55.673Z</time>
      </trkpt>
      <trkpt lat="43.33404" lon="6.06492">
        <ele>315.102731</ele>
        <time>2025-07-06T17:28:59.875Z</time>
      </trkpt>
      <trkpt lat="43.33429" lon="6.06473">
        <ele>315.440221</ele>
        <time>2025-07-06T17:29:10.709Z</time>
      </trkpt>
      <trkpt lat="43.3344" lon="6.06469">
        <ele>315.578403</ele>
        <time>2025-07-06T17:29:15.203Z</time>
      </trkpt>
      <trkpt lat="43.33461" lon="6.06468">
        <ele>315.8249</ele>
        <time>2025-07-06T17:29:23.206Z</time>
      </trkpt>
      <trkpt lat="43.33477" lon="6.06476">
        <ele>316.029255</ele>
        <time>2025-07-06T17:29:28.703Z</time>
      </trkpt>
      <trkpt lat="43.3353" lon="6.06524">
        <ele>316.769403</ele>
        <time>2025-07-06T17:29:42.648Z</time>
      </trkpt>
      <trkpt lat="43.33539" lon="6.06527">
        <ele>316.769026</ele>
        <time>2025-07-06T17:29:44.604Z</time>
      </trkpt>
      <trkpt lat="43.33548" lon="6.06522">
        <ele>316.606571</ele>
        <time>2025-07-06T17:29:46.368Z</time>
      </trkpt>
      <trkpt lat="43.33556" lon="6.06481">
        <ele>316.059804</ele>
        <time>2025-07-06T17:29:52.170Z</time>
      </trkpt>
      <trkpt lat="43.33562" lon="6.06476">
        <ele>315.949634</ele>
        <time>2025-07-06T17:29:53.313Z</time>
      </trkpt>
      <trkpt lat="43.33679" lon="6.06417">
        <ele>313.753734</ele>
        <time>2025-07-06T17:30:16.508Z</time>
      </trkpt>
      <trkpt lat="43.3377" lon="6.06374">
        <ele>316.296147</ele>
        <time>2025-07-06T17:30:43.838Z</time>
      </trkpt>
      <trkpt lat="43.33826" lon="6.06349">
        <ele>317.965647</ele>
        <time>2025-07-06T17:31:12.059Z</time>
      </trkpt>
      <trkpt lat="43.33894" lon="6.06304">
        <ele>321.284773</ele>
        <time>2025-07-06T17:31:53.192Z</time>
      </trkpt>
      <trkpt lat="43.3387" lon="6.06206">
        <ele>325.357031</ele>
        <time>2025-07-06T17:32:33.839Z</time>
      </trkpt>
      <trkpt lat="43.33857" lon="6.06154">
        <ele>327.533236</ele>
        <time>2025-07-06T17:32:53.102Z</time>
      </trkpt>
      <trkpt lat="43.33847" lon="6.06116">
        <ele>328.638551</ele>
        <time>2025-07-06T17:33:05.790Z</time>
      </trkpt>
      <trkpt lat="43.33819" lon="6.06015">
        <ele>329.446758</ele>
        <time>2025-07-06T17:33:34.403Z</time>
      </trkpt>
      <trkpt lat="43.33803" lon="6.05958">
        <ele>329.901382</ele>
        <time>2025-07-06T17:33:44.996Z</time>
      </trkpt>
      <trkpt lat="43.33782" lon="6.05909">
        <ele>330.321611</ele>
        <time>2025-07-06T17:33:53.228Z</time>
      </trkpt>
      <trkpt lat="43.33771" lon="6.05875">
        <ele>329.669048</ele>
        <time>2025-07-06T17:33:58.272Z</time>
      </trkpt>
      <trkpt lat="43.33766" lon="6.05842">
        <ele>328.902497</ele>
        <time>2025-07-06T17:34:02.589Z</time>
      </trkpt>
      <trkpt lat="43.33763" lon="6.05773">
        <ele>327.313821</ele>
        <time>2025-07-06T17:34:11.383Z</time>
      </trkpt>
      <trkpt lat="43.33766" lon="6.05694">
        <ele>325.496184</ele>
        <time>2025-07-06T17:34:21.442Z</time>
      </trkpt>
      <trkpt lat="43.33769" lon="6.05592">
        <ele>323.462405</ele>
        <time>2025-07-06T17:34:34.689Z</time>
      </trkpt>
      <trkpt lat="43.33769" lon="6.05568">
        <ele>323.028033</ele>
        <time>2025-07-06T17:34:37.794Z</time>
      </trkpt>
      <trkpt lat="43.33767" lon="6.05415">
        <ele>320.224282</ele>
        <time>2025-07-06T17:34:58.782Z</time>
      </trkpt>
      <trkpt lat="43.33761" lon="6.05185">
        <ele>319.041247</ele>
        <time>2025-07-06T17:35:35.216Z</time>
      </trkpt>
      <trkpt lat="43.33755" lon="6.05089">
        <ele>318.919881</ele>
        <time>2025-07-06T17:35:51.200Z</time>
      </trkpt>
      <trkpt lat="43.33755" lon="6.05016">
        <ele>318.901141</ele>
        <time>2025-07-06T17:36:03.254Z</time>
      </trkpt>
      <trkpt lat="43.33756" lon="6.04842">
        <ele>319.117258</ele>
        <time>2025-07-06T17:36:33.647Z</time>
      </trkpt>
      <trkpt lat="43.33828" lon="6.0493">
        <ele>319.540121</ele>
        <time>2025-07-06T17:36:56.827Z</time>
      </trkpt>
      <trkpt lat="43.33846" lon="6.04946">
        <ele>319.633045</ele>
        <time>2025-07-06T17:37:02.010Z</time>
      </trkpt>
      <trkpt lat="43.33904" lon="6.04965">
        <ele>320.6392</ele>
        <time>2025-07-06T17:37:18.727Z</time>
      </trkpt>
      <trkpt lat="43.33958" lon="6.04979">
        <ele>321.642287</ele>
        <time>2025-07-06T17:37:36.508Z</time>
      </trkpt>
      <trkpt lat="43.33969" lon="6.04981">
        <ele>321.842742</ele>
        <time>2025-07-06T17:37:40.280Z</time>
      </trkpt>
      <trkpt lat="43.33982" lon="6.04982">
        <ele>322.082504</ele>
        <time>2025-07-06T17:37:44.871Z</time>
      </trkpt>
      <trkpt lat="43.33983" lon="6.04984">
        <ele>322.109564</ele>
        <time>2025-07-06T17:37:45.415Z</time>
      </trkpt>
      <trkpt lat="43.33985" lon="6.04986">
        <ele>322.162676</ele>
        <time>2025-07-06T17:37:46.383Z</time>
      </trkpt>
      <trkpt lat="43.33993" lon="6.04987">
        <ele>322.321073</ele>
        <time>2025-07-06T17:37:49.482Z</time>
      </trkpt>
      <trkpt lat="43.34012" lon="6.04992">
        <ele>322.675107</ele>
        <time>2025-07-06T17:37:56.397Z</time>
      </trkpt>
      <trkpt lat="43.34097" lon="6.05019">
        <ele>324.133788</ele>
        <time>2025-07-06T17:38:26.812Z</time>
      </trkpt>
      <trkpt lat="43.34159" lon="6.05043">
        <ele>325.194182</ele>
        <time>2025-07-06T17:38:45.791Z</time>
      </trkpt>
      <trkpt lat="43.34176" lon="6.05051">
        <ele>325.48485</ele>
        <time>2025-07-06T17:38:50.738Z</time>
      </trkpt>
      <trkpt lat="43.34191" lon="6.05063">
        <ele>325.779179</ele>
        <time>2025-07-06T17:38:55.718Z</time>
      </trkpt>
      <trkpt lat="43.34208" lon="6.05078">
        <ele>326.087449</ele>
        <time>2025-07-06T17:39:01.298Z</time>
      </trkpt>
      <trkpt lat="43.34217" lon="6.05081">
        <ele>326.217612</ele>
        <time>2025-07-06T17:39:03.877Z</time>
      </trkpt>
      <trkpt lat="43.34304" lon="6.05087">
        <ele>327.445614</ele>
        <time>2025-07-06T17:39:29.555Z</time>
      </trkpt>
      <trkpt lat="43.34446" lon="6.05109">
        <ele>328.483618</ele>
        <time>2025-07-06T17:40:15.396Z</time>
      </trkpt>
      <trkpt lat="43.34476" lon="6.05123">
        <ele>328.483618</ele>
        <time>2025-07-06T17:40:24.852Z</time>
      </trkpt>
      <trkpt lat="43.34476" lon="6.05156">
        <ele>328.483618</ele>
        <time>2025-07-06T17:40:31.593Z</time>
      </trkpt>
      <trkpt lat="43.34476" lon="6.05157">
        <ele>328.483618</ele>
        <time>2025-07-06T17:40:31.775Z</time>
      </trkpt>
    </trkseg>
  </trk>
</gpx>